[[[{"header":{"parameterUnit":"kt","parameterCategory":2,"dx":1,"dy":1,"la1":29.587661999999998,"la2":31.0,"lo1":-88.76705300000003,"lo2":-86.6583820000003,"nx":115,"ny":88,"refTime":"2022-10-04T00:00:00:Z","depth":0,"parameterNumber":1,"parameterNumberName":"U-component_of_WINDS"},"data":[4.2047,4.2047,4.2047,4.2028,4.2009,4.2009,4.2047,4.2047,4.2009,4.2662,4.292,4.2392,4.1948,4.1614,4.2573,4.294,4.2803,4.3184,4.4338,4.5358,4.4419,4.4979,4.507,4.4286,4.3721,4.3272,4.3174,4.2446,4.1886,4.2373,4.2604,4.2034,4.1484,4.1775,4.1525,4.1732,4.2054,4.2413,4.2184,4.1816,4.2417,4.202,4.1917,4.1716,4.1802,4.1474,4.1203,4.1139,4.116,4.1768,4.2706,4.3744,4.4837,4.5743,4.7056,4.8085,4.8478,4.7398,4.6327,4.5498,4.4271,4.2727,4.1833,4.1886,4.2043,4.2377,4.3058,4.3507,4.4698,4.4651,4.5789,4.7441,4.8615,4.8805,4.7636,4.7736,4.8332,4.8512,4.8276,4.8085,4.8143,4.8273,4.8201,4.7585,4.6868,4.6444,4.5927,4.5481,4.562,4.5795,4.5974,4.5756,4.5607,4.6028,4.6341,4.7103,4.7914,4.8512,4.8905,4.8874,4.9337,5.0241,5.1425,5.2759,5.3623,5.4129,5.4238,5.473,5.4484,5.4538,5.4101,5.3856,5.4101,5.4293,5.4293,4.0376,4.0301,4.0338,4.0338,4.0453,4.0338,4.0376,4.0376,4.0338,4.0529,4.0833,4.0777,4.0715,4.06,4.0781,4.0815,4.1043,4.1577,4.1223,4.1678,4.2353,4.2793,4.3138,4.325,4.3063,4.2904,4.2884,4.1806,4.0777,4.182,4.2122,4.106,4.1695,4.27,4.2382,4.239,4.2671,4.263,4.2345,4.2348,4.1879,4.1262,4.1092,4.0892,4.0941,4.0961,4.0944,4.1019,4.1262,4.1554,4.179,4.3298,4.4629,4.6468,4.7884,4.9219,4.9795,4.9147,4.7836,4.6292,4.4872,4.3389,4.1948,4.1385,4.143,4.1823,4.2456,4.3514,4.5266,4.6269,4.7516,4.8812,4.9856,5.0303,4.824,4.6938,4.773,4.8513,4.821,4.7674,4.7905,4.8311,4.7922,4.7267,4.6779,4.6514,4.5908,4.5399,4.5039,4.5372,4.5094,4.4767,4.5063,4.5254,4.522,4.6054,4.6985,4.7718,4.8825,4.8704,4.89,5.0011,5.1141,5.2398,5.2976,5.3364,5.3473,5.32,5.361,5.3856,5.3419,5.3064,5.3146,5.2954,5.2954,3.9997,3.9997,3.9997,3.9997,3.9997,3.9997,3.9997,3.9997,3.9997,3.9997,4.0053,4.0176,4.0271,4.0281,4.0251,4.0267,4.0176,4.0107,4.0118,4.008,4.0823,4.0957,4.1016,4.1271,4.1737,4.1628,4.1459,4.142,4.043,4.1312,4.158,4.0682,4.0706,4.1262,4.1023,4.1315,4.1835,4.2597,4.1999,4.1508,4.1118,4.0989,4.0722,4.0706,4.0744,4.0787,4.0836,4.1079,4.116,4.1273,4.1273,4.2842,4.4537,4.7174,4.9171,5.0169,5.0714,5.0665,4.8872,4.7127,4.5324,4.3698,4.2185,4.1318,4.1273,4.1576,4.2207,4.3058,4.4826,4.6468,4.7741,4.9423,5.052,5.1175,4.9543,4.8502,4.9182,4.9709,4.9491,4.9047,4.933,4.9515,4.893,4.8295,4.7315,4.6975,4.5515,4.4913,4.4775,4.4871,4.401,4.3725,4.4746,4.5044,4.5491,4.6062,4.6692,4.7642,4.8851,4.9112,4.9514,5.0172,5.0528,5.1018,5.1535,5.2162,5.2108,5.1616,5.1862,5.2463,5.2381,5.2217,5.1889,5.1616,5.1562,3.9997,3.9997,3.9997,3.9997,3.9997,3.9997,3.9997,4.011,4.0088,4.0112,4.0261,4.027,4.0343,4.0398,4.0436,4.0348,4.025,4.0202,4.0157,4.0137,4.0165,4.0315,4.011,4.0373,4.028,3.9997,3.9997,4.028,4.0033,4.008,4.0261,4.0173,4.0267,4.0369,4.031,4.0418,4.0765,4.1471,4.1286,4.1032,4.0947,4.0786,4.0828,4.0799,4.083,4.09,4.1045,4.1088,4.116,4.1273,4.1273,4.1903,4.3126,4.754,4.9447,4.9771,5.0823,5.029,4.892,4.7221,4.5545,4.3915,4.2422,4.1644,4.1363,4.1644,4.2185,4.299,4.418,4.5813,4.7575,4.9506,5.1004,5.1224,5.1224,5.1224,5.1248,5.1297,5.1297,5.1272,5.1272,5.0882,5.0272,4.9411,4.8329,4.7105,4.5668,4.4763,4.468,4.4343,4.3535,4.4096,4.4866,4.5556,4.6235,4.6929,4.765,4.8553,4.8663,4.945,5.0174,5.015,4.9988,5.0122,5.0333,5.0797,5.0961,5.0469,5.0442,5.0797,5.0933,5.1179,5.0933,5.0933,5.0606,3.9997,3.9997,3.9997,3.9997,3.9997,3.9997,3.9997,4.0053,4.0212,4.0438,4.0643,4.073,4.0868,4.0772,4.0727,4.0623,4.0528,4.0356,4.0258,4.0218,4.0163,4.0176,4.0085,4.0072,4.0099,4.0088,4.0107,4.0112,4.0142,4.0201,4.0183,4.0014,4.0069,4.0131,4.0222,4.0222,4.0388,4.0839,4.0947,4.1067,4.1145,4.1132,4.1249,4.111,4.1191,4.1227,4.116,4.1239,4.1273,4.1273,4.1273,4.1296,4.2558,4.5185,4.8225,4.9491,5.0253,4.9723,4.8584,4.6785,4.5208,4.3744,4.2207,4.143,4.1599,4.2049,4.2456,4.3194,4.4488,4.6054,4.7052,4.8676,4.9946,5.0418,5.054,5.0565,5.0565,5.054,5.054,5.0277,5.0228,5.0034,4.9476,4.862,4.7501,4.7062,4.6117,4.4987,4.4632,4.4034,4.4196,4.4875,4.5506,4.6201,4.6903,4.762,4.8477,4.8689,4.8333,4.8908,5.012,4.9907,4.9477,4.9907,5.0333,5.0333,5.0333,5.036,5.0387,5.0333,5.0333,5.0333,5.036,5.0469,5.0333,3.9997,3.9997,3.9997,3.9997,3.9997,3.9997,3.9997,4.0127,4.0242,4.0273,4.0492,4.0581,4.0765,4.0915,4.073,4.0694,4.0715,4.0569,4.0498,4.0418,4.0378,4.0269,4.0373,4.0416,4.0165,4.0456,4.0396,4.019,4.0451,4.0589,4.0475,4.0477,4.0438,4.0479,4.0477,4.0437,4.0528,4.0685,4.0876,4.1084,4.1191,4.1239,4.1296,4.1239,4.1239,4.1195,4.1172,4.1195,4.1273,4.1273,4.1273,4.1599,4.3081,4.2774,4.4766,4.7037,4.8201,4.8345,4.7761,4.5894,4.4756,4.3457,4.2207,4.1408,4.1745,4.2218,4.2749,4.3226,4.4714,4.6047,4.6901,4.7658,4.8571,4.9387,4.954,4.9589,4.9589,4.9589,4.946,4.9201,4.9104,4.8959,4.8347,4.7622,4.687,4.6168,4.5229,4.4631,4.4392,4.4011,4.4523,4.4955,4.5672,4.6816,4.748,4.8164,4.9047,4.9558,4.9125,4.9234,4.9907,5.012,5.0013,5.012,5.0333,5.0333,5.0333,5.0333,5.0333,5.0333,5.0333,5.0439,5.0439,5.0302,5.0297,3.9997,3.9997,3.9997,3.9997,3.994,3.9712,3.9916,4.0118,4.0183,4.0229,4.0418,4.0543,4.0757,4.0654,4.0828,4.0772,4.0723,4.0799,4.0633,4.0495,4.019,4.017,3.9934,3.9736,3.9636,3.9656,3.9893,3.9813,3.9938,4.0681,4.0744,4.0757,4.0543,4.0652,4.0694,4.0813,4.0836,4.0985,4.0964,4.1073,4.1138,4.1273,4.1273,4.1273,4.1273,4.1273,4.1273,4.1273,4.1273,4.1273,4.1273,4.1576,4.3035,4.2094,4.2049,4.4255,4.5645,4.629,4.6237,4.4995,4.3663,4.2728,4.1903,4.1318,4.1487,4.2015,4.2521,4.2873,4.3829,4.4738,4.5481,4.6189,4.6822,4.7554,4.7842,4.7994,4.8402,4.8402,4.8274,4.8122,4.8377,4.8184,4.7442,4.662,4.585,4.4868,4.4344,4.4488,4.4463,4.4343,4.4616,4.4555,4.5421,4.7213,4.7996,4.8753,4.9663,5.0333,5.012,5.012,5.0333,5.0333,5.0333,5.0333,5.0333,5.0333,5.0333,5.0333,5.0333,5.0333,5.0141,5.0329,5.0407,5.0177,5.0032,3.9959,3.9997,3.9978,3.9902,3.9788,3.9048,3.9182,4.0159,4.01,4.0317,4.0522,4.0709,4.0833,4.0922,4.1101,4.111,4.1139,4.0922,4.0856,4.0609,4.0166,3.9662,3.9255,3.8821,3.9054,3.8603,3.8861,3.9689,3.8264,3.9803,4.0673,4.0717,4.0778,4.0715,4.0804,4.1029,4.111,4.111,4.1088,4.1124,4.1217,4.1273,4.1273,4.1273,4.1273,4.1273,4.1273,4.1273,4.1273,4.1273,4.1273,4.1296,4.1318,4.1273,4.223,4.3709,4.5724,4.5536,4.5011,4.4598,4.3318,4.2027,4.1341,4.1296,4.1554,4.2241,4.2397,4.2566,4.295,4.3534,4.3959,4.4566,4.5199,4.563,4.6031,4.6355,4.6782,4.6908,4.6758,4.671,4.6913,4.6668,4.5887,4.5745,4.4905,4.4169,4.3933,4.3938,4.3369,4.3582,4.4334,4.4367,4.557,4.7357,4.8557,4.9154,5.0013,5.0333,5.0333,5.0333,5.0333,5.0333,5.0333,5.0333,5.0333,5.0333,5.0333,5.0333,5.0305,5.0005,4.9732,4.9754,4.931,4.9314,4.9213,3.8345,3.8345,3.8345,3.8364,3.8307,3.8042,3.8071,3.8526,3.9257,3.9676,3.9938,4.0685,4.1057,4.1095,4.116,4.1273,4.1195,4.1177,4.1035,4.0931,4.0513,4.0297,4.0297,4.0277,3.9378,4.0019,4.0299,4.0276,3.9578,4.0513,4.0836,4.0901,4.107,4.0922,4.0985,4.1145,4.1273,4.1273,4.1273,4.1273,4.1273,4.1273,4.1273,4.1273,4.1273,4.1273,4.1273,4.1273,4.1273,4.1273,4.1273,4.1296,4.1296,4.1296,4.1554,4.1981,4.3373,4.3528,4.3266,4.2927,4.2365,4.1296,4.1296,4.1273,4.1509,4.2128,4.2092,4.2215,4.2629,4.3035,4.3226,4.2935,4.3465,4.3902,4.4159,4.4206,4.4475,4.4546,4.4546,4.389,4.382,4.3844,4.3604,4.3727,4.4089,4.3803,4.3471,4.2605,4.1908,4.3156,4.4217,4.449,4.5408,4.6852,4.8075,4.8966,4.9476,5.0199,5.0333,5.0305,5.0278,4.9872,5.0196,5.0333,5.0278,5.0251,5.0305,5.0223,5.006,4.9786,4.9317,4.8734,4.8314,4.8084,4.7879,3.7472,3.7472,3.7472,3.7168,3.6713,3.6941,3.7054,3.7277,3.817,3.8693,3.8897,3.9976,4.0591,4.069,4.0875,4.1273,4.1273,4.1273,4.1273,4.1172,4.0618,4.0734,4.0427,3.9952,3.9887,4.028,4.0508,4.039,4.0383,4.0955,4.0969,4.088,4.0897,4.115,4.1273,4.1273,4.1273,4.1273,4.1273,4.1273,4.1273,4.1273,4.1273,4.1273,4.1273,4.1273,4.1273,4.1273,4.1273,4.1273,4.1273,4.1273,4.1273,4.1273,4.1296,4.1419,4.1911,4.2208,4.2087,4.162,4.1273,4.1273,4.1273,4.1273,4.1273,4.162,4.172,4.1888,4.1956,4.2078,4.2376,4.2132,4.2132,4.252,4.2642,4.2642,4.274,4.274,4.274,4.2353,4.2474,4.2902,4.2728,4.2965,4.3331,4.3191,4.3036,4.2331,4.2347,4.3426,4.3795,4.4149,4.4733,4.6169,4.7058,4.7496,4.8058,4.8054,4.8394,4.9145,4.9467,4.9226,4.9359,4.9513,4.9814,5.006,4.9431,4.8994,4.9322,4.9283,4.8625,4.7923,4.798,4.7893,4.735,3.7358,3.7434,3.7358,3.6466,3.5308,3.5878,3.6063,3.6257,3.7105,3.7512,3.7736,3.8755,3.9295,3.952,4.0247,4.053,4.0632,4.0778,4.0778,4.0632,4.0112,3.984,3.9589,3.9358,3.9506,3.8747,3.9484,3.9861,3.8747,4.0508,4.0632,4.0486,4.088,4.1273,4.1273,4.1273,4.1273,4.1273,4.1273,4.1273,4.1273,4.1273,4.1273,4.1273,4.1273,4.1273,4.1273,4.1273,4.1273,4.1273,4.1273,4.1273,4.1273,4.1273,4.1273,4.1273,4.1743,4.2087,4.2087,4.162,4.1273,4.1273,4.1273,4.1273,4.1251,4.1273,4.1397,4.1497,4.1397,4.1397,4.1273,4.1273,4.1397,4.152,4.152,4.1643,4.1987,4.2109,4.2109,4.1987,4.2497,4.286,4.2451,4.2284,4.2601,4.2636,4.2563,4.2847,4.3185,4.3556,4.31,4.3473,4.3907,4.4953,4.5464,4.5966,4.6259,4.5705,4.6009,4.7087,4.7643,4.8038,4.8352,4.8585,4.8797,4.8851,4.8359,4.7839,4.739,4.7147,4.7008,4.7221,4.7848,4.7931,4.7571,3.5745,3.5745,3.5745,3.5441,3.5061,3.5251,3.5384,3.5422,3.5707,3.6149,3.6914,3.7905,3.8393,3.846,3.8937,3.9127,3.9254,3.9127,3.9106,3.9232,3.9463,3.9714,3.984,3.984,3.9632,4.0383,4.0632,4.0486,3.9883,4.0756,4.088,4.088,4.1128,4.115,4.1273,4.1273,4.1273,4.1273,4.1273,4.1273,4.1273,4.1273,4.1273,4.1273,4.1273,4.1273,4.1273,4.1273,4.1273,4.1273,4.1273,4.1273,4.1273,4.1273,4.1273,4.1251,4.1374,4.1497,4.1497,4.1251,4.1273,4.1273,4.1273,4.1273,4.1273,4.1273,4.1273,4.1273,4.1273,4.1273,4.1273,4.1273,4.1273,4.1273,4.1273,4.1273,4.1497,4.162,4.162,4.1575,4.1675,4.1873,4.1539,4.1577,4.1833,4.1605,4.1818,4.2401,4.2849,4.2642,4.2349,4.253,4.2931,4.3356,4.3756,4.4379,4.4769,4.4372,4.4719,4.5551,4.6302,4.6893,4.7329,4.7538,4.7538,4.7483,4.7182,4.6771,4.606,4.5268,4.5514,4.5881,4.6473,4.7144,4.7054,3.5004,3.5004,3.5004,3.5004,3.5004,3.5004,3.5004,3.5004,3.5004,3.54,3.5965,3.6949,3.7466,3.7595,3.7724,3.8129,3.8129,3.8129,3.8129,3.8364,3.8598,3.8958,3.9232,3.9484,4.0112,3.9883,3.9883,4.0008,4.0258,4.0361,4.0632,4.115,4.115,4.1273,4.1273,4.1273,4.1273,4.1273,4.1273,4.1273,4.1273,4.1273,4.1273,4.1273,4.1273,4.1273,4.1273,4.1273,4.1273,4.1273,4.1273,4.1273,4.1273,4.1273,4.1273,4.1273,4.1273,4.1273,4.1273,4.1273,4.1273,4.1273,4.1273,4.1273,4.1273,4.1273,4.1273,4.1273,4.1273,4.1273,4.1273,4.1273,4.1273,4.1273,4.1273,4.1273,4.1273,4.1397,4.1374,4.1385,4.1317,4.1082,4.1123,4.0979,4.0885,4.0822,4.1354,4.1751,4.1814,4.1679,4.1433,4.146,4.1883,4.2345,4.2119,4.2603,4.3346,4.3487,4.364,4.4333,4.5074,4.5726,4.61,4.6291,4.6345,4.606,4.5759,4.5595,4.5075,4.4411,4.4411,4.4898,4.5414,4.6042,4.6629,3.5004,3.5004,3.5004,3.5004,3.5004,3.5004,3.5004,3.5004,3.5004,3.5004,3.5269,3.5907,3.656,3.669,3.7358,3.7724,3.8129,3.8001,3.8001,3.8109,3.8237,3.8598,3.8747,3.8874,3.8874,3.8874,3.9254,3.9127,3.8747,3.9965,4.0237,4.1004,4.1128,4.115,4.1273,4.1273,4.1273,4.1273,4.1273,4.1273,4.1273,4.1273,4.1273,4.1273,4.1273,4.1273,4.1273,4.1273,4.1273,4.1273,4.1273,4.1273,4.1273,4.1273,4.1273,4.1273,4.1273,4.1273,4.1273,4.1273,4.1273,4.1273,4.1273,4.1273,4.1273,4.1273,4.1273,4.1273,4.1273,4.1273,4.1273,4.1273,4.1273,4.1273,4.1273,4.1273,4.1273,4.1273,4.1206,4.1195,4.1137,4.1056,4.107,4.0803,4.0596,4.0619,4.1047,4.1222,4.1157,4.1031,4.0725,4.0725,4.1132,4.1132,4.0719,4.1018,4.1831,4.2298,4.2602,4.3226,4.3973,4.4165,4.4627,4.4858,4.5007,4.4461,4.4144,4.4743,4.4787,4.376,4.3815,4.5129,4.5894,4.634,4.6916,3.5004,3.5004,3.5004,3.5004,3.5004,3.5004,3.5004,3.5004,3.5004,3.5004,3.5136,3.5269,3.5907,3.6299,3.6188,3.669,3.7852,3.7208,3.7466,3.8237,3.8726,3.9085,3.9232,3.9883,4.0134,4.0508,3.9758,4.0008,3.9987,3.9965,3.984,3.9965,4.088,4.115,4.1273,4.1273,4.1273,4.1273,4.1273,4.1273,4.1273,4.1273,4.1273,4.1273,4.1273,4.1273,4.1273,4.1273,4.1273,4.1273,4.1273,4.1273,4.1273,4.1273,4.1273,4.1273,4.1273,4.1273,4.1273,4.1273,4.1273,4.1273,4.1273,4.1273,4.1273,4.1273,4.1273,4.1273,4.1273,4.1273,4.1273,4.1273,4.1273,4.1273,4.1273,4.1273,4.1273,4.1273,4.1229,4.1227,4.1056,4.095,4.0885,4.0619,4.0457,4.0466,4.0477,4.0626,4.0548,4.0519,4.0291,4.0367,4.0649,4.0745,4.0486,4.0557,4.0654,4.1143,4.1596,4.2175,4.298,4.3314,4.3582,4.3539,4.3669,4.3661,4.4107,4.4483,4.4783,4.4696,4.487,4.5809,4.6311,4.6834,4.7239,3.5004,3.5004,3.5004,3.5004,3.5004,3.5004,3.5004,3.5004,3.5004,3.5004,3.5004,3.5004,3.5269,3.5664,3.5269,3.5776,3.6319,3.6188,3.6449,3.7337,3.796,3.845,3.9106,3.9632,3.9883,3.9632,3.9883,4.0383,4.1004,4.061,4.0339,4.0486,4.088,4.1273,4.1273,4.1273,4.1273,4.1273,4.1273,4.1273,4.1273,4.1273,4.1273,4.1273,4.1273,4.1273,4.1273,4.1273,4.1273,4.1273,4.1273,4.1273,4.1273,4.1273,4.1273,4.1273,4.1128,4.1128,4.1273,4.1273,4.1273,4.1273,4.1273,4.1273,4.1273,4.1273,4.1273,4.1273,4.1273,4.1273,4.1273,4.1273,4.1273,4.1273,4.1273,4.1273,4.1273,4.1273,4.1206,4.1092,4.0995,4.0939,4.0862,4.0603,4.0575,4.0457,4.0427,4.0398,4.0291,4.0235,4.0235,4.0235,4.0332,4.0455,4.0455,4.0622,4.084,4.1318,4.1737,4.2204,4.2666,4.2849,4.3195,4.3259,4.3386,4.3809,4.4226,4.4609,4.5071,4.5471,4.5894,4.6061,4.6228,4.6752,4.7078,3.5004,3.5004,3.5004,3.5004,3.5004,3.5004,3.5004,3.5004,3.5004,3.5004,3.5004,3.5004,3.5004,3.5269,3.5249,3.5644,3.6038,3.6299,3.682,3.7832,3.796,3.8344,3.8619,3.8492,3.9127,3.938,3.9,3.9632,4.0756,4.115,4.115,4.115,4.115,4.1273,4.1273,4.1273,4.1273,4.1273,4.1273,4.1273,4.1273,4.1273,4.1273,4.1273,4.1273,4.1273,4.1273,4.1273,4.0994,4.0994,4.1016,4.1083,4.0994,4.1016,4.1229,4.0994,4.0949,4.0972,4.1128,4.1273,4.1273,4.1273,4.1273,4.1273,4.1273,4.1273,4.1273,4.1273,4.1273,4.1273,4.1273,4.1273,4.1273,4.1273,4.1273,4.1273,4.1273,4.1273,4.1273,4.1182,4.0859,4.0862,4.0839,4.0674,4.0511,4.0407,4.0277,4.0247,4.0235,4.0235,4.0235,4.0235,4.0332,4.0429,4.0429,4.098,4.136,4.1925,4.2297,4.2758,4.2941,4.3005,4.3095,4.3457,4.3637,4.3993,4.4609,4.5071,4.5329,4.5754,4.6257,4.634,4.6311,4.6476,4.6804,3.5004,3.5004,3.5004,3.5004,3.5004,3.5004,3.5004,3.5004,3.5004,3.5004,3.5004,3.5004,3.5004,3.54,3.656,3.8216,3.9861,3.8705,3.8831,3.9463,3.961,4.0112,4.0508,4.0632,4.0383,4.0134,4.0258,4.0778,4.115,4.1273,4.1273,4.1273,4.1273,4.1273,4.1273,4.1273,4.1273,4.1273,4.1273,4.1273,4.1273,4.1273,4.1273,4.1273,4.1273,4.1273,4.1273,4.1273,4.0693,4.0304,4.037,4.0648,3.9794,4.0604,4.0626,3.9519,3.8892,3.9717,4.0503,4.1016,4.0759,4.0972,4.1105,4.1229,4.1083,4.0994,4.1083,4.1273,4.1273,4.1273,4.1273,4.1273,4.1273,4.1273,4.1273,4.1273,4.1273,4.1273,4.1273,4.1063,4.0813,4.0751,4.0698,4.0572,4.042,4.0402,4.0274,4.0235,4.0235,4.0235,4.0235,4.0235,4.0332,4.0429,4.0814,4.1334,4.2084,4.2547,4.3005,4.3457,4.3457,4.3367,4.3698,4.4142,4.423,4.4696,4.5157,4.5585,4.5923,4.6174,4.6588,4.6752,4.6752,4.6916,4.6916,3.5004,3.5004,3.5004,3.5004,3.5004,3.5004,3.5004,3.5004,3.5004,3.5004,3.5004,3.5004,3.5004,3.5269,3.6299,3.7059,3.7683,3.7554,3.8067,3.8726,3.8979,3.9358,4.0339,4.0361,4.0734,4.1004,4.0756,4.061,4.1128,4.115,4.1273,4.1273,4.1273,4.1273,4.1273,4.1273,4.1273,4.1273,4.1273,4.1273,4.1273,4.1273,4.1273,4.1273,4.1273,4.1273,4.1273,4.1273,4.0737,4.0093,4.0049,3.9684,3.9112,3.886,3.8522,3.7914,3.7503,3.7979,3.8631,3.9025,3.9409,3.9794,3.92,3.9343,3.9794,4.0071,4.0027,4.0304,4.0437,4.1273,4.1083,4.1273,4.1273,4.1273,4.1273,4.1273,4.1273,4.1273,4.1273,4.1217,4.0997,4.0788,4.0667,4.0445,4.0373,4.0251,4.024,4.0235,4.0235,4.0235,4.0235,4.0235,4.0235,4.0526,4.117,4.1965,4.2768,4.3249,4.3698,4.417,4.4258,4.4346,4.4609,4.4928,4.5357,4.5809,4.609,4.6257,4.6506,4.6752,4.6916,4.6997,4.7159,4.7239,4.7159,3.4739,3.4739,3.4872,3.5004,3.5004,3.5004,3.5004,3.5004,3.5004,3.5004,3.5004,3.5004,3.5004,3.5136,3.5136,3.54,3.6038,3.641,3.656,3.7208,3.7337,3.796,3.9211,3.9337,3.9736,4.0237,3.9987,3.9965,4.061,4.0982,4.1004,4.115,4.1273,4.1273,4.1273,4.1273,4.1273,4.1273,4.1273,4.1273,4.1273,4.1273,4.1273,4.1273,4.1273,4.1273,4.1273,4.1251,4.0949,4.0392,3.9431,3.8729,3.7784,3.64,3.607,3.5932,3.5773,3.5942,3.6837,3.6634,3.7148,3.7708,3.7579,3.7536,3.8141,3.85,3.85,3.8795,3.9475,4.0304,4.0415,4.0804,4.1038,4.0949,4.0949,4.1273,4.1083,4.0949,4.067,4.1117,4.1131,4.0951,4.0651,4.0527,4.04,4.0294,4.0261,4.0235,4.0235,4.0235,4.0235,4.0235,4.0235,4.0788,4.136,4.2243,4.3041,4.3429,4.3698,4.4142,4.4696,4.5071,4.5585,4.5977,4.6394,4.6588,4.6752,4.6997,4.7078,4.6997,4.7078,4.7159,4.7239,4.7239,4.7239,3.3655,3.3789,3.4607,3.5004,3.5004,3.5004,3.5004,3.5004,3.5004,3.5004,3.5004,3.5004,3.5004,3.5136,3.5795,3.6299,3.6429,3.682,3.6949,3.7337,3.7317,3.7724,3.8109,3.8216,3.8344,3.8492,3.8492,3.9106,3.984,3.9965,4.061,4.115,4.1273,4.1273,4.1273,4.1273,4.1273,4.1273,4.1273,4.1273,4.1273,4.1273,4.1273,4.1273,4.1273,4.1273,4.1273,4.1061,4.0071,3.7579,3.8391,3.7288,3.5436,3.3591,3.3077,3.4451,3.3495,3.4012,3.5446,3.5656,3.5581,3.6752,3.6485,3.6666,3.673,3.6955,3.6955,3.7041,3.7352,3.7665,3.7536,3.9178,4.0071,3.975,4.0415,4.1061,4.1016,4.0004,4.0259,4.0803,4.1013,4.0792,4.0603,4.0454,4.0301,4.0214,4.0261,4.0235,4.0235,4.0235,4.0235,4.0235,4.0235,4.0596,4.1006,4.1804,4.2704,4.3068,4.3339,4.3876,4.4493,4.5043,4.5556,4.6394,4.6997,4.6997,4.7159,4.7239,4.7239,4.7239,4.7239,4.7239,4.7239,4.7239,4.7239,3.2526,3.2661,3.3771,3.4189,3.4322,3.4739,3.5004,3.5004,3.5004,3.5004,3.5004,3.5004,3.5004,3.5004,3.5532,3.5776,3.5907,3.6299,3.6429,3.656,3.656,3.669,3.7079,3.682,3.7079,3.8129,3.8001,3.9127,4.0112,4.061,4.061,4.115,4.1273,4.1273,4.1273,4.1273,4.1273,4.1273,4.1273,4.1273,4.1273,4.1273,4.1273,4.1273,4.1273,4.1273,4.1128,4.1273,3.9982,3.8435,3.7622,3.6155,3.3375,3.2313,3.2273,3.2801,3.221,3.2892,3.3519,3.3662,3.3962,3.5215,3.4451,3.467,3.5152,3.5278,3.5278,3.5499,3.5932,3.6506,3.6688,3.825,3.8391,3.7892,3.8272,3.909,3.9772,4.0093,4.0426,4.0775,4.0677,4.0592,4.0524,4.0493,4.0327,4.0117,4.0138,4.0235,4.0235,4.0235,4.0235,4.0235,4.0235,4.0429,4.0718,4.1455,4.2455,4.2977,4.3519,4.423,4.4985,4.5442,4.5696,4.6311,4.7078,4.7239,4.7239,4.7239,4.7239,4.7239,4.7239,4.7239,4.7239,4.732,4.74,3.1289,3.1442,3.2526,3.3083,3.3235,3.4189,3.4607,3.4721,3.4872,3.5004,3.5004,3.5004,3.5004,3.5004,3.5004,3.5004,3.5136,3.5136,3.5004,3.5004,3.5004,3.5513,3.5907,3.5513,3.5907,3.682,3.7337,3.8471,4.0008,4.0258,4.0632,4.1026,4.1273,4.1273,4.1273,4.1273,4.1273,4.1273,4.1273,4.1273,4.1273,4.1273,4.1273,4.1273,4.1273,4.1061,4.0782,4.0994,4.0071,3.8185,3.6623,3.491,3.2587,3.1959,3.1979,3.202,3.1868,3.1848,3.1979,3.2121,3.2506,3.3529,3.2863,3.2465,3.3591,3.3746,3.3746,3.3891,3.4753,3.5457,3.5847,3.6219,3.6463,3.6463,3.6912,3.76,3.7892,3.8795,3.9297,3.9719,3.9916,4.0002,3.9909,3.9821,4.0001,3.9949,4.0016,4.0235,4.0235,4.0235,4.0235,4.0235,4.0235,4.0332,4.0814,4.1643,4.2547,4.3249,4.4142,4.5014,4.6032,4.6641,4.6394,4.6752,4.7159,4.7239,4.7239,4.7239,4.7239,4.7239,4.7239,4.7239,4.7239,4.748,4.756,3.0261,3.0382,3.1442,3.1833,3.1986,3.3083,3.3637,3.3771,3.4322,3.4872,3.4721,3.4872,3.4721,3.5004,3.4739,3.5004,3.5004,3.5004,3.5004,3.5004,3.5004,3.5136,3.54,3.5004,3.54,3.5907,3.54,3.6949,3.8747,3.8874,3.9506,4.0778,4.1273,4.1273,4.1273,4.1273,4.1273,4.1273,4.1273,4.1273,4.1273,4.1273,4.1273,4.1273,4.1273,4.0648,3.9982,4.0004,3.9047,3.491,3.4586,3.3746,3.2293,3.1828,3.1828,3.1828,3.1828,3.1828,3.1828,3.1828,3.1928,3.2009,3.1949,3.202,3.2009,3.2222,3.2222,3.2242,3.2273,3.3313,3.4326,3.5604,3.5541,3.4973,3.6934,3.6934,3.552,3.4869,3.5688,3.7353,3.7625,3.7754,3.811,3.8594,3.9131,3.982,4.0041,4.0138,4.0235,4.0235,4.0235,4.0332,4.0429,4.0429,4.1101,4.1831,4.2822,4.3519,4.4493,4.5612,4.6641,4.6997,4.6997,4.6997,4.7159,4.7239,4.7239,4.7239,4.7239,4.7239,4.7239,4.7239,4.7239,4.74,4.7639,2.9155,2.9155,3.0365,3.0777,3.0914,3.2003,3.2391,3.2526,3.2948,3.3083,3.3083,3.3065,3.3485,3.4056,3.4056,3.4455,3.5004,3.5004,3.5004,3.5004,3.4985,3.4966,3.4985,3.5004,3.5664,3.656,3.682,3.796,3.9506,3.9883,4.0258,4.1026,4.1273,4.1273,4.1273,4.1273,4.1273,4.1273,4.1273,4.1273,4.1273,4.1273,4.1273,4.1251,4.1128,4.0437,3.9047,3.8566,3.6752,3.4067,3.3921,3.3838,3.206,3.1828,3.1828,3.1828,3.1828,3.1828,3.1828,3.1382,3.1158,3.1046,3.0464,3.0332,3.0332,3.0802,3.1046,3.1139,3.1605,3.2121,3.2842,3.3375,3.3395,3.3313,3.4869,3.552,3.4524,3.491,3.5897,3.6549,3.7219,3.7895,3.8013,3.9003,3.9551,3.9697,3.9943,4.0041,4.0235,4.0235,4.0358,4.0693,4.0884,4.1075,4.1549,4.2455,4.3367,4.3637,4.4522,4.5809,4.6559,4.6997,4.6997,4.7159,4.7159,4.7239,4.7239,4.7239,4.7239,4.7239,4.7239,4.7239,4.7239,4.729,4.756,2.7605,2.8025,2.8862,2.9432,2.9847,3.076,3.1306,3.1289,3.1578,3.1833,3.1697,3.1697,3.2256,3.2948,3.3235,3.3789,3.4455,3.4872,3.5004,3.4853,3.4551,3.44,3.4701,3.4871,3.5776,3.682,3.6929,3.8344,4.0258,4.0134,4.0508,4.115,4.1273,4.1273,4.1273,4.1273,4.1273,4.1273,4.1273,4.1273,4.1105,4.0782,4.0648,4.0604,4.0215,3.9464,3.825,3.6848,3.4764,3.2273,3.3231,3.3211,3.1908,3.1717,3.1697,3.1697,3.1828,3.1828,3.1717,3.127,3.0914,3.0822,3.0238,2.952,2.9747,3.0219,3.0596,3.0934,3.1362,3.1959,3.1828,3.1999,3.1999,3.202,3.3016,3.3725,3.3632,3.4649,3.5276,3.536,3.6263,3.674,3.7221,3.8184,3.923,3.9428,3.9748,3.9943,4.0138,4.0235,4.0261,4.0788,4.1075,4.1334,4.1991,4.2913,4.3547,4.3843,4.4609,4.578,4.6193,4.6634,4.6908,4.7069,4.692,4.712,4.718,4.692,4.721,4.7239,4.732,4.7639,4.756,4.7338,4.7621,2.59,2.6888,2.7014,2.7531,2.846,2.9507,2.992,3.0244,3.1033,3.1425,3.1408,3.1357,3.1493,3.1933,3.2448,3.2982,3.3582,3.4117,3.4457,3.4044,3.3206,3.2763,3.3575,3.4156,3.474,3.5362,3.5513,3.654,3.8492,3.8619,3.9232,4.0756,4.1004,4.1128,4.0982,4.1105,4.1038,4.0972,4.0972,4.0994,4.0994,3.975,3.9069,3.9112,3.8367,3.749,3.6698,3.5633,3.4002,3.2212,3.1565,3.1545,3.1283,3.1303,3.1144,3.1065,3.1656,3.1616,3.1788,3.1434,3.1474,3.1362,3.0577,3.0802,3.0914,3.0577,3.0709,3.127,3.1717,3.1848,3.1828,3.1828,3.1717,3.1848,3.1857,3.2029,3.206,3.2141,3.277,3.314,3.3628,3.4428,3.5153,3.6758,3.7679,3.8284,3.9008,3.9526,3.9943,4.0041,4.0261,4.0429,4.0596,4.1075,4.1831,4.2822,4.3637,4.3932,4.4609,4.5327,4.5657,4.5988,4.6316,4.6521,4.6621,4.683,4.686,4.6472,4.6333,4.6154,4.665,4.7912,4.7992,4.7655,4.7877,2.4988,2.566,2.5056,2.5306,2.6281,2.6283,2.7063,2.8119,2.8398,2.8953,2.941,2.9209,2.9404,2.9991,2.9984,3.0448,3.1094,3.1481,3.1755,3.1537,3.0468,3.0525,3.1304,3.1986,3.3107,3.4721,3.5644,3.669,3.8001,3.8129,3.8471,3.9232,3.9861,4.0193,4.0193,3.9936,3.975,3.964,3.8817,3.8773,3.9277,3.8565,3.8345,3.8979,3.8017,3.6788,3.5548,3.4227,3.3022,3.2029,3.1115,3.0467,2.9967,2.9716,2.9194,2.902,2.9643,3.0292,3.0093,3.0301,3.0426,3.0313,2.9747,2.9406,2.9292,3.0238,3.0351,3.067,3.1251,3.1828,3.1585,3.1697,3.1139,3.0049,3.0275,3.0783,3.127,3.1362,3.1636,3.1948,3.2936,3.3588,3.4297,3.5755,3.7451,3.7655,3.8485,3.9428,3.9551,3.9574,3.999,4.0256,4.0244,4.0831,4.1672,4.2585,4.3492,4.3918,4.43,4.4554,4.4793,4.5063,4.5467,4.5638,4.5983,4.6241,4.6211,4.5725,4.5606,4.4568,4.4271,4.5375,4.6239,4.6416,4.8247,2.213,2.3091,2.2195,2.2768,2.4104,2.3617,2.4328,2.5847,2.5724,2.629,2.7189,2.7049,2.7233,2.7768,2.7791,2.8188,2.8773,2.8352,2.829,2.8448,2.8385,2.872,2.9392,3.0416,3.1825,3.3725,3.5103,3.6282,3.7405,3.7595,3.7647,3.7822,3.8367,3.8739,3.8765,3.8247,3.8283,3.8455,3.7394,3.7255,3.8108,3.7208,3.7013,3.7768,3.6659,3.5427,3.4297,3.3133,3.23,3.1945,3.097,2.9972,2.8819,2.8211,2.7863,2.7656,2.8422,2.873,2.8555,2.8797,2.888,2.8734,2.7948,2.7392,2.7409,2.8177,2.8472,2.8665,2.9482,3.0068,2.9917,3.0162,2.9577,2.7904,2.841,2.894,2.9238,2.9622,3.0101,3.0607,3.1761,3.2644,3.3223,3.4914,3.6366,3.6393,3.7404,3.8192,3.8333,3.844,3.9046,3.9517,4.0009,4.0298,4.1108,4.19,4.2364,4.2519,4.305,4.3396,4.3661,4.3922,4.4424,4.4735,4.5162,4.5375,4.5315,4.5209,4.5329,4.4726,4.4668,4.4458,4.4143,4.5595,4.7965,1.691,1.9274,1.8623,1.998,2.2187,2.1817,2.2431,2.3585,2.3201,2.3919,2.5223,2.5382,2.5482,2.5727,2.6477,2.6846,2.6182,2.4862,2.4622,2.5486,2.6155,2.6918,2.7818,2.9223,3.0283,3.0869,3.2773,3.446,3.5905,3.6093,3.6288,3.6538,3.6538,3.6696,3.6922,3.6292,3.6698,3.7375,3.7128,3.6918,3.7078,3.5776,3.4916,3.4575,3.3709,3.3098,3.2884,3.2251,3.2054,3.1971,3.1006,2.9577,2.7882,2.7297,2.7468,2.7779,2.7714,2.7553,2.743,2.7306,2.7214,2.7075,2.5954,2.5687,2.6032,2.5748,2.5726,2.6297,2.6647,2.6547,2.6763,2.7147,2.7013,2.5979,2.627,2.6605,2.671,2.6846,2.7407,2.8772,2.983,3.0714,3.2102,3.374,3.4693,3.4775,3.5711,3.6584,3.6486,3.7006,3.7548,3.7814,3.8354,3.9181,4.0207,4.1097,4.1094,4.1308,4.1851,4.2164,4.2343,4.2277,4.2665,4.3009,4.3364,4.356,4.35,4.3426,4.3724,4.3903,4.6084,4.6275,4.5321,4.4893,4.7308,1.7056,1.8455,1.7324,1.8086,2.0003,1.9157,1.951,2.0723,2.0818,2.143,2.2396,2.3382,2.3779,2.3976,2.4846,2.3708,2.0553,1.9516,1.9553,2.0691,2.1103,2.1678,2.2474,2.4012,2.5153,2.5943,2.7049,2.8803,3.0887,3.2348,3.3087,3.3193,3.3931,3.4261,3.4323,3.4015,3.408,3.4304,3.3963,3.4231,3.4993,3.403,3.3821,3.4465,3.3769,3.3154,3.3133,3.2459,3.2546,3.3387,3.0803,2.8309,2.69,2.5767,2.5365,2.5556,2.5346,2.5074,2.5181,2.5435,2.5647,2.5589,2.517,2.4653,2.4536,2.4443,2.4568,2.4836,2.5191,2.5544,2.5576,2.4513,2.3844,2.3887,2.4577,2.5151,2.5615,2.5792,2.6233,2.695,2.8211,2.9359,3.0262,3.2102,3.2904,3.253,3.4121,3.5145,3.5157,3.5429,3.5703,3.6066,3.6872,3.7842,3.889,3.9712,3.9844,4.0351,4.0923,4.074,4.0696,4.0496,4.059,4.0894,4.1193,4.1419,4.1465,4.1363,4.1055,4.067,4.3034,4.555,4.4548,4.4202,4.5973,1.3747,1.4225,1.363,1.4597,1.6216,1.5321,1.5688,1.7075,1.739,1.8095,1.9172,2.0373,2.0888,2.0848,2.1296,1.9877,1.7306,1.6839,1.7294,1.82,1.8325,1.8651,1.914,2.0382,2.159,2.2572,2.3626,2.5255,2.7529,2.9097,2.9969,3.009,3.0831,3.1549,3.1791,3.1815,3.2136,3.2418,3.2333,3.2648,3.3548,3.2981,3.2939,3.3793,3.316,3.307,3.3675,3.2525,3.1888,3.1948,2.9657,2.7603,2.6225,2.5037,2.4278,2.3967,2.3561,2.3089,2.2914,2.3207,2.3255,2.2916,2.237,2.1589,2.1309,2.0915,2.0653,2.0957,2.1567,2.1826,2.1442,2.025,1.968,2.0529,2.1359,2.2171,2.3124,2.3703,2.4112,2.4547,2.5884,2.7425,2.8353,3.0041,3.1107,3.0989,3.2584,3.3625,3.3864,3.4407,3.5069,3.5429,3.6139,3.6979,3.7884,3.8383,3.8917,3.9552,3.9962,3.9972,4.0311,4.0383,4.1067,4.1691,4.2482,4.291,4.3592,4.3331,4.2466,4.2071,4.2459,4.3921,4.1782,4.4243,4.5629,0.7232,0.6966,0.8487,1.0289,1.1555,1.0983,1.1648,1.3058,1.3425,1.4199,1.557,1.6657,1.6953,1.6417,1.5782,1.5862,1.619,1.6054,1.6381,1.6966,1.7463,1.775,1.7987,1.8955,1.9691,2.0395,2.1777,2.3447,2.5348,2.6429,2.6945,2.6996,2.7806,2.8496,2.9275,2.9671,3.0476,3.1546,3.2245,3.2609,3.2609,3.2609,3.2458,3.21,3.214,3.3049,3.3775,3.2438,3.0251,2.7015,2.7694,2.7261,2.5826,2.4981,2.4333,2.3502,2.251,2.1685,2.1067,2.077,2.0284,1.9467,1.8275,1.6944,1.6956,1.5829,1.517,1.4656,1.6239,1.601,1.4528,1.477,1.5453,1.6456,1.734,1.8347,1.9464,2.0278,2.0859,2.1274,2.2594,2.4391,2.6584,2.776,2.8729,2.9531,3.1143,3.2437,3.2604,3.3827,3.4786,3.5337,3.5979,3.6615,3.7158,3.8037,3.8717,3.9359,3.9735,3.9752,4.0321,4.0982,4.1997,4.2886,4.3007,4.3703,4.5144,4.4952,4.3582,4.3073,4.3267,4.3841,4.2952,4.4731,4.5915,0.7086,0.7398,0.8317,0.9141,0.9728,0.9147,0.8917,0.9217,1.0236,1.0663,1.1019,1.3336,1.2304,0.8841,0.8365,0.825,0.8468,0.9135,0.9475,0.9801,1.147,1.257,1.3314,1.4385,1.5473,1.6275,1.6847,1.782,1.9456,2.1755,2.3603,2.4648,2.4995,2.5561,2.636,2.7511,2.8364,2.8846,3.1116,3.1976,3.1637,3.2145,3.2377,3.225,3.4498,3.5768,3.5609,3.3228,3.1628,3.1269,2.8289,2.6185,2.5142,2.5223,2.4792,2.3702,2.1782,2.0293,1.9584,1.9383,1.8604,1.7149,1.6119,1.5107,1.4167,1.2981,1.2622,1.2581,1.0679,0.9599,0.9534,1.1367,1.2986,1.4093,1.4635,1.5117,1.5588,1.6073,1.7078,1.8664,2.0214,2.1896,2.4405,2.6389,2.767,2.7925,2.9635,3.1182,3.1443,3.2564,3.3754,3.4366,3.5402,3.6402,3.7607,3.8337,3.8788,3.9391,4.001,4.0331,4.0708,4.0546,4.1077,4.2643,4.2083,4.2428,4.3462,4.3087,4.1926,4.1613,4.177,4.2426,4.359,4.4283,4.5485,0.3832,0.4351,0.4449,0.5018,0.594,0.5948,0.5784,0.5588,0.6716,0.7034,0.7038,0.8255,0.7149,0.4217,0.4321,0.4318,0.4416,0.496,0.539,0.5716,0.6996,0.8176,0.895,1.0121,1.1085,1.1812,1.2462,1.3655,1.5294,1.7507,1.9883,2.1866,2.2432,2.325,2.4512,2.5561,2.6405,2.6948,2.918,3.0294,3.0332,3.1416,3.2389,3.3269,3.4642,3.6276,3.7998,3.3975,3.1298,3.0832,2.8046,2.592,2.522,2.5262,2.4849,2.39,2.1953,2.0055,1.8109,1.6748,1.5489,1.4341,1.2277,1.0717,0.9806,0.8592,0.7326,0.6505,0.4391,0.3458,0.458,0.6442,0.8378,0.9844,1.1243,1.2164,1.2671,1.3626,1.4929,1.7174,1.8423,1.9886,2.247,2.463,2.5971,2.7049,2.8837,3.0628,3.1202,3.2589,3.3754,3.4629,3.5783,3.7206,3.8622,3.9132,3.9983,4.0864,4.1322,4.147,4.1797,4.1648,4.1765,4.2527,4.2518,4.2428,4.2309,4.2325,4.2267,4.2446,4.2446,4.269,4.386,4.4275,4.5221,-0.1005,-0.0761,-0.0977,-0.0541,0.1085,0.1847,0.2069,0.2285,0.3147,0.3359,0.2709,0.2169,0.1737,0.1736,0.1953,0.1947,0.2048,0.2479,0.28,0.3238,0.3887,0.432,0.486,0.5882,0.676,0.765,0.8809,1.0301,1.1936,1.3751,1.5965,1.8547,1.9766,2.13,2.3233,2.4046,2.4876,2.6046,2.724,2.8089,2.8747,3.0632,3.2536,3.4581,3.3752,3.6022,4.0877,3.4905,3.0129,2.8109,2.695,2.6034,2.586,2.5283,2.4792,2.413,2.2676,2.0377,1.7162,1.3959,1.2137,1.0892,0.7692,0.5491,0.4836,0.2431,-0.0368,-0.2534,-0.2894,-0.2237,-0.0993,0.0122,0.1952,0.4373,0.646,0.8507,0.9549,1.1547,1.3423,1.5777,1.5911,1.7841,2.0355,2.1967,2.3541,2.5623,2.788,2.9735,3.0984,3.2843,3.4445,3.5783,3.6972,3.8583,4.0085,4.0954,4.1799,4.2949,4.3314,4.3456,4.3594,4.3679,4.3864,4.4107,4.383,4.3945,4.4145,4.4115,4.3981,4.4111,4.4098,4.4183,4.4397,4.4708,4.5382,-0.2839,-0.2064,-0.2171,-0.2061,-0.1627,-0.1413,-0.1086,-0.0434,0.0434,-0.0866,-0.3567,-0.4001,-0.4109,-0.4109,-0.4533,-0.4426,-0.3992,-0.3663,-0.3228,-0.2587,-0.0976,0.0108,0.086,0.1513,0.2919,0.4623,0.4606,0.6001,0.851,1.0187,1.2041,1.3866,1.6506,1.906,2.141,2.32,2.4366,2.4914,2.5839,2.6358,2.6497,3.0226,3.2609,3.3435,3.5208,3.7112,3.8566,3.4643,3.0997,2.8141,2.594,2.5461,2.6914,2.6967,2.6251,2.4698,2.2912,2.1043,1.8968,1.5079,1.1436,0.853,0.6361,0.4068,0.0997,-0.5725,-1.0717,-1.1804,-1.0884,-0.9593,-0.7938,-0.6416,-0.4302,-0.0893,0.0376,0.1738,0.35,0.4794,0.6769,0.9744,1.1006,1.3295,1.6975,1.8803,2.0425,2.3026,2.5835,2.8106,2.9625,3.173,3.475,3.7264,3.8774,3.9994,4.185,4.2452,4.3388,4.5359,4.5581,4.5475,4.5513,4.5649,4.5794,4.5805,4.5805,4.5737,4.6059,4.5913,4.5725,4.5684,4.5235,4.5141,4.589,4.637,4.6831,-0.585,-0.5419,-0.5634,-0.5522,-0.5091,-0.5406,-0.4971,-0.422,-0.4841,-0.6331,-0.7952,-0.7958,-0.7952,-0.7958,-0.8384,-0.8371,-0.8371,-0.8146,-0.7927,-0.7514,-0.6413,-0.5527,-0.4812,-0.3797,-0.2705,-0.1599,-0.0534,0.1284,0.386,0.5987,0.8133,1.0537,1.3042,1.6053,1.9392,2.1345,2.2603,2.3385,2.5386,2.6396,2.622,2.9104,3.1871,3.4314,3.5784,3.7856,4.0689,3.86,3.6985,3.6083,3.1334,2.8001,2.673,2.7482,2.7493,2.6347,2.3242,2.104,2.0575,1.6333,1.1322,0.5557,0.1279,-0.3797,-1.0085,-1.4727,-1.7581,-1.8443,-1.7593,-1.6238,-1.4715,-1.2679,-1.0444,-0.8137,-0.6416,-0.4257,-0.1763,-0.0249,0.2093,0.5893,0.7174,0.9604,1.4953,1.6058,1.7517,2.0751,2.32,2.6357,2.9999,3.3298,3.6508,3.9231,4.0864,4.2147,4.3512,4.3923,4.4582,4.5894,4.6264,4.6322,4.6269,4.6269,4.6288,4.6476,4.6438,4.6419,4.6437,4.64,4.6494,4.6476,4.6142,4.621,4.697,4.745,4.5524,-0.9512,-0.9519,-0.9938,-0.9611,-0.8957,-0.9475,-0.9149,-0.8516,-1.1417,-1.231,-1.1668,-1.1754,-1.1754,-1.1668,-1.1781,-1.1989,-1.2291,-1.2404,-1.2404,0.0,-1.2002,-1.1761,-1.1391,-0.9929,-0.9254,-0.903,-0.6378,-0.3834,-0.1279,0.1385,0.4378,0.7514,0.9749,1.2804,1.6679,1.8559,2.0191,2.164,2.5368,2.7158,2.6944,2.8367,3.1449,3.5921,3.6321,3.8951,4.415,4.3613,4.4099,4.5756,3.8854,3.2627,2.8016,2.9217,2.9528,2.8785,2.4629,2.2157,2.2306,1.7274,1.1095,0.3905,-0.4333,-1.3376,-2.2993,-2.3209,-2.318,-2.4093,-2.3518,-2.2565,-2.1491,-1.9168,-1.7105,-1.5889,-1.3331,-1.0265,-0.7139,-0.5611,-0.2927,0.2027,0.3362,0.5623,1.0832,1.2437,1.4119,1.8315,2.0859,2.4079,2.9674,3.4161,3.6579,3.837,4.1749,4.4656,4.5624,4.5784,4.4091,4.3205,4.2754,4.287,4.0212,3.9605,4.0201,4.2524,3.9733,3.9822,4.097,4.1844,3.9177,3.8977,3.843,3.9277,3.9579,3.9771,3.7619,-1.3479,-1.2729,-1.2833,-1.2833,-1.2614,-1.2519,-1.2415,-1.25,0.0,0.0,0.0,-1.9026,-1.8861,-1.8191,-1.8728,-1.8713,-1.8304,-1.8826,-1.8629,-1.8021,-1.812,-1.7823,-1.7185,-1.7038,-1.6084,-1.4444,-1.3293,-1.0415,-0.6037,-0.2976,0.0213,0.3646,0.7295,0.9976,1.1968,1.4309,1.6634,1.8946,2.437,2.7275,2.7441,3.0274,3.3272,3.6383,3.8188,4.0949,4.4629,4.4858,4.5757,4.749,4.2995,3.9355,3.7207,3.6926,3.5818,3.3585,3.0994,2.8679,2.6385,1.6666,0.9838,0.7851,-0.37,-1.5509,-2.6777,-2.9172,-3.0562,-3.1509,-3.0145,-2.9069,-2.8494,-2.6761,-2.4541,-2.1685,-1.9838,-1.7801,-1.5431,-1.3507,-1.0178,-0.5422,-0.3715,-0.0929,0.4643,0.6135,0.8953,1.414,1.807,2.2317,2.6596,2.6321,2.5677,2.8588,3.6352,4.5832,4.809,4.7442,4.2009,3.0169,3.2206,3.2191,2.5015,2.2309,2.4317,2.8736,2.1574,1.99,2.2316,2.0744,1.6462,1.747,1.6664,1.6076,1.7311,1.6783,1.4905,-1.6716,0.0,-1.6285,-1.6285,0.0,-1.6678,-1.8247,-2.073,-2.2904,-2.3986,-2.4222,-2.4549,-2.4477,-2.393,-2.4135,-2.4116,-2.393,-2.3707,-2.3538,-2.326,-2.3091,-2.2733,-2.239,-2.2088,-2.1099,-1.9602,-1.812,-1.5314,-1.138,-0.8891,-0.584,-0.1921,0.16,0.4334,0.6342,0.9716,1.3395,1.7125,2.1253,2.5263,2.9107,3.1424,3.4472,3.8345,0.0,0.0,0.0,0.0,0.0,0.0,0.0,0.0,0.0,0.0,0.0,2.9668,2.5774,2.2296,1.926,1.0497,0.2881,-0.2329,-1.0261,-1.8883,-2.822,-3.3818,-3.711,-3.7563,-3.6623,-3.5662,-3.4737,-3.2773,-3.0764,-2.8884,-2.71,-2.4793,-2.2215,-2.0526,-1.7811,-1.3527,-1.1873,-0.9666,-0.496,-0.3551,0.1007,1.0669,1.4757,1.7942,2.1356,1.5416,1.0953,1.471,2.2493,2.9289,3.5012,3.623,3.1855,2.5217,2.5156,2.3346,1.4621,1.3118,1.4021,1.601,1.2993,0.9633,1.234,1.0662,0.8577,0.9262,0.893,0.5389,-0.8309,-1.2097,-1.2025,-2.0338,-2.0322,-2.0338,-2.0338,-2.0518,-2.2312,-2.5411,-2.9099,-2.8946,-2.9323,-2.9991,-3.0015,-2.9872,-2.9476,-2.8956,-2.8892,-2.919,-2.8288,-2.8047,-2.8309,-2.7981,-2.7649,-2.7472,-2.6736,-2.5943,-2.4973,-2.2702,-2.0146,-1.7252,-1.5056,-1.1943,-0.8151,-0.4566,-0.1468,0.1224,0.0,0.0,0.0,1.664,2.2727,3.0405,3.2239,3.5506,4.0727,4.2492,0.0,4.5182,4.4212,4.2835,4.1078,3.918,0.0,0.0,0.0,0.0,0.0,0.0,0.0,0.0,0.0,0.0,0.0,-1.7199,-2.2055,-2.6216,-3.5274,-4.1142,-4.1762,-4.1658,-4.1051,-3.9987,-3.785,-3.6477,-3.6147,-3.4362,-3.1854,-2.8632,-2.7428,-2.508,-2.0315,-1.9452,-1.8038,-1.451,-1.3792,-0.8659,0.2454,0.668,0.8937,1.1223,0.1143,-0.5438,-0.418,-0.2436,0.3358,1.3621,1.557,1.5208,1.5194,1.4972,1.2029,0.5298,0.385,0.4293,0.5321,0.3373,0.1089,0.2302,0.1346,-0.09,0.071,0.0172,-0.61,-2.6851,-3.3218,-3.1887,-2.582,-2.582,-2.582,-2.582,-2.6165,-3.0654,-3.3065,-3.3977,-3.4619,-3.5502,-3.6453,-3.6595,-3.6041,-3.4891,-3.4074,-3.3661,-3.3556,-3.3076,-3.297,-3.3188,-3.3712,-3.3633,-3.3029,-3.2704,-3.189,-3.0593,-2.8485,-2.6084,-2.3297,-1.97,-1.678,-1.4421,-0.9429,-0.5052,-0.1571,-0.0748,-0.1376,-0.2948,1.0365,2.1131,2.907,3.2495,3.69,4.238,4.4489,4.525,4.4624,4.3727,4.1863,3.9029,3.7683,3.627,3.4675,3.1992,2.8957,0.0,2.0415,0.0,0.0,0.0,0.0,0.0,0.0,0.0,0.0,-2.9409,-3.9403,-4.2334,-4.3082,-4.3442,-4.3402,-4.2371,-4.1857,-4.2385,-4.0982,-3.8997,-3.6488,-3.4948,-3.1259,-2.3956,-2.4604,-2.4098,-2.0562,-2.123,-2.0617,-1.4109,-1.1472,-1.1342,-1.2857,-1.5101,-1.9916,-2.9316,-2.9864,-2.3171,-1.5205,-1.0689,-0.8222,-0.9658,-0.817,-0.9965,-1.1962,-1.2254,-1.1235,-0.9104,-1.4701,-1.9851,-1.631,-2.0128,-2.3542,-2.211,-2.3073,-2.6031,-3.0901,-3.2713,-3.2398,-3.0176,-3.0152,-3.0152,-3.1641,-3.4094,-3.6056,-3.7603,-3.8823,-3.9161,-3.9883,-4.0954,-4.0832,-4.0109,-3.9059,-3.8444,-3.8061,-3.7819,-3.7092,-3.688,-3.7022,-3.6879,-3.6618,-3.6197,-3.5565,-3.47,-3.3556,-3.1701,-2.9526,-2.7209,-2.4374,-2.1907,-1.9766,-1.4332,-1.1265,-1.0549,-0.9377,-0.7084,-0.387,0.3591,1.4252,2.8021,3.503,4.0294,4.3998,4.4223,4.3589,4.2175,4.0178,3.7386,3.3838,3.1424,2.8984,2.6448,2.4018,2.1398,0.0,0.0,0.0,0.0,0.0,0.0,0.0,0.0,0.0,0.0,0.0,-3.7633,-4.0249,-4.3899,-4.4696,-4.1321,-4.252,-4.3082,-4.1806,-4.0809,-4.0134,-3.9895,-3.877,-3.6659,-3.2877,-3.2918,-3.2372,-3.045,-3.0538,-2.8121,-2.0732,-2.7243,-3.3085,-3.3905,-3.4305,-3.5062,-3.7264,-3.7097,-3.366,-2.5571,-1.8659,-1.479,-1.618,-1.5969,-1.6175,-1.8134,-1.8797,-1.8713,-1.7654,-2.2027,-2.5736,-2.4599,-2.7352,-2.9761,-3.0173,-3.1083,-3.2095,-3.3118,-3.4392,-3.5646,-3.4491,-3.4475,-3.5291,-3.7711,-4.0839,-4.0587,-4.1415,-4.3015,-4.3076,-4.3565,-4.4383,-4.4329,-4.353,-4.2223,-4.152,-4.093,-4.0477,-3.9996,-3.9805,-3.9732,-3.9181,-3.8812,-3.8707,-3.7843,-3.6979,-3.6215,-3.4792,-3.3085,-3.1201,-2.915,-2.6969,-2.4692,-2.0027,-1.7988,-1.8787,-1.5896,-1.1274,-0.5387,-0.3583,0.4265,1.8398,2.9161,3.7632,4.3622,4.1894,4.003,3.8301,3.5434,3.2062,2.809,2.5044,2.2018,1.8869,1.6328,0.0,0.0,0.0,0.0,0.0,0.0,0.0,0.0,0.0,-1.5119,-1.5991,0.0,-3.2183,0.0,-4.0357,-4.4385,-4.0503,-4.2058,0.0,0.0,-4.0146,-4.0092,-4.0675,-4.0991,-4.0609,-3.9285,-3.9424,-3.9482,-3.9064,-3.8854,-3.5976,-2.9063,-3.9297,-4.7549,-4.7102,-4.7142,-4.5439,-4.0841,-3.8444,-3.4864,-2.7731,-2.064,-1.6097,-1.6121,-1.6097,-1.6845,-1.8489,-1.9597,-2.0546,-2.1427,-2.3051,-2.4866,-2.6479,-2.817,-2.9344,-3.0127,-3.0612,-3.1108,-3.2078,-3.3974,-3.6078,-3.9316,-3.9019,-4.2373,-4.4013,-4.4464,-4.4712,-4.5281,-4.6092,-4.6224,-4.6455,-4.6817,-4.7339,-4.6317,-4.4033,-4.2585,0.0,-4.0158,-4.125,-4.1361,-4.0709,-4.1019,-4.1112,-4.1112,-4.0647,-4.0142,-3.9468,-3.9,-3.78,-3.5875,-3.394,-3.2006,-2.9812,-2.6709,-2.4413,-2.2858,-1.7209,-1.4329,-1.4456,-1.0982,-0.8999,-0.8357,0.6426,2.2665,3.9729,3.6657,3.41,3.2602,2.9866,2.6637,2.2786,2.0672,1.85,1.6356,0.0,0.0,0.0,0.0,0.0,0.0,0.0,0.0,0.0,0.0,0.0,0.0,0.0,0.0,-1.1809,-2.8795,0.0,-4.444,-4.2334,0.0,0.0,0.0,-4.0269,-3.8574,-4.1557,-4.2343,-3.8639,0.0,0.0,-4.2778,-4.4511,-4.5765,-4.555,-4.6629,-4.7296,-4.6945,-4.5976,-4.4182,-4.08,-3.8108,-3.427,-2.7974,-2.2808,-1.7853,-1.3563,-1.2912,-1.374,-1.5082,-1.592,-1.6742,-1.8012,-2.0015,-2.1883,-2.3451,-2.5316,-2.66,-2.6091,-2.66,-2.6922,-2.686,-2.8332,-3.0499,-4.3359,-4.4299,-4.5311,-4.6125,-4.6638,-4.6257,-4.677,-4.7777,-4.7768,-4.7328,-4.6596,-4.6757,-4.5679,-4.3655,-4.2673,0.0,0.0,0.0,-4.1814,-4.187,-4.188,-4.2122,-4.2438,-4.2126,-4.1861,-4.1561,-4.0677,-3.9607,-3.8542,-3.6176,-3.4282,-3.2917,0.0,0.0,-2.5848,-2.2903,-1.995,-1.7335,-1.7616,-1.4498,-0.7749,-0.3425,1.0579,3.443,3.3425,3.0287,2.6431,2.4845,2.2264,1.847,1.668,1.4881,0.0,0.0,0.0,0.0,0.0,0.0,0.0,0.0,0.0,0.0,0.0,-0.0465,0.0618,0.0,0.0,0.0,-2.1688,-2.8514,-3.3337,-3.519,0.0,0.0,0.0,0.0,0.0,0.0,0.0,-3.9915,-4.2154,-4.3715,-4.3884,-4.5758,-4.7222,-4.7461,-4.6992,-4.634,-4.551,0.0,-4.1579,-3.7786,-3.3415,-2.8752,-2.3609,-1.8728,-1.4456,-1.1496,-1.0904,-1.1116,-1.1848,-1.2797,-1.3949,-1.5277,-1.6984,-1.9189,-2.1913,-2.2221,-2.2221,-2.2198,-2.2477,-2.2975,-2.3707,-2.4905,-2.678,-4.6625,0.0,0.0,0.0,0.0,-4.6075,-4.606,-4.6849,-4.6735,-4.6028,-4.4903,-4.4823,0.0,0.0,0.0,0.0,0.0,0.0,-4.1712,-4.2108,-4.2731,-4.3,-4.3109,-4.299,-4.2816,-4.2712,-4.1589,-4.0553,-3.9517,-3.6735,-3.4818,-3.3791,0.0,0.0,0.0,0.0,-2.4627,-2.1986,-2.4598,-2.2039,-1.3725,-1.572,-0.5416,1.8005,2.2636,2.3224,1.9583,1.9018,1.7463,1.4793,1.3323,0.0,0.0,0.0,0.0,0.0,0.0,0.0,0.0,0.0,0.0,0.0,0.0,0.0,0.0,0.0,0.0,0.0,0.0,0.0,-2.3284,-2.7151,-2.8776,0.0,0.0,0.0,0.0,0.0,0.0,0.0,0.0,0.0,-4.1227,-4.2885,-4.4632,0.0,0.0,-4.3383,-4.3043,-4.0723,-3.7539,-3.3346,-2.8203,0.0,-1.8881,-1.4387,-1.0947,-0.9689,-0.9241,-0.9305,-0.9633,-1.0471,-1.1514,-1.2348,-1.4208,-1.6322,-1.8275,-1.8002,-1.7829,-1.8731,-1.873,-1.9008,-1.994,-2.1622,-2.3412,0.0,0.0,0.0,0.0,0.0,0.0,0.0,0.0,-4.2275,-4.1964,0.0,-4.1574,0.0,0.0,0.0,0.0,0.0,-3.9985,0.0,0.0,-4.3458,-4.4239,-4.3153,-4.3125,-4.2985,-4.2726,-4.1929,-4.0628,-3.8937,-3.5586,0.0,0.0,0.0,0.0,0.0,0.0,-2.7192,-2.9395,-3.1906,-3.3518,-3.3787,-3.3294,-2.7227,-1.4788,0.1909,1.1291,1.2025,1.2253,1.2008,1.1634,1.0642,0.0,0.0,0.0,0.0,0.0,0.0,0.0,0.0,0.0,0.0,0.0,0.0,0.0,0.0,0.0,0.0,0.0,0.0,0.0,0.0,-1.9223,0.0,0.0,0.0,0.0,0.0,0.0,0.0,0.0,0.0,0.0,-3.396,-3.5298,-3.7914,-4.1122,0.0,0.0,0.0,0.0,-3.1643,-2.7991,-2.3414,-1.9087,-1.5297,-1.2016,-0.9446,-0.7737,0.0,0.0,-0.897,-0.917,-0.9256,-0.9589,-1.1776,-1.323,-1.1836,-1.2112,-1.3293,-1.5555,-1.5013,-1.46,-1.4634,-1.6792,-1.92,0.0,0.0,0.0,0.0,0.0,0.0,0.0,0.0,0.0,-3.9274,0.0,-3.756,0.0,0.0,0.0,0.0,0.0,0.0,0.0,0.0,-3.9547,-4.0889,-4.2261,-4.2526,-4.2608,0.0,-4.093,-3.8509,0.0,0.0,0.0,0.0,0.0,0.0,0.0,0.0,-3.0861,-3.1913,-3.5122,-3.6432,-3.565,-3.38,-3.0014,-2.4123,-0.7136,0.4101,0.8445,0.9377,0.9894,0.0,0.0,0.0,0.0,0.0,0.0,0.0,0.0,0.0,0.0,0.0,0.0,0.0,0.0,0.0,0.0,0.0,0.0,0.0,0.0,0.0,0.0,0.0,-1.3554,0.0,0.0,0.0,0.0,0.0,0.0,0.0,0.0,0.0,-2.7665,-2.9879,-3.2639,-3.4988,-3.4316,-3.3522,-3.3438,0.0,0.0,0.0,0.0,0.0,0.0,0.0,-0.7204,-0.6067,-0.5627,-0.5392,-0.5402,-0.5083,-0.5067,-0.5712,0.0,0.0,-0.4435,-0.4926,-0.603,-0.6647,-0.585,-0.5316,-0.6043,-0.7471,-0.9236,0.0,0.0,0.0,0.0,0.0,0.0,0.0,0.0,0.0,-3.5297,-3.3369,0.0,0.0,0.0,0.0,0.0,0.0,0.0,0.0,0.0,0.0,0.0,-3.9259,-3.9601,0.0,0.0,0.0,0.0,0.0,0.0,0.0,0.0,0.0,0.0,0.0,0.0,-3.2789,-3.4583,-3.7359,-3.8198,-3.6882,-3.4072,-3.0503,-2.6019,-1.3038,-0.2944,0.379,0.0,0.0,0.0,0.0,0.0,0.0,0.0,0.0,0.0,0.0,0.0,0.0,0.0,0.0,0.0,0.0,0.0,0.0,0.0,0.0,0.0,0.0,0.0,0.0,0.0,-0.7055,0.0,0.0,0.0,0.0,0.0,0.0,0.0,0.0,0.0,0.0,0.0,-2.4815,-2.769,-2.7353,-2.6945,-2.7088,-2.4141,-2.0887,0.0,0.0,0.0,0.0,0.0,0.0,0.0,0.0,0.0,0.0,0.0,0.0,0.0,0.0,0.1244,0.3842,0.3314,0.2561,0.2951,0.0,0.0,0.0,0.0,0.0,0.0,0.0,0.0,0.0,0.0,0.0,0.0,0.0,0.0,0.0,0.0,0.0,0.0,-2.564,0.0,0.0,0.0,0.0,0.0,0.0,0.0,0.0,0.0,0.0,0.0,0.0,0.0,0.0,0.0,0.0,0.0,0.0,0.0,0.0,0.0,0.0,-3.3012,-3.7786,-3.8837,-3.9122,-3.8415,-3.5304,-2.9736,-2.2067,-1.6306,-0.9842,-0.2057,0.0,0.0,0.0,0.0,0.0,0.0,0.0,0.0,0.0,0.0,0.0,0.0,0.0,0.0,0.0,0.0,0.0,0.0,0.0,0.0,0.0,0.0,0.0,0.0,0.0,0.0,-0.1307,-0.1856,-0.2731,0.0,0.0,0.0,0.0,0.0,0.0,0.0,0.0,0.0,0.0,-1.8218,-1.7938,-1.997,-1.7049,-1.3851,-1.147,-0.8906,-0.6602,-0.5026,-0.3333,-0.1733,0.0,0.0,0.0,0.0,0.0,0.0,0.0,0.0,0.0,0.0,0.0,0.0,0.0,0.0,0.0,0.0,0.0,0.0,0.0,0.0,0.0,0.0,0.0,0.0,0.0,0.0,0.0,0.0,0.0,0.0,0.0,0.0,0.0,0.0,0.0,0.0,0.0,0.0,0.0,0.0,0.0,0.0,0.0,0.0,0.0,0.0,0.0,0.0,0.0,0.0,0.0,0.0,0.0,0.0,-3.4026,-3.8097,-3.8933,-3.8192,-3.5992,-3.293,-2.7698,-2.0263,-1.448,-0.8703,0.0,0.0,0.0,0.0,0.0,0.0,0.0,0.0,0.0,0.0,0.0,0.0,0.0,0.0,0.0,0.0,0.0,0.0,0.0,0.0,0.0,0.0,0.0,0.0,0.0,0.0,0.0,0.0,0.3162,0.1834,0.1014,0.0,0.0,0.0,0.0,0.0,0.0,0.0,0.0,0.0,0.0,-1.0348,-1.1258,-0.9572,-0.7585,-0.6153,-0.4699,-0.3362,-0.2159,-0.1416,-0.0272,0.1748,0.0,0.0,0.0,0.0,0.0,0.0,0.0,0.0,0.0,0.0,0.0,0.0,0.0,0.0,0.0,0.0,0.0,0.0,0.0,0.0,0.0,0.0,0.0,0.0,0.0,0.0,0.0,0.0,0.0,0.0,0.0,0.0,0.0,0.0,0.0,0.0,0.0,0.0,0.0,0.0,0.0,0.0,0.0,0.0,0.0,0.0,0.0,0.0,0.0,0.0,0.0,0.0,0.0,-3.4663,-3.8505,-3.7953,-3.6666,-3.4667,-3.2032,-2.6938,-1.9175,-1.4254,-0.891,0.0,0.0,0.0,0.0,0.0,0.0,0.0,0.0,0.0,0.0,0.0,0.0,0.0,0.0,0.0,0.0,0.0,0.0,0.0,0.0,0.0,0.0,0.0,0.0,0.0,0.0,0.0,0.0,0.6734,0.5791,0.5259,0.0,0.0,0.0,0.0,0.0,0.0,0.0,0.0,0.0,0.0,-0.2276,-0.3621,-0.2573,0.0,0.0,-0.0343,0.0517,0.1293,0.1925,0.293,0.4574,0.5342,0.0,0.0,0.0,0.0,0.0,0.0,0.0,0.0,0.0,0.0,0.0,0.0,0.0,0.0,0.0,0.0,0.0,0.0,0.0,0.0,0.0,0.0,0.0,0.0,0.0,0.0,0.0,0.0,0.0,0.0,0.0,0.0,0.0,0.0,0.0,0.0,0.0,0.0,0.0,0.0,0.0,0.0,0.0,0.0,0.0,0.0,0.0,0.0,0.0,0.0,0.0,0.0,0.0,-3.8687,-3.6178,-3.4472,-3.3919,-3.1783,-2.6632,-1.849,-1.524,-0.99,0.0,0.0,0.0,0.0,0.0,0.0,0.0,0.0,0.0,0.0,0.0,0.0,0.0,0.0,0.0,0.0,0.0,0.0,0.0,0.0,0.0,0.0,0.0,0.0,0.0,0.0,0.0,0.0,0.0,0.0,0.0,0.0,0.0,0.0,0.0,0.0,0.0,0.0,0.0,0.0,0.0,0.5886,0.3412,0.4008,0.4367,0.0,0.0,0.4893,0.5159,0.6214,0.711,0.7478,0.0,0.0,0.0,0.0,0.0,0.0,0.0,0.0,0.0,0.0,0.0,0.0,0.0,0.0,0.0,0.0,0.0,0.0,0.0,0.0,0.0,0.0,0.0,0.0,0.0,0.0,0.0,0.0,0.0,0.0,0.0,0.0,0.0,0.0,0.0,0.0,0.0,0.0,0.0,0.0,0.0,0.0,0.0,0.0,0.0,0.0,0.0,0.0,0.0,0.0,0.0,0.0,0.0,0.0,-3.7536,-3.4118,-3.1524,-3.0003,-2.692,-2.2173,-1.5799,-1.2643,0.0,0.0,0.0,0.0,0.0,0.0,0.0,0.0,0.0,0.0,0.0,0.0,0.0,0.0,0.0,0.0,0.0,0.0,0.0,0.0,0.0,0.0,0.0,0.0,0.0,0.0,0.0,1.1929,0.0,0.0,0.0,0.0,0.0,0.0,0.0,0.0,0.0,0.0,0.0,0.0,0.0,0.0,1.1985,1.0639,0.9759,0.9176,0.0,0.0,0.8722,0.8949,0.9186,0.9736,0.0,0.0,0.0,0.0,0.0,0.0,0.0,0.0,0.0,0.0,0.0,0.0,0.0,0.0,0.0,0.0,0.0,0.0,0.0,0.0,0.0,0.0,0.0,0.0,0.0,0.0,0.0,0.0,0.0,0.0,0.0,0.0,0.0,0.0,0.0,0.0,0.0,0.0,0.0,0.0,0.0,0.0,0.0,0.0,0.0,0.0,0.0,0.0,0.0,0.0,0.0,0.0,0.0,0.0,-3.1596,-3.5655,-3.2479,-2.9576,-2.7373,-2.3702,-1.9565,-1.5131,-1.157,-0.7535,0.0,0.0,0.0,0.0,0.0,0.0,0.0,0.0,0.0,0.0,0.0,0.0,0.0,0.0,0.0,0.0,0.0,0.0,0.0,0.0,0.0,0.0,0.0,0.0,0.0,0.0,0.0,0.0,0.0,0.0,0.0,0.0,0.0,0.0,0.0,0.0,0.0,0.0,0.0,0.0,0.0,0.0,1.5921,1.4921,0.0,0.0,0.0,1.2375,1.2516,0.0,0.0,0.0,0.0,0.0,0.0,0.0,0.0,0.0,0.0,0.0,0.0,0.0,0.0,0.0,0.0,0.0,0.0,0.0,0.0,0.0,0.0,0.0,0.0,0.0,0.0,0.0,0.0,0.0,0.0,0.0,0.0,0.0,0.0,0.0,0.0,0.0,0.0,0.0,0.0,0.0,0.0,0.0,0.0,0.0,0.0,0.0,0.0,0.0,0.0,0.0,0.0,0.0,0.0,0.0,0.0,0.0,-3.3307,-3.1172,-2.8517,-2.5415,-2.1587,-1.799,-1.4754,-1.0947,-0.7122,0.0,0.0,0.0,0.0,0.0,0.0,0.0,0.0,0.0,0.0,0.0,0.0,0.0,0.0,0.0,0.0,0.0,0.0,0.0,0.0,0.0,0.0,0.0,0.0,0.0,0.0,0.0,0.0,0.0,0.0,0.0,0.0,0.0,0.0,0.0,0.0,0.0,0.0,0.0,0.0,0.0,2.2521,1.9979,1.9274,1.8343,0.0,0.0,1.5933,1.6137,1.6137,0.0,0.0,0.0,0.0,0.0,0.0,0.0,0.0,0.0,0.0,0.0,0.0,0.0,0.0,0.0,0.0,0.0,0.0,0.0,0.0,0.0,0.0,0.0,0.0,0.0,0.0,0.0,0.0,0.0,0.0,0.0,0.0,0.0,0.0,0.0,0.0,0.0,0.0,0.0,0.0,0.0,0.0,0.0,0.0,0.0,0.0,0.0,0.0,0.0,0.0,0.0,0.0,0.0,0.0,0.0,0.0,-2.9555,-3.0958,-2.8699,-2.2831,-2.0451,-1.6303,-1.0065,-0.9059,-0.6365,0.0,0.0,0.0,0.0,0.0,0.0,0.0,0.0,0.0,0.0,0.0,0.0,0.0,0.0,0.0,0.0,0.0,0.0,0.0,0.0,0.0,0.0,0.0,0.0,0.0,0.0,0.0,0.0,0.0,0.0,0.0,0.0,0.0,0.0,0.0,0.0,0.0,0.0,0.0,0.0,0.0,2.463,2.3531,2.2193,0.0,0.0,0.0,0.0,1.9837,1.9743,0.0,0.0,0.0,0.0,0.0,0.0,0.0,0.0,0.0,0.0,0.0,0.0,0.0,0.0,0.0,0.0,0.0,0.0,0.0,0.0,0.0,0.0,0.0,0.0,0.0,0.0,0.0,0.0,0.0,0.0,0.0,0.0,0.0,0.0,0.0,0.0,0.0,0.0,0.0,0.0,0.0,0.0,0.0,0.0,0.0,0.0,0.0,0.0,0.0,0.0,0.0,0.0,0.0,0.0,0.0,0.0,-2.3931,-2.4051,-2.2004,-1.785,-1.4533,-1.1234,-0.8069,-0.695,-0.5156,0.0,0.0,0.0,0.0,0.0,0.0,0.0,0.0,0.0,0.0,0.0,0.0,0.0,0.0,0.0,0.0,0.0,0.0,0.0,0.0,0.0,0.0,0.0,0.0,0.0,0.0,0.0,0.0,0.0,0.0,0.0,0.0,0.0,0.0,0.0,0.0,0.0,0.0,0.0,0.0,2.7251,2.6324,2.5617,0.0,0.0,0.0,0.0,0.0,0.0,2.2641,2.3353,0.0,0.0,0.0,0.0,0.0,0.0,0.0,0.0,0.0,0.0,0.0,0.0,0.0,0.0,0.0,0.0,0.0,0.0,0.0,0.0,0.0,0.0,0.0,0.0,0.0,0.0,0.0,0.0,0.0,0.0,0.0,0.0,0.0,0.0,0.0,0.0,0.0,0.0,0.0,0.0,0.0,0.0,0.0,0.0,0.0,0.0,0.0,0.0,0.0,0.0,0.0,0.0,0.0,0.0,0.0,-1.6855,-1.5747,-1.4106,-1.2105,-0.857,-0.6685,-0.6736,-0.5289,-0.4209,-0.3436,0.0,0.0,0.0,0.0,0.0,0.0,0.0,0.0,0.0,0.0,0.0,0.0,0.0,0.0,0.0,0.0,0.0,0.0,0.0,0.0,0.0,0.0,0.0,0.0,0.0,0.0,0.0,0.0,0.0,0.0,0.0,0.0,0.0,0.0,0.0,0.0,0.0,0.0,0.0,2.9172,2.8389,0.0,0.0,0.0,0.0,0.0,0.0,0.0,0.0,2.6371,0.0,0.0,0.0,0.0,0.0,0.0,0.0,0.0,0.0,0.0,0.0,0.0,0.0,0.0,0.0,0.0,0.0,0.0,0.0,0.0,0.0,0.0,0.0,0.0,0.0,0.0,0.0,0.0,0.0,0.0,0.0,0.0,0.0,0.0,0.0,0.0,0.0,0.0,0.0,0.0,0.0,0.0,0.0,0.0,0.0,0.0,0.0,0.0,0.0,0.0,0.0,0.0,0.0,0.0,0.0,0.0,-1.1361,-1.16,-0.7139,-0.9203,-0.8168,-0.3531,-0.5088,-0.4748,-0.1834,0.0,0.0,0.0,0.0,0.0,0.0,0.0,0.0,0.0,0.0,0.0,0.0,0.0,0.0,0.0,0.0,0.0,0.0,0.0,0.0,0.0,0.0,0.0,0.0,0.0,0.0,0.0,0.0,0.0,0.0,0.0,0.0,0.0,0.0,0.0,0.0,0.0,0.0,3.3758,3.2841,0.0,0.0,0.0,0.0,0.0,0.0,0.0,0.0,2.8969,0.0,0.0,0.0,0.0,0.0,0.0,0.0,0.0,0.0,0.0,0.0,0.0,0.0,0.0,0.0,0.0,0.0,0.0,0.0,0.0,0.0,0.0,0.0,0.0,0.0,0.0,0.0,0.0,0.0,0.0,0.0,0.0,0.0,0.0,0.0,0.0,0.0,0.0,0.0,0.0,0.0,0.0,0.0,0.0,0.0,0.0,0.0,0.0,0.0,0.0,0.0,0.0,0.0,0.0,0.0,0.0,0.0,0.0,-0.0871,0.2143,-0.1364,-0.2841,-0.1789,-0.2031,-0.1379,0.0,0.0,0.0,0.0,0.0,0.0,0.0,0.0,0.0,0.0,0.0,0.0,0.0,0.0,0.0,0.0,0.0,0.0,0.0,0.0,0.0,0.0,0.0,0.0,0.0,0.0,0.0,0.0,0.0,0.0,0.0,0.0,0.0,0.0,0.0,0.0,0.0,0.0,0.0,0.0,0.0,0.0,0.0,0.0,0.0,0.0,0.0,0.0,0.0,0.0,0.0,0.0,0.0,0.0,0.0,0.0,0.0,0.0,0.0,0.0,0.0,0.0,0.0,0.0,0.0,0.0,0.0,0.0,0.0,0.0,0.0,0.0,0.0,0.0,0.0,0.0,0.0,0.0,0.0,0.0,0.0,0.0,0.0,0.0,0.0,0.0,0.0,0.0,0.0,0.0,0.0,0.0,0.0,0.0,0.0,0.0,0.0,0.0,0.0,0.0,0.0,0.0,0.0,0.0,0.0,0.0,0.0,0.0,0.9051,0.9624,0.5713,0.2446,-0.0083,0.0992,0.2007,0.0,0.0,0.0,0.0,0.0,0.0,0.0,0.0,0.0,0.0,0.0,0.0,0.0,0.0,0.0,0.0,0.0,0.0,0.0,0.0,0.0,0.0,0.0,0.0,0.0,0.0,0.0,0.0,0.0,0.0,0.0,0.0,0.0,0.0,0.0,0.0,0.0,0.0,0.0,0.0,0.0,0.0,0.0,0.0,0.0,0.0,0.0,0.0,3.282,0.0,0.0,0.0,0.0,0.0,0.0,0.0,0.0,0.0,0.0,0.0,0.0,0.0,0.0,0.0,0.0,0.0,0.0,0.0,0.0,0.0,0.0,0.0,0.0,0.0,0.0,0.0,0.0,0.0,0.0,0.0,0.0,0.0,0.0,0.0,0.0,0.0,0.0,0.0,0.0,0.0,0.0,0.0,0.0,0.0,0.0,0.0,0.0,0.0,0.0,0.0,0.0,0.0,0.0,0.0,0.0,0.0,0.0,0.0,1.2026,1.0418,0.5927,0.315,0.2408,0.2066,0.3178,0.0,0.0,0.0,0.0,0.0,0.0,0.0,0.0,0.0,0.0,0.0,0.0,0.0,0.0,0.0,0.0,0.0,0.0,0.0,0.0,0.0,0.0,0.0,0.0,0.0,0.0,0.0,0.0,0.0,0.0,0.0,0.0,0.0,0.0,0.0,0.0,0.0,0.0,0.0,0.0,0.0,0.0,0.0,0.0,0.0,0.0,0.0,0.0,0.0,0.0,0.0,0.0,0.0,0.0,0.0,0.0,0.0,0.0,0.0,0.0,0.0,0.0,0.0,0.0,0.0,0.0,0.0,0.0,0.0,0.0,0.0,0.0,0.0,0.0,0.0,0.0,0.0,0.0,0.0,0.0,0.0,0.0,0.0,0.0,0.0,0.0,0.0,0.0,0.0,0.0,0.0,0.0,0.0,0.0,0.0,0.0,0.0,0.0,0.0,0.0,0.0,0.0,0.0,0.0,0.0,0.0,0.0,0.0,1.6201,1.477,0.9801,0.6931,0.6365,0.5584,0.5968,0.0,0.0,0.0,0.0,0.0,0.0,0.0,0.0,0.0,0.0,0.0,0.0,0.0,0.0,0.0,0.0,0.0,0.0,0.0,0.0,0.0,0.0,0.0,0.0,0.0,0.0,0.0,0.0,0.0,0.0,0.0,0.0,0.0,0.0,0.0,0.0,0.0,0.0,0.0,0.0,0.0,0.0,0.0,0.0,0.0,0.0,0.0,0.0,0.0,0.0,0.0,0.0,0.0,0.0,0.0,0.0,0.0,0.0,0.0,0.0,0.0,0.0,0.0,0.0,0.0,0.0,0.0,0.0,0.0,0.0,0.0,0.0,0.0,0.0,0.0,0.0,0.0,0.0,0.0,0.0,0.0,0.0,0.0,0.0,0.0,0.0,0.0,0.0,0.0,0.0,0.0,0.0,0.0,0.0,0.0,0.0,0.0,0.0,0.0,0.0,0.0,0.0,0.0,0.0,0.0,0.0,0.0,0.0,0.0,1.754,1.3333,1.0842,1.0332,0.8918,0.868,0.0,0.0,0.0,0.0,0.0,0.0,0.0,0.0,0.0,0.0,0.0,0.0,0.0,0.0,0.0,0.0,0.0,0.0,0.0,0.0,0.0,0.0,0.0,0.0,0.0,0.0,0.0,0.0,0.0,0.0,0.0,0.0,0.0,0.0,0.0,0.0,0.0,0.0,0.0,0.0,0.0,0.0,0.0,0.0,0.0,0.0,0.0,0.0,0.0,0.0,0.0,0.0,0.0,0.0,0.0,0.0,0.0,0.0,0.0,0.0,0.0,0.0,0.0,0.0,0.0,0.0,0.0,0.0,0.0,0.0,0.0,0.0,0.0,0.0,0.0,0.0,0.0,0.0,0.0,0.0,0.0,0.0,0.0,0.0,0.0,0.0,0.0,0.0,0.0,0.0,0.0,0.0,0.0,0.0,0.0,0.0,0.0,0.0,0.0,0.0,0.0,0.0,0.0,0.0,0.0,0.0,0.0,0.0,0.0,1.701,1.5152,1.4002,1.3813,1.1371,1.0789,0.0,0.0,0.0,0.0,0.0,0.0,0.0,0.0,0.0,0.0,0.0,0.0,0.0,0.0,0.0,0.0,0.0,0.0,0.0,0.0,0.0,0.0,0.0,0.0,0.0,0.0,0.0,0.0,0.0,0.0,0.0,0.0,0.0,0.0,0.0,0.0,0.0,0.0,0.0,0.0,0.0,0.0,0.0,0.0,0.0,0.0,0.0,0.0,0.0,0.0,0.0,0.0,0.0,0.0,0.0,0.0,0.0,0.0,0.0,0.0,0.0,0.0,0.0,0.0,0.0,0.0,0.0,0.0,0.0,0.0,0.0,0.0,0.0,0.0,0.0,0.0,0.0,0.0,0.0,0.0,0.0,0.0,0.0,0.0,0.0,0.0,0.0,0.0,0.0,0.0,0.0,0.0,0.0,0.0,0.0,0.0,0.0,0.0,0.0,0.0,0.0,0.0,0.0,0.0,0.0,0.0,0.0,0.0,0.0,2.0001,1.8162,1.681,1.6042,1.4361,1.3844,1.4666,0.0,0.0,0.0,0.0,0.0,0.0,0.0,0.0,0.0,0.0,0.0,0.0,0.0,0.0,0.0,0.0,0.0,0.0,0.0,0.0,0.0,0.0,0.0,0.0,0.0,0.0,0.0,0.0,0.0,0.0,0.0,0.0,0.0,0.0,0.0,0.0,0.0,0.0,0.0,0.0,0.0,0.0,0.0,0.0,0.0,0.0,0.0,0.0,0.0,0.0,0.0,0.0,0.0,0.0,0.0,0.0,0.0,0.0,0.0,0.0,0.0,0.0,0.0,0.0,0.0,0.0,0.0,0.0,0.0,0.0,0.0,0.0,0.0,0.0,0.0,0.0,0.0,0.0,0.0,0.0,0.0,0.0,0.0,0.0,0.0,0.0,0.0,0.0,0.0,0.0,0.0,0.0,0.0,0.0,0.0,0.0,0.0,0.0,0.0,0.0,0.0,0.0,0.0,0.0,0.0,0.0,0.0,0.0,2.2946,2.109,1.9612,1.8555,1.7475,1.7041,0.0,0.0,0.0,0.0,0.0,0.0,0.0,0.0,0.0,0.0,0.0,0.0,0.0,0.0,0.0,0.0,0.0,0.0,0.0,0.0,0.0,0.0,0.0,0.0,0.0,0.0,0.0,0.0,0.0,0.0,0.0,0.0,0.0,0.0,0.0,0.0,0.0,0.0,0.0,0.0,0.0,0.0,0.0,0.0,0.0,0.0,0.0,0.0,0.0,0.0,0.0,0.0,0.0,0.0,0.0,0.0,0.0,0.0,0.0,0.0,0.0,0.0,0.0,0.0,0.0,0.0,0.0,0.0,0.0,0.0,0.0,0.0,0.0,0.0,0.0,0.0,0.0,0.0,0.0,0.0,0.0,0.0,0.0,0.0,0.0,0.0,0.0,0.0,0.0,0.0,0.0,0.0,0.0,0.0,0.0,0.0,0.0,0.0,0.0,0.0,0.0,0.0,0.0,0.0,0.0,0.0,0.0,0.0,2.8956,2.5357,2.3738,2.2472,2.1567,2.0542,2.01,0.0,0.0,0.0,0.0,0.0,0.0,0.0,0.0,0.0,0.0,0.0,0.0,0.0,0.0,0.0,0.0,0.0,0.0,0.0,0.0,0.0,0.0,0.0,0.0,0.0,0.0,0.0,0.0,0.0,0.0,0.0,0.0,0.0,0.0,0.0,0.0,0.0,0.0,0.0,0.0,0.0,0.0,0.0,0.0,0.0,0.0,0.0,0.0,0.0,0.0,0.0,0.0,0.0,0.0,0.0,0.0,0.0,0.0,0.0,0.0,0.0,0.0,0.0,0.0,0.0,0.0,0.0,0.0,0.0,0.0,0.0,0.0,0.0,0.0,0.0,0.0,0.0,0.0,0.0,0.0,0.0,0.0,0.0,0.0,0.0,0.0,0.0,0.0,0.0,0.0,0.0,0.0,0.0,0.0,0.0,0.0,0.0,0.0,0.0,0.0,0.0,0.0,0.0,0.0,0.0,0.0,0.0,0.0,0.0,2.8603,0.0,2.5385,0.0,2.4263,2.3876,0.0,0.0,0.0,0.0,0.0,0.0,0.0,0.0,0.0,0.0,0.0,0.0,0.0,0.0,0.0,0.0,0.0,0.0,0.0,0.0,0.0,0.0,0.0,0.0,0.0,0.0,0.0,0.0,0.0,0.0,0.0,0.0,0.0,0.0,0.0,0.0,0.0,0.0,0.0,0.0,0.0,0.0,0.0,0.0,0.0,0.0,0.0,0.0,0.0,0.0,0.0,0.0,0.0,0.0,0.0,0.0,0.0,0.0,0.0,0.0,0.0,0.0,0.0,0.0,0.0,0.0,0.0,0.0,0.0,0.0,0.0,0.0,0.0,0.0,0.0,0.0,0.0,0.0,0.0,0.0,0.0,0.0,0.0,0.0,0.0,0.0,0.0,0.0,0.0,0.0,0.0,0.0,0.0,0.0,0.0,0.0,0.0,0.0,0.0,0.0,0.0,0.0,0.0,0.0,0.0,0.0,0.0,0.0,0.0,3.1938,3.0018,2.8794,2.8231,2.7533,2.6969,0.0,0.0,0.0,0.0,0.0,0.0,0.0,0.0,0.0,0.0,0.0,0.0,0.0,0.0,0.0,0.0,0.0,0.0,0.0,0.0,0.0,0.0,0.0,0.0,0.0,0.0,0.0,0.0,0.0,0.0,0.0,0.0,0.0,0.0,0.0,0.0,0.0,0.0,0.0,0.0,0.0,0.0,0.0,0.0,0.0,0.0,0.0,0.0,0.0,0.0,0.0,0.0,0.0,0.0,0.0,0.0,0.0,0.0,0.0,0.0,0.0,0.0,0.0,0.0,0.0,0.0,0.0,0.0,0.0,0.0,0.0,0.0,0.0,0.0,0.0,0.0,0.0,0.0,0.0,0.0,0.0,0.0,0.0,0.0,0.0,0.0,0.0,0.0,0.0,0.0,0.0,0.0,0.0,0.0,0.0,0.0,0.0,0.0,0.0,0.0,0.0,0.0,0.0,0.0,0.0,0.0,0.0,0.0,0.0,0.0,3.3471,3.2349,3.1603,3.0254,2.9485,0.0,0.0,0.0,0.0,0.0,0.0,0.0,0.0,0.0,0.0,0.0,0.0,0.0,0.0,0.0,0.0,0.0,0.0,0.0,0.0,0.0,0.0,0.0,0.0,0.0,0.0,0.0,0.0,0.0,0.0,0.0,0.0,0.0,0.0,0.0,0.0,0.0,0.0,0.0,0.0,0.0,0.0,0.0,0.0,0.0,0.0,0.0,0.0,0.0,0.0,0.0,0.0,0.0,0.0,0.0,0.0,0.0,0.0,0.0,0.0,0.0,0.0,0.0,0.0,0.0,0.0,0.0,0.0,0.0,0.0,0.0,0.0,0.0,0.0,0.0,0.0,0.0,0.0,0.0,0.0,0.0,0.0,0.0,0.0,0.0,0.0,0.0,0.0,0.0,0.0,0.0,0.0,0.0,0.0,0.0,0.0,0.0,0.0,0.0,0.0,0.0,0.0,0.0,0.0,0.0,0.0,0.0,0.0,0.0,0.0,3.4254,3.3628,3.4138,3.2744,3.1824,3.1857,0.0,0.0,0.0,0.0,0.0,0.0,0.0,0.0,0.0,0.0,0.0,0.0,0.0,0.0,0.0,0.0,0.0,0.0,0.0,0.0,0.0,0.0,0.0,0.0,0.0,0.0,0.0,0.0,0.0,0.0,0.0,0.0,0.0,0.0,0.0,0.0,0.0,0.0,0.0,0.0,0.0,0.0,0.0,0.0,0.0,0.0,0.0,0.0,0.0,0.0,0.0,0.0,0.0,0.0,0.0,0.0,0.0,0.0,0.0,0.0,0.0,0.0,0.0,0.0,0.0,0.0,0.0,0.0,0.0,0.0,0.0,0.0,0.0,0.0,0.0,0.0,0.0,0.0,0.0,0.0,0.0,0.0,0.0,0.0,0.0,0.0,0.0,0.0,0.0,0.0,0.0,0.0,0.0,0.0,0.0,0.0,0.0,0.0,0.0,0.0,0.0,0.0,0.0,0.0,0.0,0.0,0.0,0.0,0.0,0.0,3.5981,3.6561,3.5572,3.4576,0.0,0.0,0.0,0.0,0.0,0.0,0.0,0.0,0.0,0.0,0.0,0.0,0.0,0.0,0.0,0.0,0.0,0.0,0.0,0.0,0.0,0.0,0.0,0.0,0.0,0.0,0.0,0.0,0.0,0.0,0.0,0.0,0.0,0.0,0.0,0.0,0.0,0.0,0.0,0.0,0.0,0.0,0.0,0.0,0.0,0.0,0.0,0.0,0.0,0.0,0.0,0.0,0.0,0.0,0.0,0.0,0.0,0.0,0.0,0.0,0.0,0.0,0.0,0.0,0.0,0.0,0.0,0.0,0.0,0.0,0.0,0.0,0.0,0.0,0.0,0.0,0.0,0.0,0.0,0.0,0.0,0.0,0.0,0.0,0.0,0.0,0.0,0.0,0.0,0.0,0.0,0.0,0.0,0.0,0.0,0.0,0.0,0.0,0.0,0.0,0.0,0.0,0.0,0.0,0.0,0.0,0.0,0.0,0.0,0.0,0.0,3.8907,3.8413,3.8384,0.0,3.454,0.0,0.0,0.0,0.0,0.0,0.0,0.0,0.0,0.0,0.0,0.0,0.0,0.0,0.0,0.0,0.0,0.0,0.0,0.0,0.0,0.0,0.0,0.0,0.0,0.0,0.0,0.0,0.0,0.0,0.0,0.0,0.0,0.0,0.0,0.0,0.0,0.0,0.0,0.0,0.0,0.0,0.0,0.0,0.0,0.0,0.0,0.0,0.0,0.0,0.0,0.0,0.0,0.0,0.0,0.0,0.0,0.0,0.0,0.0,0.0,0.0,0.0,0.0,0.0,0.0,0.0,0.0,0.0,0.0,0.0,0.0,0.0,0.0,0.0,0.0,0.0,0.0,0.0,0.0,0.0,0.0,0.0,0.0,0.0,0.0,0.0,0.0,0.0,0.0,0.0,0.0,0.0,0.0,0.0,0.0,0.0,0.0,0.0,0.0,0.0,0.0,0.0,0.0,0.0,0.0,0.0,0.0,0.0,0.0,0.0,0.0,0.0,3.9266,3.8358,3.6503,0.0,0.0,0.0,0.0,0.0,0.0,0.0,0.0,0.0,0.0,0.0,0.0,0.0,0.0,0.0,0.0,0.0,0.0,0.0,0.0,0.0,0.0,0.0,0.0,0.0,0.0,0.0,0.0,0.0,0.0,0.0,0.0,0.0,0.0,0.0,0.0,0.0,0.0,0.0,0.0,0.0,0.0,0.0,0.0,0.0,0.0,0.0,0.0,0.0,0.0,0.0,0.0,0.0,0.0,0.0,0.0,0.0,0.0,0.0,0.0,0.0,0.0,0.0,0.0,0.0,0.0,0.0,0.0,0.0,0.0,0.0,0.0,0.0,0.0,0.0,0.0,0.0,0.0,0.0,0.0,0.0,0.0,0.0,0.0,0.0,0.0,0.0,0.0,0.0,0.0,0.0,0.0,0.0,0.0,0.0,0.0,0.0,0.0,0.0,0.0,0.0,0.0,0.0,0.0,0.0,0.0,0.0,0.0,0.0,0.0,4.1439,4.0028,3.9867,3.8799,3.6777,0.0,0.0,0.0,0.0,0.0,0.0,0.0,0.0,0.0,0.0,0.0,0.0,0.0,0.0,0.0,0.0,0.0,0.0,0.0,0.0,0.0,0.0,0.0,0.0,0.0,0.0,0.0,0.0,0.0,0.0,0.0,0.0,0.0,0.0,0.0,0.0,0.0,0.0,0.0,0.0,0.0,0.0,0.0,0.0,0.0,0.0,0.0,0.0,0.0,0.0,0.0,0.0,0.0,0.0,0.0,0.0,0.0,0.0,0.0,0.0,0.0,0.0,0.0,0.0,0.0,0.0,0.0,0.0,0.0,0.0,0.0,0.0,0.0,0.0,0.0,0.0,0.0,0.0,0.0,0.0,0.0,0.0,0.0,0.0,0.0,0.0,0.0,0.0,0.0,0.0,0.0,0.0,0.0,0.0,0.0,0.0,0.0,0.0,0.0,0.0,0.0,0.0,0.0,0.0,0.0,0.0,0.0,0.0,0.0,0.0,0.0,0.0,0.0,0.0,3.6894,0.0,0.0,0.0,0.0,0.0,0.0,0.0,0.0,0.0,0.0,0.0,0.0,0.0,0.0,0.0,0.0,0.0,0.0,0.0,0.0,0.0,0.0,0.0,0.0,0.0,0.0,0.0,0.0,0.0,0.0,0.0,0.0,0.0,0.0,0.0,0.0,0.0,0.0,0.0,0.0,0.0,0.0,0.0,0.0,0.0,0.0,0.0,0.0,0.0,0.0,0.0,0.0,0.0,0.0,0.0,0.0,0.0,0.0,0.0,0.0,0.0,0.0,0.0,0.0,0.0,0.0,0.0,0.0,0.0,0.0,0.0,0.0,0.0,0.0,0.0,0.0,0.0,0.0,0.0,0.0,0.0,0.0,0.0,0.0,0.0,0.0,0.0,0.0,0.0,0.0,0.0,0.0,0.0,0.0,0.0,0.0,0.0,0.0,0.0,0.0,0.0,0.0,0.0,0.0,0.0,0.0,0.0,0.0,0.0,0.0,0.0,0.0,0.0,0.0,0.0,0.0,0.0,0.0,0.0,0.0,0.0,0.0,0.0,0.0,0.0,0.0,0.0,0.0,0.0,0.0,0.0,0.0,0.0,0.0,0.0,0.0,0.0,0.0,0.0,0.0,0.0,0.0,0.0,0.0,0.0,0.0,0.0,0.0,0.0,0.0,0.0,0.0,0.0,0.0,0.0,0.0,0.0,0.0,0.0,0.0,0.0,0.0,0.0,0.0,0.0,0.0,0.0,0.0,0.0,0.0,0.0,0.0,0.0,0.0,0.0,0.0,0.0,0.0,0.0,0.0,0.0,0.0,0.0,0.0,0.0,0.0,0.0,0.0,0.0,0.0,0.0,0.0,0.0,0.0,0.0,0.0,0.0,0.0,0.0,0.0,0.0,0.0,0.0,0.0,0.0,0.0,0.0,0.0,0.0,0.0,0.0,0.0,0.0,0.0,0.0,0.0,0.0,0.0,0.0,0.0,0.0,0.0,0.0,0.0,0.0,0.0,0.0,0.0,0.0,0.0,0.0,0.0,0.0,0.0,0.0,0.0,0.0,0.0,0.0,0.0,0.0,0.0,0.0,0.0,0.0,0.0,0.0,0.0,0.0,0.0,0.0,0.0,0.0,0.0,0.0,0.0,0.0,0.0,0.0,0.0,0.0,0.0,0.0,0.0,0.0,0.0,0.0,0.0,0.0,0.0,0.0,0.0,0.0,0.0,0.0,0.0,0.0,0.0,0.0,0.0,0.0,0.0,0.0,0.0,0.0,0.0,0.0,0.0,0.0,0.0,0.0,0.0,0.0,0.0,0.0,0.0,0.0,0.0,0.0,0.0,0.0,0.0,0.0,0.0,0.0,0.0,0.0,0.0,0.0,0.0,0.0,0.0,0.0,0.0,0.0,0.0,0.0,0.0,0.0,0.0,0.0,0.0,0.0,0.0,0.0,0.0,0.0,0.0,0.0,0.0,0.0,0.0,0.0,0.0,0.0,0.0,0.0,0.0,0.0,0.0,0.0,0.0,0.0,0.0,0.0,0.0,0.0,0.0,0.0,0.0,0.0,0.0,0.0,0.0,0.0,0.0,0.0,0.0,0.0,0.0,0.0,0.0,0.0,0.0,0.0,0.0,0.0,0.0,0.0,0.0,0.0,0.0,0.0,0.0,0.0,0.0,0.0,0.0,0.0,0.0,0.0,0.0,0.0,0.0,0.0,0.0,0.0,0.0,0.0,0.0,0.0,0.0,0.0,0.0,0.0,0.0,0.0,0.0,0.0,0.0,0.0,0.0,0.0,0.0,0.0,0.0,0.0,0.0,0.0,0.0,0.0,0.0,0.0,0.0,0.0,0.0,0.0,0.0,0.0,0.0,0.0,0.0,0.0,0.0,0.0,0.0,0.0,0.0,0.0,0.0,0.0,0.0,0.0,0.0,0.0,0.0,0.0,0.0,0.0,0.0,0.0,0.0,0.0,0.0,0.0,0.0,0.0,0.0,0.0,0.0,0.0,0.0,0.0,0.0,0.0,0.0,0.0,0.0,0.0,0.0,0.0,0.0,0.0,0.0,0.0,0.0,0.0,0.0,0.0,0.0,0.0,0.0,0.0,0.0,0.0,0.0,0.0,0.0,0.0,0.0,0.0,0.0,0.0,0.0,0.0,0.0,0.0,0.0,0.0,0.0,0.0,0.0,0.0,0.0,0.0,0.0,0.0,0.0,0.0,0.0,0.0,0.0,0.0,0.0,0.0,0.0,0.0,0.0,0.0,0.0,0.0,0.0,0.0,0.0,0.0,0.0,0.0,0.0,0.0,0.0,0.0,0.0,0.0,0.0,0.0,0.0,0.0,0.0,0.0,0.0,0.0,0.0,0.0,0.0,0.0,0.0,0.0,0.0,0.0,0.0,0.0,0.0,0.0,0.0,0.0,0.0,0.0,0.0,0.0,0.0,0.0,0.0,0.0,0.0,0.0,0.0,0.0,0.0,0.0,0.0,0.0,0.0,0.0,0.0,0.0,0.0,0.0,0.0,0.0,0.0,0.0,0.0,0.0,0.0,0.0,0.0,0.0,0.0,0.0,0.0,0.0,0.0,0.0,0.0,0.0,0.0,0.0,0.0,0.0,0.0,0.0,0.0,0.0,0.0,0.0,0.0,0.0,0.0,0.0,0.0,0.0,0.0,0.0,0.0,0.0,0.0,0.0,0.0,0.0,0.0,0.0,0.0,0.0,0.0,0.0,0.0,0.0,0.0,0.0,0.0,0.0,0.0,0.0,0.0,0.0,0.0,0.0,0.0,0.0,0.0,0.0,0.0,0.0,0.0,0.0,0.0,0.0,0.0,0.0,0.0,0.0,0.0,0.0,0.0,0.0,0.0,0.0,0.0,0.0,0.0,0.0,0.0,0.0,0.0,0.0,0.0,0.0,0.0,0.0,0.0,0.0,0.0,0.0,0.0,0.0,0.0,0.0,0.0,0.0,0.0,0.0,0.0,0.0,0.0,0.0,0.0,0.0,0.0,0.0,0.0,0.0,0.0,0.0,0.0,0.0,0.0,0.0,0.0,0.0,0.0,0.0,0.0,0.0,0.0,0.0,0.0,0.0,0.0,0.0,0.0,0.0,0.0,0.0,0.0,0.0,0.0,0.0,0.0,0.0,0.0,0.0,0.0,0.0,0.0,0.0,0.0,0.0,0.0,0.0,0.0,0.0,0.0,0.0,0.0,0.0,0.0,0.0,0.0,0.0,0.0,0.0,0.0,0.0,0.0,0.0,0.0,0.0,0.0,0.0,0.0,0.0,0.0,0.0,0.0,0.0,0.0,0.0,0.0,0.0,0.0,0.0,0.0,0.0,0.0,0.0,0.0,0.0,0.0,0.0,0.0,0.0,0.0,0.0,0.0,0.0,0.0,0.0,0.0,0.0,0.0,0.0,0.0,0.0,0.0,0.0,0.0,0.0,0.0,0.0,0.0,0.0,0.0,0.0,0.0,0.0,0.0,0.0,0.0,0.0,0.0,0.0,0.0,0.0,0.0,0.0,0.0,0.0,0.0,0.0,0.0,0.0,0.0,0.0,0.0,0.0,0.0,0.0,0.0,0.0,0.0,0.0,0.0,0.0,0.0,0.0,0.0,0.0,0.0,0.0,0.0,0.0,0.0,0.0,0.0,0.0,0.0,0.0,0.0,0.0,0.0,0.0,0.0,0.0,0.0,0.0,0.0,0.0,0.0,0.0,0.0,0.0,0.0,0.0,0.0,0.0,0.0,0.0,0.0,0.0,0.0,0.0,0.0,0.0,0.0,0.0,0.0,0.0,0.0,0.0,0.0,0.0,0.0,0.0,0.0,0.0,0.0,0.0,0.0,0.0,0.0,0.0,0.0,0.0,0.0,0.0,0.0,0.0,0.0,0.0,0.0,0.0,0.0,0.0,0.0,0.0,0.0,0.0,0.0,0.0,0.0,0.0,0.0,0.0,0.0,0.0,0.0,0.0,0.0,0.0,0.0,0.0,0.0,0.0,0.0,0.0,0.0,0.0,0.0,0.0,0.0,0.0,0.0,0.0,0.0,0.0,0.0,0.0,0.0,0.0,0.0,0.0,0.0,0.0,0.0,0.0,0.0,0.0,0.0,0.0,0.0,0.0,0.0,0.0,0.0,0.0,0.0,0.0,0.0,0.0,0.0,0.0,0.0,0.0,0.0,0.0,0.0,0.0,0.0,0.0,0.0,0.0,0.0,0.0,0.0,0.0,0.0,0.0,0.0,0.0,0.0,0.0,0.0,0.0,0.0,0.0,0.0,0.0,0.0,0.0,0.0,0.0,0.0,0.0,0.0,0.0,0.0,0.0,0.0,0.0,0.0,0.0,0.0,0.0,0.0,0.0,0.0,0.0,0.0]}],[{"header":{"parameterUnit":"kt","parameterCategory":2,"dx":1,"dy":1,"la1":29.587661999999998,"la2":31.0,"lo1":-88.76705300000003,"lo2":-86.6583820000003,"nx":115,"ny":88,"refTime":"2022-10-04T00:00:00:Z","depth":0,"parameterNumber":2,"parameterNumberName":"V-component_of_WINDS"},"data":[7.2827,7.2827,7.2827,7.2795,7.2762,7.2762,7.2827,7.2827,7.2762,7.2425,7.1786,7.1967,7.0509,6.7248,6.6825,6.7402,6.8833,6.9446,6.9932,7.018,7.0061,6.9928,6.9734,6.9515,7.1346,7.1663,7.15,7.242,7.1823,7.1934,7.2327,7.244,7.1135,7.0568,7.0495,6.9798,6.8627,6.8539,6.8502,6.8238,6.7553,6.6277,6.4855,6.3627,6.1974,6.0912,5.9671,5.7675,5.6912,5.6704,5.719,5.7787,5.8433,5.9077,5.969,6.0181,6.0402,5.9855,5.9296,5.9027,5.8483,5.7742,5.7315,5.7652,5.7867,5.8327,5.8724,5.9336,5.9587,5.8719,5.9137,6.0449,6.1118,6.1356,6.0972,6.1375,6.1584,6.0715,5.9882,5.9646,5.9452,5.9347,5.9259,5.9025,5.9451,5.8915,5.8259,5.7692,5.7097,5.7831,5.8318,5.7523,5.6572,5.5837,5.4983,5.3475,5.2749,5.2251,5.1988,5.2641,5.2676,5.2026,5.1876,5.253,5.2465,5.2272,5.2377,5.2852,5.2614,5.2667,5.2245,5.2008,5.2245,5.243,5.243,6.9934,6.9803,6.9868,6.9868,6.9714,6.9868,6.9934,6.9934,6.9868,6.9846,6.9668,6.8201,6.5795,6.4973,6.5263,6.5957,6.6976,6.8517,6.7933,6.8012,6.8442,6.8482,6.804,6.7564,6.8582,6.8995,6.8962,6.9577,7.0273,6.9258,6.9075,6.9359,6.8712,6.8003,6.8156,6.7838,6.7303,6.7239,6.679,6.6473,6.5421,6.4149,6.358,6.2669,6.1272,6.0159,5.9296,5.804,5.6792,5.6672,5.6734,5.7458,5.8162,5.8944,5.9662,6.0241,6.0407,6.0153,5.9603,5.8986,5.8215,5.7579,5.6948,5.6702,5.6763,5.704,5.7376,5.8008,5.8726,5.8956,5.9469,6.0278,6.075,6.1022,6.0106,5.9541,5.9736,5.9642,5.9006,5.8611,5.8373,5.8087,5.762,5.6832,5.6496,5.5927,5.5444,5.483,5.488,5.603,5.6691,5.6029,5.54,5.4654,5.3891,5.2979,5.2411,5.1848,5.1227,5.2228,5.2668,5.1562,5.1141,5.1491,5.1607,5.1533,5.1639,5.1375,5.177,5.2008,5.1586,5.1243,5.1322,5.1138,5.1138,6.9276,6.9276,6.9276,6.9276,6.9276,6.9276,6.9276,6.9276,6.9276,6.9276,6.9025,6.8205,6.7354,6.7038,6.7322,6.8019,6.8205,6.8773,6.8107,6.8042,6.8616,6.7828,6.7925,6.8348,6.8109,6.8264,6.8323,6.8258,6.898,6.7746,6.6867,6.7373,6.8421,6.7998,6.6943,6.6764,6.6304,6.5908,6.4983,6.4532,6.3925,6.3421,6.3006,6.2383,6.1266,6.0186,5.914,5.7858,5.6912,5.6548,5.6548,5.7372,5.8042,5.9306,6.0182,6.059,6.0977,6.0919,6.0083,5.9246,5.8537,5.7726,5.7009,5.661,5.6548,5.6703,5.704,5.74,5.8155,5.8944,5.9484,6.0222,6.0743,6.0988,6.0368,5.9895,5.9928,6.0035,5.9772,5.9499,5.9313,5.901,5.8312,5.7556,5.689,5.6482,5.6207,5.5961,5.4802,5.492,5.4836,5.448,5.404,5.3444,5.2563,5.2064,5.1857,5.109,5.0147,5.0635,5.0827,5.0392,5.0089,4.9916,4.9984,5.0373,5.032,4.9845,5.0083,5.0663,5.0584,5.0425,5.0109,4.9845,4.9792,6.9276,6.9276,6.9276,6.9276,6.9276,6.9276,6.9276,6.9123,6.8741,6.7758,6.7006,6.669,6.6157,6.4965,6.5343,6.5843,6.6658,6.6908,6.8172,6.814,6.8872,6.8784,6.9123,6.8882,6.9068,6.9276,6.9276,6.9068,6.8992,6.8042,6.7006,6.7191,6.8019,6.8532,6.7419,6.7266,6.6522,6.5411,6.3273,6.112,6.0993,6.133,6.1393,6.0773,6.0249,5.8957,5.8347,5.7338,5.6912,5.6548,5.6548,5.6887,5.7491,5.9499,6.0251,6.0377,6.0837,6.0737,6.0142,5.9365,5.8558,5.7752,5.707,5.6795,5.6671,5.6795,5.7009,5.7309,5.7837,5.8638,5.9277,6.0055,6.0784,6.1046,6.1046,6.1046,6.1075,6.1133,6.1133,6.1104,6.1104,6.0639,5.9912,5.9147,5.8368,5.7654,5.7156,5.6275,5.4929,5.4273,5.4486,5.3493,5.2998,5.2406,5.1349,5.0768,5.0875,5.0278,5.0172,4.945,4.8878,4.9283,4.977,4.904,4.8606,4.9054,4.9212,4.8738,4.8711,4.9054,4.9186,4.9423,4.9186,4.9186,4.8869,6.9276,6.9276,6.9276,6.9276,6.9276,6.9276,6.9276,6.9025,6.7256,6.4402,6.1697,6.0956,6.0589,6.102,6.1824,6.2256,6.3311,6.5214,6.6343,6.6278,6.7507,6.8205,6.8391,6.9058,6.8074,6.8741,6.8773,6.7758,6.8489,6.7572,6.6876,6.8959,6.8708,6.7791,6.6941,6.6941,6.5907,6.4104,6.0993,5.8378,5.795,5.74,5.7035,5.7369,5.7218,5.7005,5.6912,5.6761,5.6548,5.6548,5.6548,5.6579,5.7252,5.8357,5.9288,5.9772,6.0422,6.0319,5.973,5.9081,5.8387,5.7787,5.704,5.6763,5.6734,5.6826,5.6855,5.706,5.7456,5.8158,5.8625,5.9312,5.9788,6.0086,6.0232,6.0261,6.0261,6.0232,6.0232,6.0452,6.0393,6.016,5.9488,5.8719,5.7624,5.7346,5.6696,5.5803,5.487,5.4621,5.3853,5.2542,5.2349,5.1991,5.074,4.9963,4.9981,5.0199,5.0489,4.9986,4.8825,4.9043,4.9477,4.9043,4.8606,4.8606,4.8606,4.8632,4.8658,4.8606,4.8606,4.8606,4.8632,4.8738,4.8606,6.9276,6.9276,6.9276,6.9276,6.9276,6.9276,6.9276,6.8806,6.6973,6.5399,6.3559,6.2192,6.1298,6.0374,6.0956,6.1482,6.1513,6.3375,6.4185,6.437,6.4932,6.5713,6.556,6.5311,6.5866,6.5375,6.5279,6.5584,6.3495,6.3407,6.384,6.4153,6.5029,6.4466,6.4153,6.4089,6.3311,6.1761,6.0034,5.8133,5.7218,5.6761,5.6579,5.6761,5.6761,5.67,5.6669,5.67,5.6548,5.6548,5.6548,5.6734,5.7431,5.7281,5.7817,5.8345,5.9259,5.9435,5.898,5.8478,5.8065,5.767,5.704,5.6732,5.6673,5.6795,5.673,5.6845,5.7232,5.763,5.7918,5.833,5.866,5.9118,5.9039,5.9097,5.9097,5.9097,5.9205,5.9421,5.9304,5.9128,5.8649,5.777,5.7111,5.6507,5.5853,5.5115,5.482,5.4592,5.3534,5.2173,5.1851,5.1541,5.0253,4.9226,4.9262,4.9342,4.9772,4.9665,4.9043,4.8825,4.8934,4.8825,4.8606,4.8606,4.8606,4.8606,4.8606,4.8606,4.8606,4.8496,4.8496,4.8364,4.8149,6.9276,6.9276,6.9276,6.9276,6.9178,6.8783,6.8445,6.8107,6.6876,6.5648,6.4997,6.3031,6.1577,6.2008,6.1393,6.102,6.1235,6.164,6.1976,6.2655,6.3391,6.3359,6.3598,6.3901,6.3739,6.3772,6.3534,6.3405,6.1794,6.1172,6.1266,6.071,6.3031,6.2599,6.1482,5.9662,5.9417,5.8806,5.8774,5.7582,5.6882,5.6548,5.6548,5.6548,5.6548,5.6548,5.6548,5.6548,5.6548,5.6548,5.6548,5.6703,5.737,5.6887,5.6826,5.7156,5.7901,5.8456,5.7868,5.7591,5.7419,5.722,5.6887,5.661,5.6581,5.6521,5.6427,5.6637,5.6862,5.7262,5.7692,5.7808,5.8079,5.8463,5.8817,5.8742,5.8456,5.8456,5.8561,5.8637,5.8426,5.8192,5.8066,5.7315,5.662,5.5656,5.5005,5.4694,5.442,5.4273,5.3407,5.2167,5.1566,5.1074,4.9919,4.8966,4.8804,4.8606,4.8825,4.8825,4.8606,4.8606,4.8606,4.8606,4.8606,4.8606,4.8606,4.8606,4.8606,4.8606,4.8421,4.8391,4.8254,4.7616,4.7272,6.9211,6.9276,6.9244,6.9112,6.8915,6.7633,6.6851,6.618,6.6083,6.4836,6.2999,6.0925,5.9971,5.9542,5.7889,5.7369,5.7675,5.9265,5.9725,6.0489,6.1556,6.2557,6.3127,6.335,6.2804,6.3616,6.3415,6.2,6.3998,6.1881,6.145,6.2103,6.1608,6.1513,6.0495,5.8868,5.7369,5.7369,5.7338,5.7125,5.673,5.6548,5.6548,5.6548,5.6548,5.6548,5.6548,5.6548,5.6548,5.6548,5.6548,5.6579,5.661,5.6548,5.707,5.748,5.7742,5.7503,5.7096,5.7082,5.6966,5.6796,5.664,5.6579,5.6672,5.6826,5.6519,5.6487,5.6483,5.6992,5.7289,5.7299,5.7334,5.7623,5.8129,5.8016,5.777,5.7668,5.7741,5.7682,5.7419,5.7374,5.7175,5.6997,5.6453,5.5777,5.548,5.4991,5.4279,5.406,5.3543,5.2177,5.1282,5.0785,5.0063,4.9369,4.8934,4.8606,4.8606,4.8606,4.8606,4.8606,4.8606,4.8606,4.8606,4.8606,4.8606,4.8606,4.8579,4.8289,4.8025,4.7838,4.7204,4.6594,4.6093,6.6416,6.6416,6.6416,6.6449,6.635,6.589,6.561,6.5079,6.3438,6.2279,6.1206,5.8921,5.7827,5.7613,5.6912,5.6548,5.67,5.7462,5.7796,5.7916,5.8947,5.9463,5.9463,5.9155,6.0348,5.933,5.9186,5.9431,6.008,5.9224,5.914,5.9234,5.8654,5.9265,5.8806,5.795,5.6548,5.6548,5.6548,5.6548,5.6548,5.6548,5.6548,5.6548,5.6548,5.6548,5.6548,5.6548,5.6548,5.6548,5.6548,5.6579,5.6579,5.6579,5.6672,5.6735,5.6781,5.6471,5.6385,5.6452,5.6733,5.6579,5.6579,5.6548,5.6611,5.6673,5.6368,5.6276,5.6059,5.6084,5.608,5.6208,5.6136,5.5939,5.6268,5.6328,5.6164,5.6253,5.6253,5.643,5.634,5.637,5.6316,5.622,5.6178,5.6065,5.5891,5.5025,5.4124,5.4012,5.364,5.2322,5.1324,5.0684,5.0001,4.9396,4.9047,4.8689,4.8606,4.8579,4.8553,4.8372,4.8474,4.8606,4.8553,4.8527,4.8579,4.85,4.8342,4.8078,4.7417,4.6653,4.6049,4.563,4.5238,6.4904,6.4904,6.4904,6.4377,6.3588,6.3983,6.418,6.392,6.2902,6.2224,6.1648,5.9267,5.797,5.7575,5.7304,5.6548,5.6548,5.6548,5.6548,5.6669,5.7207,5.6845,5.7203,5.7859,5.7765,5.726,5.7053,5.7415,5.7141,5.7153,5.691,5.6786,5.7335,5.6638,5.6548,5.6548,5.6548,5.6548,5.6548,5.6548,5.6548,5.6548,5.6548,5.6548,5.6548,5.6548,5.6548,5.6548,5.6548,5.6548,5.6548,5.6548,5.6548,5.6548,5.6579,5.6489,5.6125,5.5759,5.5851,5.6246,5.6548,5.6548,5.6548,5.6548,5.6548,5.6246,5.6125,5.6095,5.6186,5.6094,5.5727,5.5911,5.5911,5.5665,5.5572,5.5572,5.5448,5.5448,5.5448,5.5697,5.5604,5.5659,5.5936,5.5993,5.5711,5.5531,5.4591,5.3697,5.2763,5.2914,5.2658,5.1464,5.1008,5.0384,5.0024,4.9399,4.8905,4.8054,4.7765,4.8084,4.8189,4.8164,4.8083,4.7815,4.8105,4.8342,4.7735,4.7313,4.763,4.7178,4.5942,4.5081,4.4352,4.3886,4.3579,6.4706,6.4838,6.4706,6.3161,6.1155,6.2142,6.2779,6.2799,6.3624,6.4002,6.3429,6.1424,6.0221,5.9709,5.7747,5.7084,5.6964,5.6906,5.6906,5.6964,5.7285,5.7429,5.7602,5.7806,5.7751,5.8263,5.772,5.746,5.8263,5.7053,5.6964,5.7022,5.6786,5.6548,5.6548,5.6548,5.6548,5.6548,5.6548,5.6548,5.6548,5.6548,5.6548,5.6548,5.6548,5.6548,5.6548,5.6548,5.6548,5.6548,5.6548,5.6548,5.6548,5.6548,5.6548,5.6548,5.6155,5.5851,5.5851,5.6246,5.6548,5.6548,5.6548,5.6548,5.6518,5.6548,5.6458,5.6337,5.6458,5.6458,5.6548,5.6548,5.6458,5.6368,5.6368,5.6277,5.5973,5.5881,5.5881,5.5973,5.5634,5.5355,5.5574,5.5606,5.5268,5.4327,5.327,5.221,5.1238,5.0773,5.0464,4.979,5.0066,4.9489,4.8968,4.8863,4.8323,4.7329,4.682,4.7087,4.7229,4.7207,4.7103,4.6918,4.6917,4.697,4.6496,4.5996,4.5366,4.4741,4.3836,4.327,4.2519,4.185,4.099,6.1912,6.1912,6.1912,6.1385,6.0728,6.1057,6.1287,6.1353,6.1846,6.1676,6.1133,6.0075,5.9403,5.9224,5.8273,5.8008,5.7923,5.8008,5.7977,5.7891,5.7688,5.7516,5.7429,5.7429,5.7665,5.7141,5.6964,5.7022,5.7491,5.6875,5.6786,5.6786,5.6607,5.6638,5.6548,5.6548,5.6548,5.6548,5.6548,5.6548,5.6548,5.6548,5.6548,5.6548,5.6548,5.6548,5.6548,5.6548,5.6548,5.6548,5.6548,5.6548,5.6548,5.6548,5.6548,5.6518,5.6427,5.6337,5.6337,5.6518,5.6548,5.6548,5.6548,5.6548,5.6548,5.6548,5.6548,5.6548,5.6548,5.6548,5.6548,5.6548,5.6548,5.6548,5.6548,5.6548,5.6337,5.6246,5.6246,5.6185,5.6064,5.5821,5.5881,5.5426,5.4517,5.3013,5.1872,5.0756,4.9729,4.9054,4.8503,4.8496,4.8953,4.8577,4.7961,4.7799,4.7591,4.6555,4.5905,4.6152,4.6101,4.5881,4.5705,4.5707,4.5707,4.5654,4.5364,4.497,4.3901,4.2584,4.1706,4.1131,4.0576,4.0264,3.9134,6.0629,6.0629,6.0629,6.0629,6.0629,6.0629,6.0629,6.0629,6.0629,6.0399,6.0153,5.9419,5.9095,5.9013,5.893,5.8714,5.8714,5.8714,5.8714,5.8515,5.8316,5.803,5.7891,5.772,5.7285,5.7491,5.7491,5.7404,5.7229,5.711,5.6964,5.6638,5.6638,5.6548,5.6548,5.6548,5.6548,5.6548,5.6548,5.6548,5.6548,5.6548,5.6548,5.6548,5.6548,5.6548,5.6548,5.6548,5.6548,5.6548,5.6548,5.6548,5.6548,5.6548,5.6548,5.6548,5.6548,5.6548,5.6548,5.6548,5.6548,5.6548,5.6548,5.6548,5.6548,5.6548,5.6548,5.6548,5.6548,5.6548,5.6548,5.6548,5.6548,5.6548,5.6548,5.6548,5.6548,5.6458,5.6427,5.6184,5.6093,5.6029,5.5575,5.4878,5.3043,5.1551,5.039,4.9318,4.8314,4.7526,4.6832,4.6656,4.7549,4.7444,4.637,4.6493,4.6687,4.5825,4.4994,4.5114,4.5074,4.4739,4.4518,4.4702,4.4755,4.4286,4.3996,4.3838,4.3338,4.2329,4.1053,3.9723,3.9131,3.8805,3.8097,6.0629,6.0629,6.0629,6.0629,6.0629,6.0629,6.0629,6.0629,6.0629,6.0629,6.0476,6.0055,5.966,5.958,5.9208,5.893,5.8714,5.8797,5.8797,5.8682,5.8599,5.8316,5.8263,5.8178,5.8178,5.8178,5.7923,5.8008,5.8263,5.7342,5.7198,5.6697,5.6607,5.6638,5.6548,5.6548,5.6548,5.6548,5.6548,5.6548,5.6548,5.6548,5.6548,5.6548,5.6548,5.6548,5.6548,5.6548,5.6548,5.6548,5.6548,5.6548,5.6548,5.6548,5.6548,5.6548,5.6548,5.6548,5.6548,5.6548,5.6548,5.6548,5.6548,5.6548,5.6548,5.6548,5.6548,5.6548,5.6548,5.6548,5.6548,5.6548,5.6548,5.6548,5.6548,5.6548,5.6548,5.6548,5.6456,5.6183,5.5848,5.5483,5.5,5.1759,4.9687,4.9275,4.8273,4.7421,4.6519,4.6174,4.5429,4.5429,4.6287,4.6084,4.5025,4.4959,4.5451,4.4964,4.4308,4.4179,4.3973,4.3781,4.3473,4.3508,4.3463,4.2935,4.2444,4.209,4.1765,4.1527,4.0858,3.9403,3.8509,3.803,3.7318,6.0629,6.0629,6.0629,6.0629,6.0629,6.0629,6.0629,6.0629,6.0629,6.0629,6.0553,6.0476,6.0055,5.9819,5.993,5.958,5.8848,5.9257,5.9095,5.8599,5.8232,5.7945,5.7891,5.7491,5.7317,5.7053,5.7578,5.7404,5.7373,5.7342,5.7429,5.7342,5.6786,5.6638,5.6548,5.6548,5.6548,5.6548,5.6548,5.6548,5.6548,5.6548,5.6548,5.6548,5.6548,5.6548,5.6548,5.6548,5.6548,5.6548,5.6548,5.6548,5.6548,5.6548,5.6548,5.6548,5.6548,5.6548,5.6548,5.6548,5.6548,5.6548,5.6548,5.6548,5.6548,5.6548,5.6548,5.6548,5.6548,5.6548,5.6548,5.6548,5.6548,5.6548,5.6548,5.6548,5.6548,5.6548,5.6487,5.597,5.5483,5.5089,5.3043,4.9275,4.7578,4.7171,4.6358,4.5518,4.5231,4.5001,4.4747,4.4832,4.5344,4.5054,4.4571,4.4455,4.4366,4.4121,4.3642,4.3294,4.298,4.2751,4.2641,4.2414,4.2171,4.1796,4.1491,4.0583,3.9795,3.9893,3.9697,3.8609,3.8006,3.7421,3.6908,6.0629,6.0629,6.0629,6.0629,6.0629,6.0629,6.0629,6.0629,6.0629,6.0629,6.0629,6.0629,6.0476,6.0244,6.0476,6.0133,5.9851,5.993,5.9772,5.9176,5.8733,5.8368,5.7977,5.7665,5.7491,5.7665,5.7491,5.7141,5.6697,5.6933,5.7079,5.7022,5.6786,5.6548,5.6548,5.6548,5.6548,5.6548,5.6548,5.6548,5.6548,5.6548,5.6548,5.6548,5.6548,5.6548,5.6548,5.6548,5.6548,5.6548,5.6548,5.6548,5.6548,5.6548,5.6548,5.6548,5.6607,5.6607,5.6548,5.6548,5.6548,5.6548,5.6548,5.6548,5.6548,5.6548,5.6548,5.6548,5.6548,5.6548,5.6548,5.6548,5.6548,5.6548,5.6548,5.6548,5.6548,5.6548,5.6456,5.5787,5.515,5.4576,5.3252,5.0365,4.8571,4.7578,4.6099,4.5263,4.4747,4.449,4.449,4.449,4.4402,4.4342,4.4342,4.4138,4.3988,4.354,4.3032,4.2574,4.2111,4.1925,4.1896,4.1775,4.1533,4.1032,4.0526,3.999,3.9526,3.9008,3.8509,3.8309,3.8107,3.7523,3.7113,6.0629,6.0629,6.0629,6.0629,6.0629,6.0629,6.0629,6.0629,6.0629,6.0629,6.0629,6.0629,6.0629,6.0476,6.0443,6.0211,5.9977,5.9819,5.95,5.8816,5.8733,5.8484,5.8348,5.8432,5.8008,5.7837,5.8094,5.7665,5.6875,5.6638,5.6638,5.6638,5.6638,5.6548,5.6548,5.6548,5.6548,5.6548,5.6548,5.6548,5.6548,5.6548,5.6548,5.6548,5.6548,5.6548,5.6548,5.6548,5.6423,5.6423,5.6454,5.6546,5.6423,5.6454,5.6487,5.6423,5.6362,5.6392,5.6607,5.6548,5.6548,5.6548,5.6548,5.6548,5.6548,5.6548,5.6548,5.6548,5.6548,5.6548,5.6548,5.6548,5.6548,5.6548,5.6548,5.6548,5.6548,5.6548,5.6548,5.5909,5.3732,5.3252,5.2983,5.1135,4.9363,4.7521,4.5927,4.5093,4.449,4.449,4.449,4.449,4.4402,4.4314,4.4314,4.3754,4.3394,4.2849,4.2482,4.2018,4.1831,4.1711,4.1617,4.1239,4.1049,4.0667,3.999,3.9526,3.923,3.8734,3.8131,3.803,3.8006,3.7804,3.7397,6.0629,6.0629,6.0629,6.0629,6.0629,6.0629,6.0629,6.0629,6.0629,6.0629,6.0629,6.0629,6.0629,6.0399,5.966,5.8567,5.746,5.82,5.8115,5.7688,5.7633,5.7285,5.7053,5.6964,5.7141,5.7317,5.7229,5.6906,5.6638,5.6548,5.6548,5.6548,5.6548,5.6548,5.6548,5.6548,5.6548,5.6548,5.6548,5.6548,5.6548,5.6548,5.6548,5.6548,5.6548,5.6548,5.6548,5.6548,5.6266,5.5985,5.6078,5.6205,5.579,5.6143,5.6174,5.566,5.5544,5.5938,5.6263,5.6454,5.6359,5.6392,5.6577,5.6487,5.6546,5.6423,5.6546,5.6548,5.6548,5.6548,5.6548,5.6548,5.6548,5.6548,5.6548,5.6548,5.6548,5.6548,5.6548,5.5241,5.2474,5.1461,5.1164,4.9657,4.7958,4.607,4.5322,4.449,4.449,4.449,4.449,4.449,4.4402,4.4314,4.396,4.3367,4.2639,4.2177,4.1711,4.1239,4.1239,4.1334,4.0928,4.0449,4.0352,3.9893,3.9428,3.8933,3.8534,3.8232,3.7726,3.7523,3.7523,3.7318,3.7318,6.0629,6.0629,6.0629,6.0629,6.0629,6.0629,6.0629,6.0629,6.0629,6.0629,6.0629,6.0629,6.0629,6.0476,5.9819,5.9306,5.8867,5.8949,5.8619,5.8232,5.8062,5.7806,5.7079,5.711,5.6845,5.6697,5.6875,5.6933,5.6607,5.6638,5.6548,5.6548,5.6548,5.6548,5.6548,5.6548,5.6548,5.6548,5.6548,5.6548,5.6548,5.6548,5.6548,5.6548,5.6548,5.6548,5.6548,5.6548,5.6328,5.595,5.5888,5.5635,5.5343,5.5242,5.5015,5.4652,5.4567,5.4746,5.5171,5.5219,5.5505,5.579,5.5467,5.5412,5.579,5.5919,5.5857,5.5985,5.617,5.6548,5.6546,5.6548,5.6548,5.6548,5.6548,5.6548,5.6548,5.6548,5.6548,5.6213,5.3914,5.2206,5.0898,4.863,4.6649,4.5495,4.4691,4.449,4.449,4.449,4.449,4.449,4.449,4.4226,4.3574,4.2704,4.1845,4.1402,4.0928,4.0474,4.0378,4.0281,3.999,3.9574,3.9082,3.8609,3.8333,3.8131,3.7828,3.7523,3.7318,3.7216,3.701,3.6908,3.701,6.0781,6.0781,6.0705,6.0629,6.0629,6.0629,6.0629,6.0629,6.0629,6.0629,6.0629,6.0629,6.0629,6.0553,6.0553,6.0399,5.9977,5.9707,5.966,5.9257,5.9176,5.8733,5.786,5.7774,5.7547,5.7198,5.7373,5.7342,5.6933,5.6666,5.6697,5.6638,5.6548,5.6548,5.6548,5.6548,5.6548,5.6548,5.6548,5.6548,5.6548,5.6548,5.6548,5.6548,5.6548,5.6548,5.6548,5.6518,5.6362,5.6108,5.5536,5.5055,5.4465,5.3711,5.3476,5.3523,5.3538,5.3791,5.4103,5.4057,5.4304,5.461,5.4423,5.436,5.4725,5.4984,5.4984,5.5148,5.5598,5.5985,5.6139,5.642,5.6485,5.6362,5.6362,5.6548,5.6546,5.6362,5.6236,5.6334,5.5333,5.3853,5.1105,4.8512,4.6475,4.4948,4.4519,4.449,4.449,4.449,4.449,4.449,4.449,4.3932,4.3394,4.2428,4.1564,4.1213,4.0928,4.0449,3.9893,3.9526,3.8933,3.8409,3.7905,3.7726,3.7523,3.7216,3.7113,3.7216,3.7113,3.701,3.6908,3.6908,3.6908,6.1345,6.1272,6.0857,6.0629,6.0629,6.0629,6.0629,6.0629,6.0629,6.0629,6.0629,6.0629,6.0629,6.0553,6.0166,5.9819,5.9739,5.95,5.9419,5.9176,5.9144,5.893,5.8682,5.8567,5.8484,5.8432,5.8432,5.7977,5.7429,5.7342,5.6933,5.6638,5.6548,5.6548,5.6548,5.6548,5.6548,5.6548,5.6548,5.6548,5.6548,5.6548,5.6548,5.6548,5.6548,5.6548,5.6548,5.6515,5.5919,5.4423,5.4829,5.4254,5.3033,5.1974,5.1672,5.2546,5.2577,5.2877,5.33,5.3616,5.3757,5.3977,5.3837,5.3852,5.3946,5.4022,5.4022,5.4147,5.4348,5.4548,5.436,5.5436,5.5919,5.5728,5.6139,5.6515,5.6454,5.5826,5.5924,5.5904,5.4426,5.2683,5.0365,4.8425,4.6361,4.4663,4.4519,4.449,4.449,4.449,4.449,4.449,4.449,4.411,4.3781,4.2913,4.1965,4.159,4.1308,4.0737,4.0062,3.9501,3.8908,3.7905,3.7216,3.7216,3.701,3.6908,3.6908,3.6908,3.6908,3.6908,3.6908,3.6908,3.6908,6.1822,6.1751,6.1238,6.1049,6.0974,6.0781,6.0629,6.0629,6.0629,6.0629,6.0629,6.0629,6.0629,6.0629,6.0321,6.0133,6.0055,5.9819,5.9739,5.966,5.966,5.958,5.9338,5.95,5.9338,5.8714,5.8797,5.8008,5.7285,5.6933,5.6933,5.6638,5.6548,5.6548,5.6548,5.6548,5.6548,5.6548,5.6548,5.6548,5.6548,5.6548,5.6548,5.6548,5.6548,5.6548,5.6607,5.6548,5.5795,5.4891,5.4485,5.3602,5.1887,5.1213,5.1149,5.1488,5.1547,5.188,5.2111,5.2334,5.2548,5.2952,5.2546,5.263,5.2857,5.3047,5.3047,5.3128,5.3523,5.3869,5.3883,5.4881,5.4829,5.4621,5.4912,5.5312,5.5759,5.595,5.5897,5.4604,5.3251,5.1491,4.9598,4.8045,4.6187,4.475,4.4578,4.449,4.449,4.449,4.449,4.449,4.449,4.4314,4.4049,4.3304,4.227,4.1684,4.1118,4.0352,3.9451,3.8983,3.8685,3.8006,3.7113,3.6908,3.6908,3.6908,3.6908,3.6908,3.6908,3.6908,3.6908,3.6804,3.6701,6.2415,6.2381,6.1822,6.157,6.1531,6.1049,6.0857,6.0748,6.0705,6.0629,6.0629,6.0629,6.0629,6.0629,6.0629,6.0629,6.0553,6.0553,6.0629,6.0629,6.0629,6.0289,6.0055,6.0289,6.0055,5.95,5.9176,5.84,5.7404,5.7229,5.6964,5.6728,5.6548,5.6548,5.6548,5.6548,5.6548,5.6548,5.6548,5.6548,5.6548,5.6548,5.6548,5.6548,5.6548,5.6515,5.6389,5.6423,5.5919,5.4788,5.3789,5.2744,5.1399,5.0898,5.093,5.0994,5.1,5.0967,5.093,5.1155,5.1271,5.1878,5.1584,5.1207,5.1974,5.1964,5.1964,5.2187,5.2757,5.3065,5.3397,5.3696,5.3806,5.3806,5.3959,5.4454,5.4621,5.5148,5.4839,5.3922,5.297,5.1663,4.8629,4.7667,4.6219,4.5154,4.4637,4.449,4.449,4.449,4.449,4.449,4.449,4.4402,4.396,4.3123,4.2177,4.1402,4.0449,3.9476,3.8284,3.7601,3.7905,3.7523,3.701,3.6908,3.6908,3.6908,3.6908,3.6908,3.6908,3.6908,3.6908,3.6598,3.6494,6.3089,6.2988,6.2381,6.214,6.2104,6.157,6.1312,6.1238,6.0974,6.0705,6.0748,6.0705,6.0748,6.0629,6.0781,6.0629,6.0629,6.0629,6.0629,6.0629,6.0629,6.0553,6.0399,6.0629,6.0399,6.0055,6.0399,5.9419,5.8263,5.8178,5.7751,5.6906,5.6548,5.6548,5.6548,5.6548,5.6548,5.6548,5.6548,5.6548,5.6548,5.6548,5.6548,5.6548,5.6548,5.6205,5.5795,5.5826,5.525,5.2744,5.2503,5.1964,5.1181,5.0935,5.0935,5.0935,5.0935,5.0935,5.0935,5.0935,5.1096,5.1225,5.1128,5.0994,5.1225,5.1316,5.1316,5.1348,5.1149,5.1791,5.2356,5.3286,5.3191,5.2839,5.3991,5.3991,5.3159,5.2681,5.2909,5.3099,5.155,5.0558,4.8998,4.7448,4.5615,4.4811,4.4666,4.4578,4.449,4.449,4.449,4.4402,4.4314,4.4314,4.3692,4.2941,4.1898,4.1118,4.0062,3.8784,3.7601,3.7216,3.7216,3.7216,3.701,3.6908,3.6908,3.6908,3.6908,3.6908,3.6908,3.6908,3.6908,3.6701,3.639,6.3607,6.3607,6.2954,6.2754,6.2687,6.2138,6.1893,6.1822,6.1642,6.157,6.157,6.1536,6.1352,6.1124,6.1124,6.0899,6.0629,6.0629,6.0629,6.0629,6.0596,6.0563,6.0596,6.0629,6.0244,5.966,5.95,5.8733,5.7751,5.7491,5.7229,5.6728,5.6548,5.6548,5.6548,5.6548,5.6548,5.6548,5.6548,5.6548,5.6548,5.6548,5.6548,5.6518,5.6607,5.617,5.525,5.5077,5.3977,5.2208,5.1986,5.1858,5.1058,5.0935,5.0935,5.0935,5.0935,5.0935,5.0935,5.1211,5.1347,5.1415,5.1718,5.1752,5.1752,5.1518,5.1415,5.1315,5.1074,5.1155,5.1552,5.1887,5.1919,5.1791,5.2681,5.3159,5.2408,5.2744,5.2722,5.1715,5.0529,4.9164,4.7576,4.6073,4.51,4.487,4.4753,4.4666,4.449,4.449,4.4431,4.4021,4.3843,4.3664,4.3214,4.227,4.1334,4.1049,4.0087,3.8609,3.7702,3.7216,3.7216,3.701,3.701,3.6908,3.6908,3.6908,3.6908,3.6908,3.6908,3.6908,3.6908,3.6781,3.6494,6.4254,6.4071,6.3699,6.3479,6.3285,6.272,6.2449,6.2415,6.2312,6.214,6.2209,6.2209,6.1964,6.1642,6.1531,6.1272,6.0899,6.0705,6.0629,6.0673,6.0452,6.0188,6.0103,6.0399,6.0133,5.95,5.9387,5.8484,5.7229,5.7317,5.7053,5.6638,5.6548,5.6548,5.6548,5.6548,5.6548,5.6548,5.6548,5.6548,5.6577,5.6389,5.6205,5.6143,5.5862,5.5326,5.4881,5.3865,5.2522,5.1149,5.1664,5.1632,5.1064,5.1004,5.0972,5.0972,5.0935,5.0935,5.1004,5.1279,5.145,5.155,5.1851,5.2176,5.2047,5.1818,5.1684,5.1483,5.1179,5.0898,5.0935,5.0962,5.0962,5.0994,5.1576,5.1932,5.2037,5.2598,5.2546,5.0972,4.9912,4.8756,4.7428,4.6115,4.5329,4.5157,4.4927,4.4753,4.4578,4.449,4.4519,4.3932,4.3664,4.3367,4.2731,4.1804,4.1144,4.0884,3.999,3.8585,3.791,3.7428,3.7145,3.694,3.6823,3.6814,3.6861,3.6823,3.6884,3.6908,3.6804,3.639,3.6494,3.616,3.5722,6.4919,6.4516,6.4422,6.4079,6.3921,6.3277,6.3083,6.3054,6.2585,6.2347,6.2313,6.2211,6.2143,6.2003,6.1349,6.1063,6.1212,6.061,6.0287,6.0172,5.9598,5.9106,5.9042,6.0065,6.0475,6.0333,6.0289,5.9627,5.8432,5.8348,5.7891,5.6875,5.6697,5.6607,5.6666,5.6577,5.6485,5.6392,5.6392,5.6423,5.6423,5.5728,5.5281,5.5343,5.4289,5.3791,5.3646,5.258,5.1615,5.1053,5.1009,5.0977,5.1049,5.1081,5.0822,5.0693,5.0908,5.0843,5.0871,5.1045,5.111,5.1179,5.1652,5.1518,5.145,5.1652,5.1617,5.1279,5.1004,5.0967,5.0935,5.0935,5.1004,5.0967,5.123,5.1257,5.1058,5.1187,5.1192,5.0546,4.9856,4.9168,4.8606,4.726,4.6529,4.6032,4.5471,4.5071,4.4753,4.4666,4.4519,4.4314,4.411,4.3664,4.2941,4.1898,4.1049,4.0788,3.999,3.8884,3.8141,3.7741,3.7339,3.6839,3.6589,3.6753,3.6776,3.6471,3.6526,3.6385,3.612,3.5777,3.535,3.4783,3.415,6.4258,6.4728,6.2803,6.303,6.4642,6.3452,6.3371,6.3906,6.3783,6.3532,6.3071,6.2285,6.1647,6.1152,6.0139,5.9436,5.9101,5.8896,5.8792,5.8693,5.8529,5.8328,5.8259,5.953,6.0347,6.0442,6.0211,5.958,5.8797,5.8714,5.84,5.7891,5.746,5.7136,5.7136,5.6248,5.5728,5.5573,5.5179,5.5117,5.5319,5.4568,5.4258,5.4646,5.3792,5.303,5.2454,5.1466,5.085,5.0764,5.0037,4.9233,4.8426,4.8492,4.8587,4.8779,4.9335,4.9919,5.0084,5.0932,5.1653,5.1719,5.2047,5.224,5.2304,5.1851,5.1784,5.1552,5.1247,5.0935,5.1041,5.0972,5.1315,5.1785,5.1653,5.1485,5.1279,5.1179,5.0875,5.0635,4.9998,4.9563,4.8982,4.7881,4.6663,4.65,4.5864,4.5157,4.51,4.4928,4.4609,4.4318,4.3918,4.3216,4.2778,4.2031,4.1092,4.0244,3.9539,3.856,3.7753,3.7312,3.6818,3.6302,3.5926,3.5965,3.5942,3.5885,3.5792,3.5451,3.5215,3.4975,3.4844,3.4033,3.3159,6.337,6.3875,6.1817,6.2134,6.3621,6.275,6.2559,6.3179,6.3271,6.3079,6.2531,6.1473,6.081,6.0233,5.926,5.844,5.8027,5.7177,5.6741,5.6747,5.7245,5.729,5.7375,5.8428,5.9229,5.9306,5.9296,5.9207,5.8998,5.9013,5.8529,5.7963,5.7421,5.6896,5.6141,5.5391,5.4673,5.4413,5.3904,5.3954,5.4424,5.3386,5.3106,5.3689,5.2843,5.2031,5.1328,5.0777,5.0457,5.0143,4.9322,4.82,4.726,4.7184,4.7302,4.7423,4.8251,4.8774,4.8965,4.9878,5.053,5.0788,5.1743,5.234,5.2374,5.244,5.2712,5.2521,5.211,5.1818,5.1818,5.1719,5.2012,5.2757,5.2054,5.1413,5.1157,5.054,5.0345,5.0439,4.9855,4.9554,4.9488,4.8498,4.7179,4.6581,4.5577,4.452,4.4097,4.3448,4.3365,4.2936,4.253,4.173,4.1469,4.0995,3.9853,3.8792,3.8087,3.7228,3.6799,3.6368,3.5814,3.5425,3.5126,3.4975,3.4929,3.5004,3.5097,3.4944,3.4586,3.4423,3.4334,3.3739,3.2966,6.2562,6.2074,6.1876,6.1491,6.1376,6.1186,6.0802,6.0649,6.0837,6.0722,6.0151,5.9795,5.967,5.9523,5.8777,5.8568,5.7786,5.584,5.4658,5.4344,5.5456,5.5807,5.5491,5.6437,5.6953,5.6854,5.7925,5.8794,5.917,5.9188,5.8355,5.6804,5.6533,5.5705,5.3722,5.4059,5.3646,5.313,5.3025,5.3218,5.3199,5.2299,5.201,5.2237,5.1171,5.0483,5.0396,5.0623,5.0073,4.8997,4.867,4.8265,4.7335,4.728,4.7576,4.7395,4.7521,4.7483,4.751,4.8019,4.8594,4.8845,5.0392,5.1803,5.1928,5.3084,5.3937,5.3619,5.3445,5.3537,5.3387,5.3279,5.3304,5.3562,5.2403,5.138,5.0768,4.9188,4.8442,4.9585,4.94,4.9392,4.9907,4.9092,4.7532,4.6148,4.4895,4.3792,4.2532,4.1827,4.062,4.0373,4.0594,4.075,4.0383,3.986,3.8488,3.7358,3.6864,3.6331,3.6005,3.579,3.5327,3.4058,3.3728,3.4033,3.3986,3.4081,3.4315,3.4147,3.41,3.3775,3.3535,3.3219,3.2514,6.2562,6.1807,5.9923,6.0094,6.1563,6.0758,6.0047,5.976,6.0891,6.0517,5.9112,5.8607,5.8488,5.8243,5.6802,5.5515,5.4249,5.3621,5.3001,5.2527,5.2894,5.2989,5.2946,5.3933,5.4248,5.4086,5.5153,5.6226,5.6887,5.7467,5.7308,5.6632,5.6193,5.5636,5.4928,5.391,5.3239,5.2824,5.2049,5.1964,5.237,5.1414,5.1098,5.1581,5.0539,4.9854,4.9822,4.904,4.848,4.7904,4.6539,4.5747,4.5666,4.5313,4.5061,4.5171,4.62,4.6909,4.711,4.9121,5.0335,5.0493,5.2182,5.3476,5.3529,5.3947,5.4224,5.4185,5.4021,5.3855,5.3924,5.4416,5.4836,5.461,5.3928,5.3327,5.3106,5.2301,5.1486,5.0685,4.9863,4.9593,4.9626,4.8502,4.6992,4.5395,4.4068,4.3207,4.246,4.2036,4.1803,4.149,4.0416,3.9877,3.9231,3.7685,3.6034,3.6492,3.6365,3.5885,3.5533,3.5358,3.4667,3.3115,3.262,3.2946,3.3131,3.3198,3.3097,3.2787,3.2724,3.264,3.2664,3.2558,3.2041,6.0143,5.9251,5.7324,5.7478,5.8974,5.8192,5.7544,5.7187,5.8242,5.7828,5.6479,5.5976,5.5867,5.576,5.441,5.3164,5.2099,5.2212,5.2063,5.1753,5.1749,5.1593,5.1535,5.2077,5.2122,5.1912,5.3065,5.4159,5.4914,5.5304,5.5485,5.5419,5.5054,5.4645,5.4241,5.3212,5.2441,5.2133,5.1245,5.1001,5.1413,5.0786,5.0722,5.1298,5.0578,4.9728,4.8998,4.822,4.7275,4.6269,4.5021,4.4174,4.408,4.3806,4.3798,4.4142,4.526,4.631,4.7243,4.9207,5.0734,5.147,5.2701,5.3435,5.3752,5.3784,5.3804,5.389,5.4058,5.4363,5.4434,5.4524,5.4813,5.4907,5.4222,5.3525,5.3824,5.3239,5.2303,5.1176,5.0257,4.9476,4.8863,4.7843,4.6336,4.467,4.3045,4.1896,4.1263,4.0463,3.9638,3.952,3.8924,3.8126,3.7228,3.5326,3.4279,3.4993,3.5045,3.3988,3.3526,3.3141,3.296,3.1416,3.1435,3.1751,3.1526,3.1627,3.1711,3.1416,3.1275,3.1328,3.1485,3.1268,3.1068,5.5875,5.4761,5.4354,5.4196,5.3785,5.3982,5.3648,5.3362,5.3349,5.2991,5.2565,5.243,5.2175,5.2068,5.2026,5.1882,5.1741,5.1704,5.1561,5.1452,5.1446,5.1548,5.1506,5.1036,5.0635,5.0478,5.1303,5.2355,5.3444,5.3299,5.3168,5.327,5.2851,5.2483,5.2009,5.1652,5.1226,5.0484,5.0131,5.0213,5.0213,5.0213,5.022,5.063,5.0694,4.9696,4.8236,4.7866,4.6583,4.3869,4.3892,4.3626,4.277,4.3269,4.3898,4.4434,4.4902,4.5979,4.7597,4.8637,4.9581,5.1046,5.2331,5.2537,5.2972,5.3438,5.3787,5.33,5.4386,5.4928,5.5182,5.4646,5.4338,5.5114,5.3367,5.2908,5.3842,5.2484,5.0986,5.0732,5.045,4.9733,4.8206,4.7363,4.5753,4.3782,4.1896,4.0416,3.8855,3.7078,3.6338,3.5803,3.5049,3.3995,3.3457,3.292,3.2058,3.1873,3.1891,3.0641,3.0522,3.0463,3.0233,3.0029,3.0254,3.0318,3.0022,3.0036,3.0093,3.016,3.0015,2.985,2.9936,2.9888,2.9676,5.4745,5.4359,5.4034,5.3901,5.3798,5.3938,5.3284,5.227,5.3279,5.3001,5.1842,5.251,5.1747,5.0138,4.9989,4.997,4.9933,4.9893,4.9907,4.9843,4.9681,4.9493,4.9258,4.8956,4.8703,4.8641,4.8928,4.9632,5.0685,5.0941,5.0907,5.0537,5.0408,5.0166,4.9837,4.9124,4.8637,4.8485,4.8375,4.854,4.8716,4.8337,4.8227,4.8495,4.8142,4.7682,4.7041,4.5734,4.4546,4.3636,4.3148,4.273,4.2471,4.282,4.3378,4.4112,4.6185,4.7808,4.8472,5.116,5.2537,5.2391,5.4857,5.5892,5.5276,5.6229,5.6933,5.6748,5.6247,5.5864,5.6222,5.65,5.6812,5.7056,5.5586,5.4511,5.4813,5.3405,5.2174,5.1628,5.1979,5.1583,4.9218,4.688,4.4714,4.2797,4.0977,3.9377,3.8828,3.7793,3.6836,3.6214,3.5094,3.3945,3.2547,3.1743,3.113,3.0363,2.9606,2.9168,2.8903,2.9324,2.93,2.8091,2.8788,2.8889,2.8225,2.8383,2.8547,2.8868,2.8708,2.8348,2.8308,2.8212,2.801,5.3128,5.2364,5.2165,5.2114,5.2131,5.2207,5.1767,5.1024,5.1884,5.1688,5.0883,5.1392,5.0868,4.9442,4.9394,4.9357,4.9234,4.9258,4.9213,4.9214,4.9777,4.952,4.8884,4.9198,4.899,4.8273,4.8188,4.8416,4.8879,4.9099,4.9211,4.9112,4.8939,4.9019,4.9164,4.8584,4.8131,4.7873,4.7618,4.7098,4.6485,4.6357,4.6471,4.6641,4.6816,4.6432,4.5084,4.4277,4.3476,4.2829,4.2172,4.2091,4.2602,4.2886,4.3258,4.3789,4.5767,4.7826,5.0093,5.3118,5.492,5.4956,5.6542,5.7129,5.6329,5.6642,5.7585,5.8219,5.7388,5.6539,5.6612,5.6545,5.6905,5.7286,5.6524,5.6023,5.6572,5.5685,5.476,5.4058,5.3886,5.2836,5.0173,4.7315,4.4758,4.2458,4.0615,3.9378,3.8876,3.7821,3.6836,3.6016,3.4706,3.3062,3.1275,3.0573,2.9451,2.8216,2.761,2.7318,2.6885,2.7046,2.6864,2.5933,2.6311,2.6384,2.5927,2.6191,2.6283,2.6139,2.6139,2.6032,2.6224,2.582,2.4044,5.1168,4.9843,4.9763,4.958,4.9723,4.9777,4.9882,4.9834,4.9673,4.9583,4.9623,4.9688,4.9743,4.9705,4.9697,4.9545,4.9389,4.9369,4.9314,4.9401,5.0801,5.0652,4.9344,5.0647,5.0499,4.8989,4.8717,4.8462,4.8321,4.7954,4.8064,4.8634,4.8316,4.8407,4.8984,4.876,4.8299,4.7722,4.7182,4.5837,4.3847,4.4363,4.4782,4.4864,4.5822,4.5084,4.2701,4.2912,4.2631,4.1673,4.1302,4.1662,4.2616,4.3137,4.3378,4.3532,4.4265,4.6863,5.1667,5.4467,5.6495,5.8062,5.7461,5.7026,5.6705,5.568,5.6188,5.8032,5.7635,5.6942,5.6902,5.5923,5.5889,5.7161,5.6696,5.6924,5.7836,5.8051,5.7568,5.6889,5.5036,5.3321,5.0699,4.8483,4.5954,4.3069,4.114,3.982,3.8953,3.745,3.6139,3.4706,3.3436,3.1383,2.899,2.7884,2.6246,2.4547,2.4133,2.3718,2.3302,2.3224,2.32,2.2232,2.2938,2.2633,2.2493,2.2965,2.2895,2.2476,2.2834,2.3,2.25,2.2048,1.9498,4.9996,4.9768,4.9726,4.9692,4.9708,4.9791,4.9761,4.9771,4.9695,4.9614,4.9455,4.9459,4.9451,4.9451,4.9337,4.9347,4.9346,4.9295,4.925,4.9363,4.9725,4.9659,4.9272,4.9522,4.9497,4.9138,4.8949,4.8874,4.8886,4.8448,4.8294,4.8356,4.76,4.6882,4.6442,4.5532,4.4876,4.4487,4.4307,4.3868,4.3028,4.2375,4.1926,4.166,4.1774,4.158,4.1177,4.0561,4.0579,4.133,4.0914,4.0945,4.1643,4.1925,4.2421,4.3213,4.4014,4.6443,5.1072,5.5309,5.7493,5.7074,5.8082,5.8173,5.7092,5.6851,5.7129,5.7379,5.7329,5.7328,5.7389,5.7426,5.789,5.8498,5.7441,5.6884,5.7221,5.6213,5.513,5.4567,5.4094,5.2833,5.0368,4.8984,4.7256,4.4469,4.2365,4.0894,3.9854,3.8151,3.5208,3.2536,3.0843,2.8791,2.4775,2.3652,2.1633,1.7753,1.7497,1.7456,1.7357,1.7637,1.7579,1.7012,1.7012,1.6647,1.6537,1.6938,1.7438,1.7651,1.8969,1.9862,1.7961,1.7452,1.5216,4.9428,4.9477,4.9453,4.9427,4.9474,4.9364,4.9371,4.9479,4.9155,4.8909,4.8826,4.8863,4.8826,4.8863,4.8792,4.8717,4.8717,4.8678,4.8676,4.8818,4.9549,4.9465,4.8853,4.9628,4.9547,4.8836,4.8935,4.9035,4.9052,4.8761,4.8604,4.8528,4.7837,4.6953,4.5963,4.5258,4.46,4.398,4.2459,4.1434,4.096,3.9153,3.7983,3.7611,3.738,3.7201,3.6798,3.6153,3.6029,3.64,3.6046,3.6991,3.9259,3.9987,4.076,4.1959,4.3712,4.5902,4.8472,5.3009,5.6276,5.7707,5.8605,5.7925,5.5084,5.5444,5.5761,5.5522,5.5797,5.6167,5.6389,5.7192,5.7758,5.7898,5.7426,5.7284,5.7719,5.7062,5.6416,5.607,5.5423,5.3782,5.0887,4.9791,4.8127,4.5533,4.3864,4.1773,3.9096,3.5552,3.2017,2.9697,2.888,2.5828,1.9601,1.797,1.5242,0.9965,0.9308,0.9214,0.8889,0.8889,0.8788,0.8614,0.8816,0.8708,0.8188,0.8809,0.9883,1.0837,1.2905,1.4792,1.5035,1.3718,0.854,4.8933,4.897,4.8848,4.8875,4.8922,4.8747,4.877,4.8923,4.8017,4.7599,4.7683,4.7583,4.7583,4.7683,4.7694,4.7642,4.7526,4.7536,4.7536,0.0,4.9047,4.8988,4.7906,4.9354,4.933,4.8136,4.8444,4.8711,4.8845,4.8804,4.8818,4.8818,4.846,4.7784,4.6774,4.6224,4.5618,4.4865,4.1805,3.9887,3.9204,3.6471,3.4623,3.3791,3.3137,3.2252,3.1202,3.0115,2.9466,2.915,2.8359,2.9637,3.3388,3.4361,3.598,3.7683,4.0788,4.3251,4.4495,4.8779,5.3339,5.7652,5.8306,5.6253,5.1643,5.2129,5.2682,5.2563,5.2823,5.3484,5.4211,5.5276,5.5949,5.5872,5.6615,5.7482,5.8144,5.8273,5.828,5.8052,5.7001,5.4648,5.2075,5.0348,4.8441,4.6199,4.4479,4.256,3.7811,3.1166,2.5732,2.2828,2.2082,1.8383,0.9594,0.8176,0.4731,0.0094,-0.168,-0.2434,-0.2371,-0.2336,-0.2547,-0.2508,-0.2082,-0.1826,-0.2416,-0.1644,-0.0513,0.1021,0.2266,0.4042,0.7068,0.506,-0.1807,4.7795,4.7921,4.7894,4.7894,4.7912,4.7977,4.8004,4.7903,0.0,0.0,0.0,4.4552,4.4704,4.5308,4.5213,4.5177,4.5304,4.5172,4.5253,4.5458,4.5419,4.5536,4.5659,4.5876,4.6058,4.6161,4.6743,4.7467,4.8296,4.8657,4.8861,4.9068,4.8813,4.8492,4.8,4.6441,4.5701,4.5739,4.3964,4.2404,4.1069,3.8402,3.5524,3.233,2.9436,2.762,2.7081,2.2,2.0253,2.2398,1.8029,1.59,1.6956,1.7911,1.9957,2.319,2.7421,3.2415,3.8391,4.3134,4.7822,5.253,5.4621,5.2781,4.5914,4.6685,4.7286,4.6935,4.7778,4.9103,5.1141,5.2239,5.3234,5.4011,5.4877,5.5611,5.6118,5.6807,5.6996,5.6308,5.4849,5.322,5.1767,4.9967,4.8305,4.6612,4.4169,4.1753,3.8338,2.5865,1.2042,0.0125,-0.3901,-0.6952,-1.1103,-1.2159,-1.3346,-1.4878,-1.6321,-1.6847,-1.5707,-1.5332,-1.6019,-1.6591,-1.5389,-1.4658,-1.5918,-1.4324,-1.3213,-1.3466,-1.1346,-0.966,-1.1677,-1.5514,-2.08,4.6559,0.0,4.6632,4.6632,0.0,4.6452,4.5449,4.3953,4.3075,4.2395,4.1954,4.1675,4.1762,4.2296,4.2442,4.2409,4.2296,4.2769,4.2905,4.284,4.2975,4.3208,4.3473,4.3584,4.3987,4.455,4.5419,4.644,4.7401,4.7969,4.8435,4.89,4.8874,4.8326,4.7376,4.7227,4.6713,4.5803,4.3575,4.1024,3.8105,3.4748,3.0365,2.5021,0.0,0.0,0.0,0.0,0.0,0.0,0.0,0.0,0.0,0.0,0.0,0.8788,1.3632,1.7342,1.9344,2.5034,3.0617,3.5536,4.0404,4.0038,3.2464,3.5792,3.9106,4.1173,4.176,4.2879,4.5271,4.6805,4.8059,4.9036,5.0173,5.169,5.3302,5.4178,5.4411,5.3754,5.2471,5.0914,4.9258,4.7781,4.6155,4.4018,4.2259,3.8258,2.9394,1.8535,0.6614,-0.7254,-1.9726,-2.9289,-2.8734,-2.8306,-2.7936,-2.5999,-2.6163,-2.5929,-2.4699,-2.4543,-2.4783,-2.5497,-2.4308,-2.3255,-2.4349,-2.3262,-2.1635,-2.0562,-1.9043,-1.9938,-2.6758,-2.9754,-3.174,4.4887,4.4852,4.4887,4.4887,4.4763,4.3555,4.1467,3.8968,3.894,3.8562,3.8044,3.8074,3.8234,3.8588,3.9311,3.9404,3.909,4.0027,4.0242,3.9872,4.0334,4.0608,4.0729,4.117,4.1719,4.2395,4.361,4.4723,4.5837,4.6684,4.7458,4.8062,4.8534,4.8042,4.6758,0.0,0.0,0.0,4.3348,3.9966,3.5443,3.1543,2.5797,1.7921,1.3704,0.0,0.1775,-0.222,-0.5925,-0.9578,-1.1699,0.0,0.0,0.0,0.0,0.0,0.0,0.0,0.0,0.0,0.0,0.0,2.1051,2.1864,1.9399,2.3127,2.8012,3.3368,3.434,3.5529,3.7781,3.9712,4.123,4.2322,4.3784,4.5918,4.9096,4.9995,5.0578,5.092,4.9383,4.761,4.6021,4.4416,4.2561,4.0131,3.8376,3.0415,1.3921,0.8006,0.1255,-1.0961,-2.9322,-4.1513,-3.984,-3.9527,-3.8119,-3.5578,-3.4434,-3.4445,-3.3448,-3.3149,-3.3171,-3.3598,-3.2094,-3.1189,-3.1922,-3.0837,-2.9448,-2.7098,-2.6348,-2.8396,-3.6287,-3.7878,-3.652,4.1929,4.1929,4.1929,4.1929,4.167,3.7855,3.5613,3.4425,3.3724,3.2961,3.2251,3.2377,3.2881,3.3989,3.5285,3.594,3.6142,3.6735,3.6778,3.6377,3.6152,3.6225,3.6522,3.6965,3.767,3.8633,4.012,4.1541,4.2907,4.4507,4.5485,4.6089,4.7402,4.8065,4.8001,4.897,4.8501,4.6529,4.5805,4.3086,3.8229,3.4847,2.7933,1.723,0.9456,0.0691,-0.918,-1.3056,-1.8639,-2.6325,-2.6141,-2.6231,-2.7213,-2.522,-2.232,0.0,-1.3385,0.0,0.0,0.0,0.0,0.0,0.0,0.0,0.0,1.0996,1.2141,2.042,2.4004,2.6621,2.8456,3.0363,3.2263,3.417,3.5782,3.799,4.1424,4.2584,4.4435,4.7787,4.4616,4.2593,4.3108,4.0138,3.7579,3.5818,3.0082,1.7803,-0.2065,-0.6962,-1.2688,-2.9316,-3.4506,-3.8563,-4.1777,-4.4521,-4.5467,-4.4484,-4.4627,-4.5894,-4.3134,-4.3091,-4.3838,-4.4252,-4.1514,-4.0034,-4.2214,-4.0151,-3.8605,-3.7912,-3.6393,-3.5993,-3.7653,-3.7965,-3.7434,3.8623,3.8593,3.8593,3.6884,3.4094,3.2751,3.0723,2.8336,2.7933,2.7028,2.5591,2.6139,2.7438,2.9167,3.0036,3.0821,3.1594,3.2386,3.2628,3.2467,3.2915,3.3261,3.3607,3.4495,3.5311,3.6142,3.7779,3.936,4.0722,4.2217,4.3463,4.4395,4.6156,4.6921,4.662,4.7683,4.8115,4.7832,4.694,4.4191,3.9285,2.6879,1.5165,0.4527,-0.2705,-1.0666,-1.9331,-2.3197,-2.7918,-3.3544,-3.5207,-3.6275,-3.6909,-3.5777,-3.3589,0.0,0.0,0.0,0.0,0.0,0.0,0.0,0.0,0.0,0.0,0.0,-0.1479,0.4586,1.1149,1.5609,1.701,1.994,2.207,2.2699,2.452,2.7198,3.089,3.3407,3.5711,3.8325,3.7535,3.6751,3.645,3.4976,3.2349,2.7637,1.7439,0.6281,-0.4238,-0.9837,-1.635,-2.77,-3.1684,-3.5471,-4.2348,-4.6184,-4.8002,-4.6989,-4.7382,-4.7312,-4.5454,-4.5101,-4.5177,-4.5398,-4.37,-4.2203,-4.2393,-4.1129,-4.0037,-3.968,-3.8728,-3.7745,-3.7105,-3.5927,-3.4574,3.4341,3.4626,3.2909,2.9862,2.6269,2.6864,2.5132,2.2035,2.183,2.0663,1.884,1.916,2.0646,2.2806,2.4214,2.57,2.7302,2.8397,2.9053,2.9535,3.02,3.0734,3.0927,3.2037,3.286,3.3477,3.4792,3.6265,3.7849,3.9214,4.0745,4.234,4.3693,4.4244,4.3993,4.5521,4.6958,4.822,4.6827,4.4291,4.0138,2.0042,0.3292,-0.8776,-1.5872,-2.2304,-2.7828,-3.1626,-3.5143,-3.8486,-4.1069,-4.2297,-4.2134,-4.1187,0.0,0.0,0.0,0.0,0.0,0.0,0.0,0.0,0.0,-2.5286,-1.8395,0.0,-1.2033,0.0,0.0264,0.4078,0.4704,0.827,0.0,0.0,1.2562,1.5692,1.9838,2.3074,2.5995,2.8411,2.944,2.9617,2.8906,2.81,2.4266,1.5291,0.5174,-0.2388,-0.5471,-1.0992,-1.7442,-2.454,-2.9101,-3.3963,-4.092,-4.5291,-4.7419,-4.7491,-4.7419,-4.6917,-4.5761,-4.5339,-4.5084,-4.4672,-4.3813,-4.2853,-4.1966,-4.0988,-4.0203,-3.9619,-3.9005,-3.8415,-3.7559,-3.5801,-3.3791,2.8434,2.9537,2.3007,2.0058,1.9797,1.9326,1.7951,1.5871,1.5242,1.3871,1.1999,1.1147,1.1655,1.3357,1.7531,0.0,2.4129,2.5402,2.686,2.8637,2.8192,2.8124,2.8124,2.8726,2.9299,3.0012,3.0061,3.1438,3.3896,3.4992,3.6819,3.9382,3.9227,3.9451,4.0197,4.2593,4.4764,4.6555,4.488,4.3266,4.1537,2.0227,0.0049,-1.8106,-2.7498,-3.2787,-3.3909,-3.6881,-4.0054,-4.3309,-4.3097,-4.2546,-4.1789,0.0,0.0,0.0,0.0,0.0,0.0,0.0,0.0,0.0,0.0,0.0,0.0,0.0,0.0,-0.4298,-0.5467,0.0,-0.8136,-0.5667,0.0,0.0,0.0,0.441,0.9439,1.1818,1.5203,2.0653,0.0,0.0,2.1914,1.8437,1.1199,-0.0894,-0.367,-0.7174,-1.4352,-1.7419,-2.0956,-2.6118,-2.8978,-3.2664,-3.9038,-4.2006,-4.4749,-4.7692,-4.8187,-4.7918,-4.7473,-4.7238,-4.6953,-4.6318,-4.5488,-4.462,-4.3644,-4.2765,-4.2159,-4.2163,-4.1754,-4.1457,-4.1361,-4.0274,-3.8514,2.0565,1.7338,1.4613,1.2683,1.1304,1.1426,1.0048,0.7781,0.7352,0.6126,0.4487,0.4399,0.4499,0.4877,0.8488,0.0,0.0,0.0,2.062,2.3448,2.3816,2.4688,2.6006,2.658,2.6926,2.7249,2.8219,2.9576,3.1072,3.3295,3.3689,3.2207,0.0,0.0,3.6405,3.9076,4.1591,4.3729,4.3329,4.0659,3.5691,1.8941,-0.3903,-3.2107,-3.6159,-3.8246,-3.937,-4.1145,-4.2768,-4.4045,-4.317,-4.1732,0.0,0.0,0.0,0.0,0.0,0.0,0.0,0.0,0.0,0.0,0.0,-3.0445,-2.3607,0.0,0.0,0.0,-1.8038,-1.8341,-1.8007,-1.4847,0.0,0.0,0.0,0.0,0.0,0.0,0.0,0.9215,1.2487,1.3993,1.2791,0.6126,-0.0824,-0.6565,-1.0096,-1.3727,-1.8503,0.0,-2.486,-2.9521,-3.327,-3.7134,-4.1517,-4.4389,-4.6555,-4.8349,-4.8681,-4.8633,-4.842,-4.8178,-4.7857,-4.737,-4.6664,-4.5761,-4.4436,-4.4325,-4.4325,-4.4039,-4.3641,-4.3209,-4.2769,-4.1862,-4.046,1.1517,0.0,0.0,0.0,0.0,0.393,0.2515,0.0204,-0.0204,-0.1507,-0.3337,-0.284,0.0,0.0,0.0,0.0,0.0,0.0,1.5492,1.7982,2.0382,2.2147,2.3163,2.3463,2.3856,2.4042,2.462,2.5587,2.716,2.883,2.807,2.5118,0.0,0.0,0.0,0.0,3.7741,4.0076,4.014,3.6142,2.7985,1.256,-0.9014,-3.6712,-4.0627,-4.2774,-4.3728,-4.4266,-4.4331,-4.3892,-4.2255,0.0,0.0,0.0,0.0,0.0,0.0,0.0,0.0,0.0,0.0,0.0,0.0,0.0,0.0,0.0,0.0,0.0,0.0,0.0,-2.4643,-2.1791,-2.0526,0.0,0.0,0.0,0.0,0.0,0.0,0.0,0.0,0.0,0.054,-0.5836,-1.0715,0.0,0.0,-1.9885,-2.1813,-2.459,-2.7904,-3.2202,-3.6262,0.0,-4.3167,-4.598,-4.7892,-4.8163,-4.8676,-4.9011,-4.8987,-4.8737,-4.8423,-4.8178,-4.7583,-4.6739,-4.5806,-4.5996,-4.6145,-4.5786,-4.5499,-4.5054,-4.4525,-4.3605,-4.2455,0.0,0.0,0.0,0.0,0.0,0.0,0.0,0.0,-0.7074,-0.892,0.0,-1.1042,0.0,0.0,0.0,0.0,0.0,0.9415,0.0,0.0,1.8783,2.0746,1.91,1.8976,1.9476,2.0037,1.8014,1.8515,2.1141,1.9827,0.0,0.0,0.0,0.0,0.0,0.0,3.3281,3.55,3.4668,2.9265,1.8922,-0.0363,-1.5483,-2.5613,-3.9742,-4.7032,-4.6497,-4.573,-4.4813,-4.342,-4.0423,0.0,0.0,0.0,0.0,0.0,0.0,0.0,0.0,0.0,0.0,0.0,0.0,0.0,0.0,0.0,0.0,0.0,0.0,0.0,0.0,-2.658,0.0,0.0,0.0,0.0,0.0,0.0,0.0,0.0,0.0,0.0,-1.5476,-1.6742,-1.778,-2.0391,0.0,0.0,0.0,0.0,-3.0028,-3.321,-3.6401,-3.9352,-4.1743,-4.4457,-4.643,-4.6861,0.0,0.0,-4.8997,-4.8882,-4.875,-4.8763,-4.8125,-4.7707,-4.7915,-4.7689,-4.7531,-4.752,-4.7256,-4.7385,-4.7494,-4.6451,-4.5509,0.0,0.0,0.0,0.0,0.0,0.0,0.0,0.0,0.0,-1.5174,0.0,-1.6821,0.0,0.0,0.0,0.0,0.0,0.0,0.0,0.0,0.8949,1.0956,1.2118,1.2295,1.2823,0.0,1.3596,1.2327,0.0,0.0,0.0,0.0,0.0,0.0,0.0,0.0,2.9031,3.0953,2.7688,2.2655,1.5316,-0.596,-2.034,-2.6557,-4.0994,-4.808,-4.67,-4.4118,-4.2018,0.0,0.0,0.0,0.0,0.0,0.0,0.0,0.0,0.0,0.0,0.0,0.0,0.0,0.0,0.0,0.0,0.0,0.0,0.0,0.0,0.0,0.0,0.0,-3.1738,0.0,0.0,0.0,0.0,0.0,0.0,0.0,0.0,0.0,-2.2303,-2.2927,-2.3281,-2.4957,-2.6932,-2.8504,-2.9067,0.0,0.0,0.0,0.0,0.0,0.0,0.0,-4.5485,-4.6876,-4.7543,-4.8258,-4.9326,-4.9398,-4.9247,-4.9177,0.0,0.0,-4.7135,-4.5903,-4.5043,-4.5148,-4.5985,-4.6662,-4.6688,-4.7173,-4.7517,0.0,0.0,0.0,0.0,0.0,0.0,0.0,0.0,0.0,-2.0791,-2.1878,0.0,0.0,0.0,0.0,0.0,0.0,0.0,0.0,0.0,0.0,0.0,0.5169,0.5477,0.0,0.0,0.0,0.0,0.0,0.0,0.0,0.0,0.0,0.0,0.0,0.0,2.4934,2.6898,2.2226,1.6116,0.8515,-1.0743,-2.4591,-3.2131,-4.2979,-4.8126,-4.6848,0.0,0.0,0.0,0.0,0.0,0.0,0.0,0.0,0.0,0.0,0.0,0.0,0.0,0.0,0.0,0.0,0.0,0.0,0.0,0.0,0.0,0.0,0.0,0.0,0.0,-3.3549,0.0,0.0,0.0,0.0,0.0,0.0,0.0,0.0,0.0,0.0,0.0,-2.9183,-2.9307,-3.1053,-3.2254,-3.2283,-3.3845,-3.5637,0.0,0.0,0.0,0.0,0.0,0.0,0.0,0.0,0.0,0.0,0.0,0.0,0.0,0.0,-4.7517,-4.6235,-4.4601,-4.3433,-4.3561,0.0,0.0,0.0,0.0,0.0,0.0,0.0,0.0,0.0,0.0,0.0,0.0,0.0,0.0,0.0,0.0,0.0,0.0,-2.6435,0.0,0.0,0.0,0.0,0.0,0.0,0.0,0.0,0.0,0.0,0.0,0.0,0.0,0.0,0.0,0.0,0.0,0.0,0.0,0.0,0.0,0.0,2.1031,2.3497,1.8316,0.9754,-0.2518,-1.5351,-2.8342,-4.1069,-4.5416,-4.7318,-4.7108,0.0,0.0,0.0,0.0,0.0,0.0,0.0,0.0,0.0,0.0,0.0,0.0,0.0,0.0,0.0,0.0,0.0,0.0,0.0,0.0,0.0,0.0,0.0,0.0,0.0,0.0,-2.9926,-2.9289,-2.9029,0.0,0.0,0.0,0.0,0.0,0.0,0.0,0.0,0.0,0.0,-3.5756,-3.6575,-3.4764,-3.515,-3.6082,-3.7226,-3.8194,-3.8928,-3.9508,-4.2353,-4.412,0.0,0.0,0.0,0.0,0.0,0.0,0.0,0.0,0.0,0.0,0.0,0.0,0.0,0.0,0.0,0.0,0.0,0.0,0.0,0.0,0.0,0.0,0.0,0.0,0.0,0.0,0.0,0.0,0.0,0.0,0.0,0.0,0.0,0.0,0.0,0.0,0.0,0.0,0.0,0.0,0.0,0.0,0.0,0.0,0.0,0.0,0.0,0.0,0.0,0.0,0.0,0.0,0.0,0.0,1.7431,1.9726,1.2369,0.3425,-0.7241,-2.0878,-3.301,-4.3207,-4.5234,-4.5841,0.0,0.0,0.0,0.0,0.0,0.0,0.0,0.0,0.0,0.0,0.0,0.0,0.0,0.0,0.0,0.0,0.0,0.0,0.0,0.0,0.0,0.0,0.0,0.0,0.0,0.0,0.0,0.0,-3.284,-3.2295,-3.0963,0.0,0.0,0.0,0.0,0.0,0.0,0.0,0.0,0.0,0.0,-3.7001,-3.6536,-3.7014,-3.7704,-3.831,-3.8974,-3.9417,-3.9539,-4.0561,-4.1496,-4.2144,0.0,0.0,0.0,0.0,0.0,0.0,0.0,0.0,0.0,0.0,0.0,0.0,0.0,0.0,0.0,0.0,0.0,0.0,0.0,0.0,0.0,0.0,0.0,0.0,0.0,0.0,0.0,0.0,0.0,0.0,0.0,0.0,0.0,0.0,0.0,0.0,0.0,0.0,0.0,0.0,0.0,0.0,0.0,0.0,0.0,0.0,0.0,0.0,0.0,0.0,0.0,0.0,0.0,1.3829,1.6843,0.8067,-0.08,-0.9533,-2.392,-3.5748,-4.4364,-4.4868,-4.4795,0.0,0.0,0.0,0.0,0.0,0.0,0.0,0.0,0.0,0.0,0.0,0.0,0.0,0.0,0.0,0.0,0.0,0.0,0.0,0.0,0.0,0.0,0.0,0.0,0.0,0.0,0.0,0.0,-3.2026,-3.1631,-3.0607,0.0,0.0,0.0,0.0,0.0,0.0,0.0,0.0,0.0,0.0,-3.7213,-3.7602,-3.7992,0.0,0.0,-3.9331,-3.9519,-3.9501,-4.0083,-4.0632,-4.0938,-4.1993,0.0,0.0,0.0,0.0,0.0,0.0,0.0,0.0,0.0,0.0,0.0,0.0,0.0,0.0,0.0,0.0,0.0,0.0,0.0,0.0,0.0,0.0,0.0,0.0,0.0,0.0,0.0,0.0,0.0,0.0,0.0,0.0,0.0,0.0,0.0,0.0,0.0,0.0,0.0,0.0,0.0,0.0,0.0,0.0,0.0,0.0,0.0,0.0,0.0,0.0,0.0,0.0,0.0,1.4368,0.5004,-0.3243,-0.9806,-2.5056,-3.6824,-4.4366,-4.4261,-4.4198,0.0,0.0,0.0,0.0,0.0,0.0,0.0,0.0,0.0,0.0,0.0,0.0,0.0,0.0,0.0,0.0,0.0,0.0,0.0,0.0,0.0,0.0,0.0,0.0,0.0,0.0,0.0,0.0,0.0,0.0,0.0,0.0,0.0,0.0,0.0,0.0,0.0,0.0,0.0,0.0,0.0,-3.7161,-3.8041,-3.8135,-3.8325,0.0,0.0,-3.9142,-3.9184,-4.0376,-4.0844,-3.9388,0.0,0.0,0.0,0.0,0.0,0.0,0.0,0.0,0.0,0.0,0.0,0.0,0.0,0.0,0.0,0.0,0.0,0.0,0.0,0.0,0.0,0.0,0.0,0.0,0.0,0.0,0.0,0.0,0.0,0.0,0.0,0.0,0.0,0.0,0.0,0.0,0.0,0.0,0.0,0.0,0.0,0.0,0.0,0.0,0.0,0.0,0.0,0.0,0.0,0.0,0.0,0.0,0.0,0.0,1.041,0.2461,-0.4571,-1.0698,-2.6339,-3.7831,-4.4307,-4.373,0.0,0.0,0.0,0.0,0.0,0.0,0.0,0.0,0.0,0.0,0.0,0.0,0.0,0.0,0.0,0.0,0.0,0.0,0.0,0.0,0.0,0.0,0.0,0.0,0.0,0.0,0.0,-2.7766,0.0,0.0,0.0,0.0,0.0,0.0,0.0,0.0,0.0,0.0,0.0,0.0,0.0,0.0,-3.6344,-3.68,-3.7397,-3.7857,0.0,0.0,-3.8158,-3.8379,-3.8635,-3.9048,0.0,0.0,0.0,0.0,0.0,0.0,0.0,0.0,0.0,0.0,0.0,0.0,0.0,0.0,0.0,0.0,0.0,0.0,0.0,0.0,0.0,0.0,0.0,0.0,0.0,0.0,0.0,0.0,0.0,0.0,0.0,0.0,0.0,0.0,0.0,0.0,0.0,0.0,0.0,0.0,0.0,0.0,0.0,0.0,0.0,0.0,0.0,0.0,0.0,0.0,0.0,0.0,0.0,0.0,0.2071,0.6367,-0.1134,-0.7237,-1.169,-2.7387,-3.8606,-4.4258,-4.2808,-4.2735,0.0,0.0,0.0,0.0,0.0,0.0,0.0,0.0,0.0,0.0,0.0,0.0,0.0,0.0,0.0,0.0,0.0,0.0,0.0,0.0,0.0,0.0,0.0,0.0,0.0,0.0,0.0,0.0,0.0,0.0,0.0,0.0,0.0,0.0,0.0,0.0,0.0,0.0,0.0,0.0,0.0,0.0,-3.5343,-3.6023,0.0,0.0,0.0,-3.7255,-3.7408,0.0,0.0,0.0,0.0,0.0,0.0,0.0,0.0,0.0,0.0,0.0,0.0,0.0,0.0,0.0,0.0,0.0,0.0,0.0,0.0,0.0,0.0,0.0,0.0,0.0,0.0,0.0,0.0,0.0,0.0,0.0,0.0,0.0,0.0,0.0,0.0,0.0,0.0,0.0,0.0,0.0,0.0,0.0,0.0,0.0,0.0,0.0,0.0,0.0,0.0,0.0,0.0,0.0,0.0,0.0,0.0,0.0,0.2621,-0.4867,-0.9889,-1.2327,-2.7507,-3.8361,-4.3465,-4.1952,-4.1998,0.0,0.0,0.0,0.0,0.0,0.0,0.0,0.0,0.0,0.0,0.0,0.0,0.0,0.0,0.0,0.0,0.0,0.0,0.0,0.0,0.0,0.0,0.0,0.0,0.0,0.0,0.0,0.0,0.0,0.0,0.0,0.0,0.0,0.0,0.0,0.0,0.0,0.0,0.0,0.0,0.0,-3.2616,-3.3748,-3.4417,-3.505,0.0,0.0,-3.621,-3.6244,-3.6244,0.0,0.0,0.0,0.0,0.0,0.0,0.0,0.0,0.0,0.0,0.0,0.0,0.0,0.0,0.0,0.0,0.0,0.0,0.0,0.0,0.0,0.0,0.0,0.0,0.0,0.0,0.0,0.0,0.0,0.0,0.0,0.0,0.0,0.0,0.0,0.0,0.0,0.0,0.0,0.0,0.0,0.0,0.0,0.0,0.0,0.0,0.0,0.0,0.0,0.0,0.0,0.0,0.0,0.0,0.0,0.0,-0.1097,-0.5878,-0.8843,-1.0046,-2.3422,-3.3613,-3.9631,-4.2167,-4.3232,0.0,0.0,0.0,0.0,0.0,0.0,0.0,0.0,0.0,0.0,0.0,0.0,0.0,0.0,0.0,0.0,0.0,0.0,0.0,0.0,0.0,0.0,0.0,0.0,0.0,0.0,0.0,0.0,0.0,0.0,0.0,0.0,0.0,0.0,0.0,0.0,0.0,0.0,0.0,0.0,0.0,-3.1103,-3.1801,-3.2749,0.0,0.0,0.0,0.0,-3.4359,-3.4369,0.0,0.0,0.0,0.0,0.0,0.0,0.0,0.0,0.0,0.0,0.0,0.0,0.0,0.0,0.0,0.0,0.0,0.0,0.0,0.0,0.0,0.0,0.0,0.0,0.0,0.0,0.0,0.0,0.0,0.0,0.0,0.0,0.0,0.0,0.0,0.0,0.0,0.0,0.0,0.0,0.0,0.0,0.0,0.0,0.0,0.0,0.0,0.0,0.0,0.0,0.0,0.0,0.0,0.0,0.0,0.0,-1.0655,-1.5029,-1.7346,-1.7313,-2.7917,-3.5629,-3.9659,-4.0448,-4.1251,0.0,0.0,0.0,0.0,0.0,0.0,0.0,0.0,0.0,0.0,0.0,0.0,0.0,0.0,0.0,0.0,0.0,0.0,0.0,0.0,0.0,0.0,0.0,0.0,0.0,0.0,0.0,0.0,0.0,0.0,0.0,0.0,0.0,0.0,0.0,0.0,0.0,0.0,0.0,0.0,-2.9095,-2.9885,-3.0394,0.0,0.0,0.0,0.0,0.0,0.0,-3.3409,-3.4622,0.0,0.0,0.0,0.0,0.0,0.0,0.0,0.0,0.0,0.0,0.0,0.0,0.0,0.0,0.0,0.0,0.0,0.0,0.0,0.0,0.0,0.0,0.0,0.0,0.0,0.0,0.0,0.0,0.0,0.0,0.0,0.0,0.0,0.0,0.0,0.0,0.0,0.0,0.0,0.0,0.0,0.0,0.0,0.0,0.0,0.0,0.0,0.0,0.0,0.0,0.0,0.0,0.0,0.0,0.0,-1.9304,-2.4133,-2.6253,-2.5521,-3.2842,-3.7912,-4.0253,-3.886,-3.9221,-4.1354,0.0,0.0,0.0,0.0,0.0,0.0,0.0,0.0,0.0,0.0,0.0,0.0,0.0,0.0,0.0,0.0,0.0,0.0,0.0,0.0,0.0,0.0,0.0,0.0,0.0,0.0,0.0,0.0,0.0,0.0,0.0,0.0,0.0,0.0,0.0,0.0,0.0,0.0,0.0,-2.8543,-2.9269,0.0,0.0,0.0,0.0,0.0,0.0,0.0,0.0,-3.4367,0.0,0.0,0.0,0.0,0.0,0.0,0.0,0.0,0.0,0.0,0.0,0.0,0.0,0.0,0.0,0.0,0.0,0.0,0.0,0.0,0.0,0.0,0.0,0.0,0.0,0.0,0.0,0.0,0.0,0.0,0.0,0.0,0.0,0.0,0.0,0.0,0.0,0.0,0.0,0.0,0.0,0.0,0.0,0.0,0.0,0.0,0.0,0.0,0.0,0.0,0.0,0.0,0.0,0.0,0.0,0.0,-2.2419,-2.3784,-2.4296,-2.7707,-3.2161,-3.7534,-3.9997,-4.088,-4.0012,0.0,0.0,0.0,0.0,0.0,0.0,0.0,0.0,0.0,0.0,0.0,0.0,0.0,0.0,0.0,0.0,0.0,0.0,0.0,0.0,0.0,0.0,0.0,0.0,0.0,0.0,0.0,0.0,0.0,0.0,0.0,0.0,0.0,0.0,0.0,0.0,0.0,0.0,-2.8578,-2.957,0.0,0.0,0.0,0.0,0.0,0.0,0.0,0.0,-3.3473,0.0,0.0,0.0,0.0,0.0,0.0,0.0,0.0,0.0,0.0,0.0,0.0,0.0,0.0,0.0,0.0,0.0,0.0,0.0,0.0,0.0,0.0,0.0,0.0,0.0,0.0,0.0,0.0,0.0,0.0,0.0,0.0,0.0,0.0,0.0,0.0,0.0,0.0,0.0,0.0,0.0,0.0,0.0,0.0,0.0,0.0,0.0,0.0,0.0,0.0,0.0,0.0,0.0,0.0,0.0,0.0,0.0,0.0,-3.0702,-3.0639,-3.2888,-3.5117,-3.7239,-3.8748,-3.9498,0.0,0.0,0.0,0.0,0.0,0.0,0.0,0.0,0.0,0.0,0.0,0.0,0.0,0.0,0.0,0.0,0.0,0.0,0.0,0.0,0.0,0.0,0.0,0.0,0.0,0.0,0.0,0.0,0.0,0.0,0.0,0.0,0.0,0.0,0.0,0.0,0.0,0.0,0.0,0.0,0.0,0.0,0.0,0.0,0.0,0.0,0.0,0.0,0.0,0.0,0.0,0.0,0.0,0.0,0.0,0.0,0.0,0.0,0.0,0.0,0.0,0.0,0.0,0.0,0.0,0.0,0.0,0.0,0.0,0.0,0.0,0.0,0.0,0.0,0.0,0.0,0.0,0.0,0.0,0.0,0.0,0.0,0.0,0.0,0.0,0.0,0.0,0.0,0.0,0.0,0.0,0.0,0.0,0.0,0.0,0.0,0.0,0.0,0.0,0.0,0.0,0.0,0.0,0.0,0.0,0.0,0.0,0.0,-3.734,-3.6882,-3.8224,-3.861,-3.8003,-3.7877,-3.8293,0.0,0.0,0.0,0.0,0.0,0.0,0.0,0.0,0.0,0.0,0.0,0.0,0.0,0.0,0.0,0.0,0.0,0.0,0.0,0.0,0.0,0.0,0.0,0.0,0.0,0.0,0.0,0.0,0.0,0.0,0.0,0.0,0.0,0.0,0.0,0.0,0.0,0.0,0.0,0.0,0.0,0.0,0.0,0.0,0.0,0.0,0.0,0.0,-3.2252,0.0,0.0,0.0,0.0,0.0,0.0,0.0,0.0,0.0,0.0,0.0,0.0,0.0,0.0,0.0,0.0,0.0,0.0,0.0,0.0,0.0,0.0,0.0,0.0,0.0,0.0,0.0,0.0,0.0,0.0,0.0,0.0,0.0,0.0,0.0,0.0,0.0,0.0,0.0,0.0,0.0,0.0,0.0,0.0,0.0,0.0,0.0,0.0,0.0,0.0,0.0,0.0,0.0,0.0,0.0,0.0,0.0,0.0,0.0,-3.7289,-3.7888,-3.7423,-3.7911,-3.9373,-3.943,-3.928,0.0,0.0,0.0,0.0,0.0,0.0,0.0,0.0,0.0,0.0,0.0,0.0,0.0,0.0,0.0,0.0,0.0,0.0,0.0,0.0,0.0,0.0,0.0,0.0,0.0,0.0,0.0,0.0,0.0,0.0,0.0,0.0,0.0,0.0,0.0,0.0,0.0,0.0,0.0,0.0,0.0,0.0,0.0,0.0,0.0,0.0,0.0,0.0,0.0,0.0,0.0,0.0,0.0,0.0,0.0,0.0,0.0,0.0,0.0,0.0,0.0,0.0,0.0,0.0,0.0,0.0,0.0,0.0,0.0,0.0,0.0,0.0,0.0,0.0,0.0,0.0,0.0,0.0,0.0,0.0,0.0,0.0,0.0,0.0,0.0,0.0,0.0,0.0,0.0,0.0,0.0,0.0,0.0,0.0,0.0,0.0,0.0,0.0,0.0,0.0,0.0,0.0,0.0,0.0,0.0,0.0,0.0,0.0,-3.5549,-3.588,-3.7229,-3.8331,-3.9083,-3.7361,-3.6648,0.0,0.0,0.0,0.0,0.0,0.0,0.0,0.0,0.0,0.0,0.0,0.0,0.0,0.0,0.0,0.0,0.0,0.0,0.0,0.0,0.0,0.0,0.0,0.0,0.0,0.0,0.0,0.0,0.0,0.0,0.0,0.0,0.0,0.0,0.0,0.0,0.0,0.0,0.0,0.0,0.0,0.0,0.0,0.0,0.0,0.0,0.0,0.0,0.0,0.0,0.0,0.0,0.0,0.0,0.0,0.0,0.0,0.0,0.0,0.0,0.0,0.0,0.0,0.0,0.0,0.0,0.0,0.0,0.0,0.0,0.0,0.0,0.0,0.0,0.0,0.0,0.0,0.0,0.0,0.0,0.0,0.0,0.0,0.0,0.0,0.0,0.0,0.0,0.0,0.0,0.0,0.0,0.0,0.0,0.0,0.0,0.0,0.0,0.0,0.0,0.0,0.0,0.0,0.0,0.0,0.0,0.0,0.0,0.0,-3.461,-3.6883,-3.8124,-3.8226,-3.577,-3.4812,0.0,0.0,0.0,0.0,0.0,0.0,0.0,0.0,0.0,0.0,0.0,0.0,0.0,0.0,0.0,0.0,0.0,0.0,0.0,0.0,0.0,0.0,0.0,0.0,0.0,0.0,0.0,0.0,0.0,0.0,0.0,0.0,0.0,0.0,0.0,0.0,0.0,0.0,0.0,0.0,0.0,0.0,0.0,0.0,0.0,0.0,0.0,0.0,0.0,0.0,0.0,0.0,0.0,0.0,0.0,0.0,0.0,0.0,0.0,0.0,0.0,0.0,0.0,0.0,0.0,0.0,0.0,0.0,0.0,0.0,0.0,0.0,0.0,0.0,0.0,0.0,0.0,0.0,0.0,0.0,0.0,0.0,0.0,0.0,0.0,0.0,0.0,0.0,0.0,0.0,0.0,0.0,0.0,0.0,0.0,0.0,0.0,0.0,0.0,0.0,0.0,0.0,0.0,0.0,0.0,0.0,0.0,0.0,0.0,-3.5464,-3.6132,-3.6715,-3.7192,-3.6064,-3.529,0.0,0.0,0.0,0.0,0.0,0.0,0.0,0.0,0.0,0.0,0.0,0.0,0.0,0.0,0.0,0.0,0.0,0.0,0.0,0.0,0.0,0.0,0.0,0.0,0.0,0.0,0.0,0.0,0.0,0.0,0.0,0.0,0.0,0.0,0.0,0.0,0.0,0.0,0.0,0.0,0.0,0.0,0.0,0.0,0.0,0.0,0.0,0.0,0.0,0.0,0.0,0.0,0.0,0.0,0.0,0.0,0.0,0.0,0.0,0.0,0.0,0.0,0.0,0.0,0.0,0.0,0.0,0.0,0.0,0.0,0.0,0.0,0.0,0.0,0.0,0.0,0.0,0.0,0.0,0.0,0.0,0.0,0.0,0.0,0.0,0.0,0.0,0.0,0.0,0.0,0.0,0.0,0.0,0.0,0.0,0.0,0.0,0.0,0.0,0.0,0.0,0.0,0.0,0.0,0.0,0.0,0.0,0.0,0.0,-3.3955,-3.4888,-3.5643,-3.6244,-3.5104,-3.3839,-3.2368,0.0,0.0,0.0,0.0,0.0,0.0,0.0,0.0,0.0,0.0,0.0,0.0,0.0,0.0,0.0,0.0,0.0,0.0,0.0,0.0,0.0,0.0,0.0,0.0,0.0,0.0,0.0,0.0,0.0,0.0,0.0,0.0,0.0,0.0,0.0,0.0,0.0,0.0,0.0,0.0,0.0,0.0,0.0,0.0,0.0,0.0,0.0,0.0,0.0,0.0,0.0,0.0,0.0,0.0,0.0,0.0,0.0,0.0,0.0,0.0,0.0,0.0,0.0,0.0,0.0,0.0,0.0,0.0,0.0,0.0,0.0,0.0,0.0,0.0,0.0,0.0,0.0,0.0,0.0,0.0,0.0,0.0,0.0,0.0,0.0,0.0,0.0,0.0,0.0,0.0,0.0,0.0,0.0,0.0,0.0,0.0,0.0,0.0,0.0,0.0,0.0,0.0,0.0,0.0,0.0,0.0,0.0,0.0,-3.2319,-3.3425,-3.4313,-3.4896,-3.3748,-3.239,0.0,0.0,0.0,0.0,0.0,0.0,0.0,0.0,0.0,0.0,0.0,0.0,0.0,0.0,0.0,0.0,0.0,0.0,0.0,0.0,0.0,0.0,0.0,0.0,0.0,0.0,0.0,0.0,0.0,0.0,0.0,0.0,0.0,0.0,0.0,0.0,0.0,0.0,0.0,0.0,0.0,0.0,0.0,0.0,0.0,0.0,0.0,0.0,0.0,0.0,0.0,0.0,0.0,0.0,0.0,0.0,0.0,0.0,0.0,0.0,0.0,0.0,0.0,0.0,0.0,0.0,0.0,0.0,0.0,0.0,0.0,0.0,0.0,0.0,0.0,0.0,0.0,0.0,0.0,0.0,0.0,0.0,0.0,0.0,0.0,0.0,0.0,0.0,0.0,0.0,0.0,0.0,0.0,0.0,0.0,0.0,0.0,0.0,0.0,0.0,0.0,0.0,0.0,0.0,0.0,0.0,0.0,0.0,-2.9724,-3.076,-3.1789,-3.2696,-3.321,-3.2244,-3.14,0.0,0.0,0.0,0.0,0.0,0.0,0.0,0.0,0.0,0.0,0.0,0.0,0.0,0.0,0.0,0.0,0.0,0.0,0.0,0.0,0.0,0.0,0.0,0.0,0.0,0.0,0.0,0.0,0.0,0.0,0.0,0.0,0.0,0.0,0.0,0.0,0.0,0.0,0.0,0.0,0.0,0.0,0.0,0.0,0.0,0.0,0.0,0.0,0.0,0.0,0.0,0.0,0.0,0.0,0.0,0.0,0.0,0.0,0.0,0.0,0.0,0.0,0.0,0.0,0.0,0.0,0.0,0.0,0.0,0.0,0.0,0.0,0.0,0.0,0.0,0.0,0.0,0.0,0.0,0.0,0.0,0.0,0.0,0.0,0.0,0.0,0.0,0.0,0.0,0.0,0.0,0.0,0.0,0.0,0.0,0.0,0.0,0.0,0.0,0.0,0.0,0.0,0.0,0.0,0.0,0.0,0.0,0.0,0.0,-3.0273,0.0,-3.22,0.0,-3.2345,-3.1685,0.0,0.0,0.0,0.0,0.0,0.0,0.0,0.0,0.0,0.0,0.0,0.0,0.0,0.0,0.0,0.0,0.0,0.0,0.0,0.0,0.0,0.0,0.0,0.0,0.0,0.0,0.0,0.0,0.0,0.0,0.0,0.0,0.0,0.0,0.0,0.0,0.0,0.0,0.0,0.0,0.0,0.0,0.0,0.0,0.0,0.0,0.0,0.0,0.0,0.0,0.0,0.0,0.0,0.0,0.0,0.0,0.0,0.0,0.0,0.0,0.0,0.0,0.0,0.0,0.0,0.0,0.0,0.0,0.0,0.0,0.0,0.0,0.0,0.0,0.0,0.0,0.0,0.0,0.0,0.0,0.0,0.0,0.0,0.0,0.0,0.0,0.0,0.0,0.0,0.0,0.0,0.0,0.0,0.0,0.0,0.0,0.0,0.0,0.0,0.0,0.0,0.0,0.0,0.0,0.0,0.0,0.0,0.0,0.0,-3.0708,-3.1495,-3.17,-3.1492,-3.1954,-3.1438,0.0,0.0,0.0,0.0,0.0,0.0,0.0,0.0,0.0,0.0,0.0,0.0,0.0,0.0,0.0,0.0,0.0,0.0,0.0,0.0,0.0,0.0,0.0,0.0,0.0,0.0,0.0,0.0,0.0,0.0,0.0,0.0,0.0,0.0,0.0,0.0,0.0,0.0,0.0,0.0,0.0,0.0,0.0,0.0,0.0,0.0,0.0,0.0,0.0,0.0,0.0,0.0,0.0,0.0,0.0,0.0,0.0,0.0,0.0,0.0,0.0,0.0,0.0,0.0,0.0,0.0,0.0,0.0,0.0,0.0,0.0,0.0,0.0,0.0,0.0,0.0,0.0,0.0,0.0,0.0,0.0,0.0,0.0,0.0,0.0,0.0,0.0,0.0,0.0,0.0,0.0,0.0,0.0,0.0,0.0,0.0,0.0,0.0,0.0,0.0,0.0,0.0,0.0,0.0,0.0,0.0,0.0,0.0,0.0,0.0,-3.1076,-3.1103,-3.202,-3.1057,-3.0533,0.0,0.0,0.0,0.0,0.0,0.0,0.0,0.0,0.0,0.0,0.0,0.0,0.0,0.0,0.0,0.0,0.0,0.0,0.0,0.0,0.0,0.0,0.0,0.0,0.0,0.0,0.0,0.0,0.0,0.0,0.0,0.0,0.0,0.0,0.0,0.0,0.0,0.0,0.0,0.0,0.0,0.0,0.0,0.0,0.0,0.0,0.0,0.0,0.0,0.0,0.0,0.0,0.0,0.0,0.0,0.0,0.0,0.0,0.0,0.0,0.0,0.0,0.0,0.0,0.0,0.0,0.0,0.0,0.0,0.0,0.0,0.0,0.0,0.0,0.0,0.0,0.0,0.0,0.0,0.0,0.0,0.0,0.0,0.0,0.0,0.0,0.0,0.0,0.0,0.0,0.0,0.0,0.0,0.0,0.0,0.0,0.0,0.0,0.0,0.0,0.0,0.0,0.0,0.0,0.0,0.0,0.0,0.0,0.0,0.0,-3.0439,-3.068,-3.1696,-3.1073,-3.0332,-2.9577,0.0,0.0,0.0,0.0,0.0,0.0,0.0,0.0,0.0,0.0,0.0,0.0,0.0,0.0,0.0,0.0,0.0,0.0,0.0,0.0,0.0,0.0,0.0,0.0,0.0,0.0,0.0,0.0,0.0,0.0,0.0,0.0,0.0,0.0,0.0,0.0,0.0,0.0,0.0,0.0,0.0,0.0,0.0,0.0,0.0,0.0,0.0,0.0,0.0,0.0,0.0,0.0,0.0,0.0,0.0,0.0,0.0,0.0,0.0,0.0,0.0,0.0,0.0,0.0,0.0,0.0,0.0,0.0,0.0,0.0,0.0,0.0,0.0,0.0,0.0,0.0,0.0,0.0,0.0,0.0,0.0,0.0,0.0,0.0,0.0,0.0,0.0,0.0,0.0,0.0,0.0,0.0,0.0,0.0,0.0,0.0,0.0,0.0,0.0,0.0,0.0,0.0,0.0,0.0,0.0,0.0,0.0,0.0,0.0,0.0,-3.1003,-3.1782,-3.1471,-3.0591,0.0,0.0,0.0,0.0,0.0,0.0,0.0,0.0,0.0,0.0,0.0,0.0,0.0,0.0,0.0,0.0,0.0,0.0,0.0,0.0,0.0,0.0,0.0,0.0,0.0,0.0,0.0,0.0,0.0,0.0,0.0,0.0,0.0,0.0,0.0,0.0,0.0,0.0,0.0,0.0,0.0,0.0,0.0,0.0,0.0,0.0,0.0,0.0,0.0,0.0,0.0,0.0,0.0,0.0,0.0,0.0,0.0,0.0,0.0,0.0,0.0,0.0,0.0,0.0,0.0,0.0,0.0,0.0,0.0,0.0,0.0,0.0,0.0,0.0,0.0,0.0,0.0,0.0,0.0,0.0,0.0,0.0,0.0,0.0,0.0,0.0,0.0,0.0,0.0,0.0,0.0,0.0,0.0,0.0,0.0,0.0,0.0,0.0,0.0,0.0,0.0,0.0,0.0,0.0,0.0,0.0,0.0,0.0,0.0,0.0,0.0,-3.1647,-3.1948,-3.1924,0.0,-2.924,0.0,0.0,0.0,0.0,0.0,0.0,0.0,0.0,0.0,0.0,0.0,0.0,0.0,0.0,0.0,0.0,0.0,0.0,0.0,0.0,0.0,0.0,0.0,0.0,0.0,0.0,0.0,0.0,0.0,0.0,0.0,0.0,0.0,0.0,0.0,0.0,0.0,0.0,0.0,0.0,0.0,0.0,0.0,0.0,0.0,0.0,0.0,0.0,0.0,0.0,0.0,0.0,0.0,0.0,0.0,0.0,0.0,0.0,0.0,0.0,0.0,0.0,0.0,0.0,0.0,0.0,0.0,0.0,0.0,0.0,0.0,0.0,0.0,0.0,0.0,0.0,0.0,0.0,0.0,0.0,0.0,0.0,0.0,0.0,0.0,0.0,0.0,0.0,0.0,0.0,0.0,0.0,0.0,0.0,0.0,0.0,0.0,0.0,0.0,0.0,0.0,0.0,0.0,0.0,0.0,0.0,0.0,0.0,0.0,0.0,0.0,0.0,-3.0955,-3.0512,-2.9428,0.0,0.0,0.0,0.0,0.0,0.0,0.0,0.0,0.0,0.0,0.0,0.0,0.0,0.0,0.0,0.0,0.0,0.0,0.0,0.0,0.0,0.0,0.0,0.0,0.0,0.0,0.0,0.0,0.0,0.0,0.0,0.0,0.0,0.0,0.0,0.0,0.0,0.0,0.0,0.0,0.0,0.0,0.0,0.0,0.0,0.0,0.0,0.0,0.0,0.0,0.0,0.0,0.0,0.0,0.0,0.0,0.0,0.0,0.0,0.0,0.0,0.0,0.0,0.0,0.0,0.0,0.0,0.0,0.0,0.0,0.0,0.0,0.0,0.0,0.0,0.0,0.0,0.0,0.0,0.0,0.0,0.0,0.0,0.0,0.0,0.0,0.0,0.0,0.0,0.0,0.0,0.0,0.0,0.0,0.0,0.0,0.0,0.0,0.0,0.0,0.0,0.0,0.0,0.0,0.0,0.0,0.0,0.0,0.0,0.0,-3.0803,-3.0027,-3.0178,-2.9637,-2.822,0.0,0.0,0.0,0.0,0.0,0.0,0.0,0.0,0.0,0.0,0.0,0.0,0.0,0.0,0.0,0.0,0.0,0.0,0.0,0.0,0.0,0.0,0.0,0.0,0.0,0.0,0.0,0.0,0.0,0.0,0.0,0.0,0.0,0.0,0.0,0.0,0.0,0.0,0.0,0.0,0.0,0.0,0.0,0.0,0.0,0.0,0.0,0.0,0.0,0.0,0.0,0.0,0.0,0.0,0.0,0.0,0.0,0.0,0.0,0.0,0.0,0.0,0.0,0.0,0.0,0.0,0.0,0.0,0.0,0.0,0.0,0.0,0.0,0.0,0.0,0.0,0.0,0.0,0.0,0.0,0.0,0.0,0.0,0.0,0.0,0.0,0.0,0.0,0.0,0.0,0.0,0.0,0.0,0.0,0.0,0.0,0.0,0.0,0.0,0.0,0.0,0.0,0.0,0.0,0.0,0.0,0.0,0.0,0.0,0.0,0.0,0.0,0.0,0.0,-2.7052,0.0,0.0,0.0,0.0,0.0,0.0,0.0,0.0,0.0,0.0,0.0,0.0,0.0,0.0,0.0,0.0,0.0,0.0,0.0,0.0,0.0,0.0,0.0,0.0,0.0,0.0,0.0,0.0,0.0,0.0,0.0,0.0,0.0,0.0,0.0,0.0,0.0,0.0,0.0,0.0,0.0,0.0,0.0,0.0,0.0,0.0,0.0,0.0,0.0,0.0,0.0,0.0,0.0,0.0,0.0,0.0,0.0,0.0,0.0,0.0,0.0,0.0,0.0,0.0,0.0,0.0,0.0,0.0,0.0,0.0,0.0,0.0,0.0,0.0,0.0,0.0,0.0,0.0,0.0,0.0,0.0,0.0,0.0,0.0,0.0,0.0,0.0,0.0,0.0,0.0,0.0,0.0,0.0,0.0,0.0,0.0,0.0,0.0,0.0,0.0,0.0,0.0,0.0,0.0,0.0,0.0,0.0,0.0,0.0,0.0,0.0,0.0,0.0,0.0,0.0,0.0,0.0,0.0,0.0,0.0,0.0,0.0,0.0,0.0,0.0,0.0,0.0,0.0,0.0,0.0,0.0,0.0,0.0,0.0,0.0,0.0,0.0,0.0,0.0,0.0,0.0,0.0,0.0,0.0,0.0,0.0,0.0,0.0,0.0,0.0,0.0,0.0,0.0,0.0,0.0,0.0,0.0,0.0,0.0,0.0,0.0,0.0,0.0,0.0,0.0,0.0,0.0,0.0,0.0,0.0,0.0,0.0,0.0,0.0,0.0,0.0,0.0,0.0,0.0,0.0,0.0,0.0,0.0,0.0,0.0,0.0,0.0,0.0,0.0,0.0,0.0,0.0,0.0,0.0,0.0,0.0,0.0,0.0,0.0,0.0,0.0,0.0,0.0,0.0,0.0,0.0,0.0,0.0,0.0,0.0,0.0,0.0,0.0,0.0,0.0,0.0,0.0,0.0,0.0,0.0,0.0,0.0,0.0,0.0,0.0,0.0,0.0,0.0,0.0,0.0,0.0,0.0,0.0,0.0,0.0,0.0,0.0,0.0,0.0,0.0,0.0,0.0,0.0,0.0,0.0,0.0,0.0,0.0,0.0,0.0,0.0,0.0,0.0,0.0,0.0,0.0,0.0,0.0,0.0,0.0,0.0,0.0,0.0,0.0,0.0,0.0,0.0,0.0,0.0,0.0,0.0,0.0,0.0,0.0,0.0,0.0,0.0,0.0,0.0,0.0,0.0,0.0,0.0,0.0,0.0,0.0,0.0,0.0,0.0,0.0,0.0,0.0,0.0,0.0,0.0,0.0,0.0,0.0,0.0,0.0,0.0,0.0,0.0,0.0,0.0,0.0,0.0,0.0,0.0,0.0,0.0,0.0,0.0,0.0,0.0,0.0,0.0,0.0,0.0,0.0,0.0,0.0,0.0,0.0,0.0,0.0,0.0,0.0,0.0,0.0,0.0,0.0,0.0,0.0,0.0,0.0,0.0,0.0,0.0,0.0,0.0,0.0,0.0,0.0,0.0,0.0,0.0,0.0,0.0,0.0,0.0,0.0,0.0,0.0,0.0,0.0,0.0,0.0,0.0,0.0,0.0,0.0,0.0,0.0,0.0,0.0,0.0,0.0,0.0,0.0,0.0,0.0,0.0,0.0,0.0,0.0,0.0,0.0,0.0,0.0,0.0,0.0,0.0,0.0,0.0,0.0,0.0,0.0,0.0,0.0,0.0,0.0,0.0,0.0,0.0,0.0,0.0,0.0,0.0,0.0,0.0,0.0,0.0,0.0,0.0,0.0,0.0,0.0,0.0,0.0,0.0,0.0,0.0,0.0,0.0,0.0,0.0,0.0,0.0,0.0,0.0,0.0,0.0,0.0,0.0,0.0,0.0,0.0,0.0,0.0,0.0,0.0,0.0,0.0,0.0,0.0,0.0,0.0,0.0,0.0,0.0,0.0,0.0,0.0,0.0,0.0,0.0,0.0,0.0,0.0,0.0,0.0,0.0,0.0,0.0,0.0,0.0,0.0,0.0,0.0,0.0,0.0,0.0,0.0,0.0,0.0,0.0,0.0,0.0,0.0,0.0,0.0,0.0,0.0,0.0,0.0,0.0,0.0,0.0,0.0,0.0,0.0,0.0,0.0,0.0,0.0,0.0,0.0,0.0,0.0,0.0,0.0,0.0,0.0,0.0,0.0,0.0,0.0,0.0,0.0,0.0,0.0,0.0,0.0,0.0,0.0,0.0,0.0,0.0,0.0,0.0,0.0,0.0,0.0,0.0,0.0,0.0,0.0,0.0,0.0,0.0,0.0,0.0,0.0,0.0,0.0,0.0,0.0,0.0,0.0,0.0,0.0,0.0,0.0,0.0,0.0,0.0,0.0,0.0,0.0,0.0,0.0,0.0,0.0,0.0,0.0,0.0,0.0,0.0,0.0,0.0,0.0,0.0,0.0,0.0,0.0,0.0,0.0,0.0,0.0,0.0,0.0,0.0,0.0,0.0,0.0,0.0,0.0,0.0,0.0,0.0,0.0,0.0,0.0,0.0,0.0,0.0,0.0,0.0,0.0,0.0,0.0,0.0,0.0,0.0,0.0,0.0,0.0,0.0,0.0,0.0,0.0,0.0,0.0,0.0,0.0,0.0,0.0,0.0,0.0,0.0,0.0,0.0,0.0,0.0,0.0,0.0,0.0,0.0,0.0,0.0,0.0,0.0,0.0,0.0,0.0,0.0,0.0,0.0,0.0,0.0,0.0,0.0,0.0,0.0,0.0,0.0,0.0,0.0,0.0,0.0,0.0,0.0,0.0,0.0,0.0,0.0,0.0,0.0,0.0,0.0,0.0,0.0,0.0,0.0,0.0,0.0,0.0,0.0,0.0,0.0,0.0,0.0,0.0,0.0,0.0,0.0,0.0,0.0,0.0,0.0,0.0,0.0,0.0,0.0,0.0,0.0,0.0,0.0,0.0,0.0,0.0,0.0,0.0,0.0,0.0,0.0,0.0,0.0,0.0,0.0,0.0,0.0,0.0,0.0,0.0,0.0,0.0,0.0,0.0,0.0,0.0,0.0,0.0,0.0,0.0,0.0,0.0,0.0,0.0,0.0,0.0,0.0,0.0,0.0,0.0,0.0,0.0,0.0,0.0,0.0,0.0,0.0,0.0,0.0,0.0,0.0,0.0,0.0,0.0,0.0,0.0,0.0,0.0,0.0,0.0,0.0,0.0,0.0,0.0,0.0,0.0,0.0,0.0,0.0,0.0,0.0,0.0,0.0,0.0,0.0,0.0,0.0,0.0,0.0,0.0,0.0,0.0,0.0,0.0,0.0,0.0,0.0,0.0,0.0,0.0,0.0,0.0,0.0,0.0,0.0,0.0,0.0,0.0,0.0,0.0,0.0,0.0,0.0,0.0,0.0,0.0,0.0,0.0,0.0,0.0,0.0,0.0,0.0,0.0,0.0,0.0,0.0,0.0,0.0,0.0,0.0,0.0,0.0,0.0,0.0,0.0,0.0,0.0,0.0,0.0,0.0,0.0,0.0,0.0,0.0,0.0,0.0,0.0,0.0,0.0,0.0,0.0,0.0,0.0,0.0,0.0,0.0,0.0,0.0,0.0,0.0,0.0,0.0,0.0,0.0,0.0,0.0,0.0,0.0,0.0,0.0,0.0,0.0,0.0,0.0,0.0,0.0,0.0,0.0,0.0,0.0,0.0,0.0,0.0,0.0,0.0,0.0,0.0,0.0,0.0,0.0,0.0,0.0,0.0,0.0,0.0,0.0,0.0,0.0,0.0,0.0,0.0,0.0,0.0,0.0,0.0,0.0,0.0,0.0,0.0,0.0,0.0,0.0,0.0,0.0,0.0,0.0,0.0,0.0,0.0,0.0,0.0,0.0,0.0,0.0,0.0,0.0,0.0,0.0,0.0,0.0,0.0,0.0,0.0,0.0,0.0,0.0,0.0,0.0,0.0,0.0,0.0,0.0,0.0,0.0,0.0,0.0,0.0,0.0,0.0,0.0,0.0,0.0,0.0,0.0,0.0,0.0,0.0,0.0,0.0,0.0,0.0,0.0,0.0,0.0,0.0,0.0,0.0,0.0,0.0,0.0,0.0,0.0,0.0,0.0,0.0,0.0,0.0,0.0,0.0,0.0,0.0,0.0,0.0,0.0,0.0,0.0,0.0,0.0,0.0,0.0,0.0,0.0,0.0,0.0,0.0,0.0,0.0,0.0,0.0,0.0,0.0,0.0,0.0,0.0,0.0,0.0,0.0,0.0,0.0,0.0,0.0,0.0,0.0,0.0,0.0,0.0,0.0,0.0,0.0,0.0,0.0,0.0,0.0,0.0,0.0,0.0,0.0,0.0,0.0,0.0,0.0]}]]]